<?xml version='1.0' encoding='UTF-8'?><gpx version="1.1" creator="JPX - https://github.com/jenetics/jpx" xmlns="http://www.topografix.com/GPX/1/1"><trk><trkseg><trkpt lat="42.0519264" lon="11.8262855"><ele>29.0</ele><time>2026-04-04T13:44:17.234Z</time></trkpt><trkpt lat="42.0520299" lon="11.8263114"><ele>29.0</ele><time>2026-04-04T13:44:19.23Z</time></trkpt><trkpt lat="42.0521083" lon="11.8264283"><ele>29.0</ele><time>2026-04-04T13:44:21.232Z</time></trkpt><trkpt lat="42.0521235" lon="11.8265232"><ele>29.0</ele><time>2026-04-04T13:44:22.228Z</time></trkpt><trkpt lat="42.0521352" lon="11.8266433"><ele>29.0</ele><time>2026-04-04T13:44:23.235Z</time></trkpt><trkpt lat="42.0521559" lon="11.826754"><ele>29.499999999999996</ele><time>2026-04-04T13:44:24.231Z</time></trkpt><trkpt lat="42.0521997" lon="11.8268439"><ele>30.0</ele><time>2026-04-04T13:44:25.233Z</time></trkpt><trkpt lat="42.0522551" lon="11.8269256"><ele>30.5</ele><time>2026-04-04T13:44:26.231Z</time></trkpt><trkpt lat="42.0523389" lon="11.827015"><ele>31.0</ele><time>2026-04-04T13:44:28.229Z</time></trkpt><trkpt lat="42.0524059" lon="11.8270923"><ele>31.499999999999996</ele><time>2026-04-04T13:44:30.25Z</time></trkpt><trkpt lat="42.0524269" lon="11.827189"><ele>32.0</ele><time>2026-04-04T13:44:32.232Z</time></trkpt><trkpt lat="42.0524025" lon="11.8272949"><ele>31.999999999999996</ele><time>2026-04-04T13:44:34.242Z</time></trkpt><trkpt lat="42.0523247" lon="11.8274283"><ele>32.0</ele><time>2026-04-04T13:44:36.232Z</time></trkpt><trkpt lat="42.0522801" lon="11.8274926"><ele>32.0</ele><time>2026-04-04T13:44:37.234Z</time></trkpt><trkpt lat="42.0522365" lon="11.8275592"><ele>32.0</ele><time>2026-04-04T13:44:38.233Z</time></trkpt><trkpt lat="42.0521887" lon="11.8276326"><ele>31.999999999999996</ele><time>2026-04-04T13:44:39.23Z</time></trkpt><trkpt lat="42.0521411" lon="11.8277051"><ele>32.0</ele><time>2026-04-04T13:44:40.245Z</time></trkpt><trkpt lat="42.0520915" lon="11.8277782"><ele>32.714285714285715</ele><time>2026-04-04T13:44:41.233Z</time></trkpt><trkpt lat="42.0520367" lon="11.8278451"><ele>33.42857142857142</ele><time>2026-04-04T13:44:42.238Z</time></trkpt><trkpt lat="42.0519775" lon="11.8278966"><ele>34.14285714285714</ele><time>2026-04-04T13:44:43.237Z</time></trkpt><trkpt lat="42.0519197" lon="11.8279605"><ele>34.857142857142854</ele><time>2026-04-04T13:44:44.229Z</time></trkpt><trkpt lat="42.0518633" lon="11.8280289"><ele>35.57142857142857</ele><time>2026-04-04T13:44:45.23Z</time></trkpt><trkpt lat="42.0518099" lon="11.8280987"><ele>36.285714285714285</ele><time>2026-04-04T13:44:46.234Z</time></trkpt><trkpt lat="42.0517572" lon="11.8281735"><ele>37.0</ele><time>2026-04-04T13:44:47.232Z</time></trkpt><trkpt lat="42.0517111" lon="11.8282446"><ele>37.0</ele><time>2026-04-04T13:44:48.239Z</time></trkpt><trkpt lat="42.0516534" lon="11.8283141"><ele>37.0</ele><time>2026-04-04T13:44:49.235Z</time></trkpt><trkpt lat="42.0515923" lon="11.8283834"><ele>37.0</ele><time>2026-04-04T13:44:50.228Z</time></trkpt><trkpt lat="42.051529" lon="11.8284531"><ele>37.0</ele><time>2026-04-04T13:44:51.228Z</time></trkpt><trkpt lat="42.0514642" lon="11.8285121"><ele>37.0</ele><time>2026-04-04T13:44:52.238Z</time></trkpt><trkpt lat="42.0514005" lon="11.8285704"><ele>37.0</ele><time>2026-04-04T13:44:53.23Z</time></trkpt><trkpt lat="42.0513401" lon="11.8286308"><ele>37.0</ele><time>2026-04-04T13:44:54.227Z</time></trkpt><trkpt lat="42.0512815" lon="11.828693"><ele>37.0</ele><time>2026-04-04T13:44:55.235Z</time></trkpt><trkpt lat="42.0512226" lon="11.8287595"><ele>37.0</ele><time>2026-04-04T13:44:56.233Z</time></trkpt><trkpt lat="42.0511552" lon="11.828819"><ele>37.0</ele><time>2026-04-04T13:44:57.239Z</time></trkpt><trkpt lat="42.0510887" lon="11.8288606"><ele>37.0</ele><time>2026-04-04T13:44:58.228Z</time></trkpt><trkpt lat="42.0509745" lon="11.8289334"><ele>37.0</ele><time>2026-04-04T13:45:00.268Z</time></trkpt><trkpt lat="42.0509229" lon="11.8289871"><ele>37.0</ele><time>2026-04-04T13:45:01.229Z</time></trkpt><trkpt lat="42.0508714" lon="11.8290608"><ele>37.0</ele><time>2026-04-04T13:45:02.235Z</time></trkpt><trkpt lat="42.0508226" lon="11.8291476"><ele>37.0</ele><time>2026-04-04T13:45:03.23Z</time></trkpt><trkpt lat="42.0507784" lon="11.82923"><ele>37.0</ele><time>2026-04-04T13:45:04.242Z</time></trkpt><trkpt lat="42.0507324" lon="11.829317"><ele>37.0</ele><time>2026-04-04T13:45:05.241Z</time></trkpt><trkpt lat="42.050678" lon="11.8294054"><ele>37.0</ele><time>2026-04-04T13:45:06.232Z</time></trkpt><trkpt lat="42.0506246" lon="11.8294892"><ele>36.833333333333336</ele><time>2026-04-04T13:45:07.243Z</time></trkpt><trkpt lat="42.0505711" lon="11.8295764"><ele>36.66666666666667</ele><time>2026-04-04T13:45:08.231Z</time></trkpt><trkpt lat="42.0505231" lon="11.8296665"><ele>36.5</ele><time>2026-04-04T13:45:09.23Z</time></trkpt><trkpt lat="42.0504866" lon="11.8297674"><ele>36.333333333333336</ele><time>2026-04-04T13:45:10.234Z</time></trkpt><trkpt lat="42.0504634" lon="11.8298741"><ele>36.166666666666664</ele><time>2026-04-04T13:45:11.226Z</time></trkpt><trkpt lat="42.050445" lon="11.8299845"><ele>36.0</ele><time>2026-04-04T13:45:12.235Z</time></trkpt><trkpt lat="42.0504268" lon="11.8300945"><ele>36.833333333333336</ele><time>2026-04-04T13:45:13.23Z</time></trkpt><trkpt lat="42.0504053" lon="11.8301936"><ele>37.666666666666664</ele><time>2026-04-04T13:45:14.23Z</time></trkpt><trkpt lat="42.0503775" lon="11.8302932"><ele>38.5</ele><time>2026-04-04T13:45:15.232Z</time></trkpt><trkpt lat="42.0503459" lon="11.8303942"><ele>39.33333333333333</ele><time>2026-04-04T13:45:16.231Z</time></trkpt><trkpt lat="42.0503073" lon="11.8304948"><ele>40.166666666666664</ele><time>2026-04-04T13:45:17.228Z</time></trkpt><trkpt lat="42.0502603" lon="11.8305908"><ele>41.0</ele><time>2026-04-04T13:45:18.234Z</time></trkpt><trkpt lat="42.0502126" lon="11.8306727"><ele>41.0</ele><time>2026-04-04T13:45:19.233Z</time></trkpt><trkpt lat="42.0501552" lon="11.8307452"><ele>41.0</ele><time>2026-04-04T13:45:20.23Z</time></trkpt><trkpt lat="42.0500947" lon="11.8307997"><ele>41.0</ele><time>2026-04-04T13:45:21.231Z</time></trkpt><trkpt lat="42.0500288" lon="11.8308491"><ele>41.0</ele><time>2026-04-04T13:45:22.238Z</time></trkpt><trkpt lat="42.0499275" lon="11.8309472"><ele>41.0</ele><time>2026-04-04T13:45:24.237Z</time></trkpt><trkpt lat="42.0498785" lon="11.8310079"><ele>41.0</ele><time>2026-04-04T13:45:25.229Z</time></trkpt><trkpt lat="42.0498114" lon="11.8311458"><ele>41.8</ele><time>2026-04-04T13:45:27.231Z</time></trkpt><trkpt lat="42.0497908" lon="11.8312698"><ele>42.599999999999994</ele><time>2026-04-04T13:45:29.249Z</time></trkpt><trkpt lat="42.0498265" lon="11.8313534"><ele>43.4</ele><time>2026-04-04T13:45:31.235Z</time></trkpt><trkpt lat="42.0499062" lon="11.8314738"><ele>44.2</ele><time>2026-04-04T13:45:33.242Z</time></trkpt><trkpt lat="42.0499701" lon="11.8315388"><ele>45.0</ele><time>2026-04-04T13:45:34.235Z</time></trkpt><trkpt lat="42.0500673" lon="11.8316487"><ele>45.0</ele><time>2026-04-04T13:45:36.236Z</time></trkpt><trkpt lat="42.0501188" lon="11.8317008"><ele>45.0</ele><time>2026-04-04T13:45:37.237Z</time></trkpt><trkpt lat="42.0501695" lon="11.8317554"><ele>45.0</ele><time>2026-04-04T13:45:38.231Z</time></trkpt><trkpt lat="42.0502308" lon="11.8318725"><ele>45.0</ele><time>2026-04-04T13:45:40.229Z</time></trkpt><trkpt lat="42.0502302" lon="11.8320165"><ele>45.0</ele><time>2026-04-04T13:45:42.23Z</time></trkpt><trkpt lat="42.0501752" lon="11.8321372"><ele>45.0</ele><time>2026-04-04T13:45:44.228Z</time></trkpt><trkpt lat="42.0500957" lon="11.8322073"><ele>45.4</ele><time>2026-04-04T13:45:46.23Z</time></trkpt><trkpt lat="42.0500068" lon="11.8323194"><ele>45.8</ele><time>2026-04-04T13:45:48.238Z</time></trkpt><trkpt lat="42.0499551" lon="11.8323962"><ele>46.2</ele><time>2026-04-04T13:45:49.231Z</time></trkpt><trkpt lat="42.0499203" lon="11.8324702"><ele>46.6</ele><time>2026-04-04T13:45:50.235Z</time></trkpt><trkpt lat="42.0498775" lon="11.8326185"><ele>47.0</ele><time>2026-04-04T13:45:52.239Z</time></trkpt><trkpt lat="42.0498348" lon="11.8327149"><ele>45.83333333333333</ele><time>2026-04-04T13:45:53.231Z</time></trkpt><trkpt lat="42.0497723" lon="11.832823"><ele>44.666666666666664</ele><time>2026-04-04T13:45:54.23Z</time></trkpt><trkpt lat="42.0497095" lon="11.8329155"><ele>43.5</ele><time>2026-04-04T13:45:55.23Z</time></trkpt><trkpt lat="42.0496612" lon="11.8330129"><ele>42.333333333333336</ele><time>2026-04-04T13:45:56.233Z</time></trkpt><trkpt lat="42.0496218" lon="11.8331142"><ele>41.16666666666667</ele><time>2026-04-04T13:45:57.241Z</time></trkpt><trkpt lat="42.0495935" lon="11.8332056"><ele>40.0</ele><time>2026-04-04T13:45:58.24Z</time></trkpt><trkpt lat="42.0495698" lon="11.8332847"><ele>40.0</ele><time>2026-04-04T13:45:59.233Z</time></trkpt><trkpt lat="42.0495617" lon="11.8333692"><ele>40.0</ele><time>2026-04-04T13:46:05.23Z</time></trkpt><trkpt lat="42.0496205" lon="11.8334546"><ele>40.0</ele><time>2026-04-04T13:46:09.229Z</time></trkpt><trkpt lat="42.0496855" lon="11.8335106"><ele>40.0</ele><time>2026-04-04T13:46:16.229Z</time></trkpt><trkpt lat="42.0497616" lon="11.8335685"><ele>40.0</ele><time>2026-04-04T13:46:18.239Z</time></trkpt><trkpt lat="42.0498548" lon="11.833631"><ele>40.0</ele><time>2026-04-04T13:46:20.232Z</time></trkpt><trkpt lat="42.049951" lon="11.8336612"><ele>42.5</ele><time>2026-04-04T13:46:22.229Z</time></trkpt><trkpt lat="42.0500383" lon="11.8336797"><ele>45.0</ele><time>2026-04-04T13:46:24.234Z</time></trkpt><trkpt lat="42.0501442" lon="11.8336986"><ele>47.5</ele><time>2026-04-04T13:46:26.234Z</time></trkpt><trkpt lat="42.0502215" lon="11.8337016"><ele>50.0</ele><time>2026-04-04T13:46:29.233Z</time></trkpt><trkpt lat="42.0502796" lon="11.8336682"><ele>52.49999999999999</ele><time>2026-04-04T13:46:32.237Z</time></trkpt><trkpt lat="42.0503364" lon="11.8336204"><ele>55.0</ele><time>2026-04-04T13:46:46.231Z</time></trkpt><trkpt lat="42.050399" lon="11.8335826"><ele>54.99999999999999</ele><time>2026-04-04T13:46:50.228Z</time></trkpt><trkpt lat="42.0504634" lon="11.8335601"><ele>55.0</ele><time>2026-04-04T13:46:53.23Z</time></trkpt><trkpt lat="42.0505216" lon="11.8335225"><ele>55.0</ele><time>2026-04-04T13:46:55.233Z</time></trkpt><trkpt lat="42.0506141" lon="11.8335086"><ele>55.0</ele><time>2026-04-04T13:46:57.243Z</time></trkpt><trkpt lat="42.0507098" lon="11.8334879"><ele>54.99999999999999</ele><time>2026-04-04T13:46:59.234Z</time></trkpt><trkpt lat="42.0507944" lon="11.8334875"><ele>55.0</ele><time>2026-04-04T13:47:01.238Z</time></trkpt><trkpt lat="42.050902" lon="11.8335167"><ele>57.0</ele><time>2026-04-04T13:47:03.235Z</time></trkpt><trkpt lat="42.0510033" lon="11.8335477"><ele>59.0</ele><time>2026-04-04T13:47:05.244Z</time></trkpt><trkpt lat="42.0510999" lon="11.8335861"><ele>61.0</ele><time>2026-04-04T13:47:07.229Z</time></trkpt><trkpt lat="42.0511895" lon="11.8336517"><ele>63.0</ele><time>2026-04-04T13:47:09.235Z</time></trkpt><trkpt lat="42.0512911" lon="11.8337339"><ele>65.0</ele><time>2026-04-04T13:47:11.228Z</time></trkpt><trkpt lat="42.0513398" lon="11.8337951"><ele>65.0</ele><time>2026-04-04T13:47:12.231Z</time></trkpt><trkpt lat="42.0514183" lon="11.8339037"><ele>65.0</ele><time>2026-04-04T13:47:14.238Z</time></trkpt><trkpt lat="42.051495" lon="11.834029"><ele>65.0</ele><time>2026-04-04T13:47:16.237Z</time></trkpt><trkpt lat="42.0515665" lon="11.8341456"><ele>65.0</ele><time>2026-04-04T13:47:18.233Z</time></trkpt><trkpt lat="42.051633" lon="11.8342913"><ele>67.66666666666667</ele><time>2026-04-04T13:47:20.228Z</time></trkpt><trkpt lat="42.051664" lon="11.8343787"><ele>70.33333333333334</ele><time>2026-04-04T13:47:21.228Z</time></trkpt><trkpt lat="42.0516964" lon="11.8344636"><ele>73.0</ele><time>2026-04-04T13:47:22.23Z</time></trkpt><trkpt lat="42.0517257" lon="11.8345425"><ele>75.66666666666667</ele><time>2026-04-04T13:47:23.23Z</time></trkpt><trkpt lat="42.0517488" lon="11.8346274"><ele>78.33333333333333</ele><time>2026-04-04T13:47:24.239Z</time></trkpt><trkpt lat="42.0517841" lon="11.8347976"><ele>81.0</ele><time>2026-04-04T13:47:26.235Z</time></trkpt><trkpt lat="42.0517878" lon="11.8348923"><ele>81.0</ele><time>2026-04-04T13:47:27.23Z</time></trkpt><trkpt lat="42.0517902" lon="11.8349906"><ele>81.0</ele><time>2026-04-04T13:47:28.25Z</time></trkpt><trkpt lat="42.0517789" lon="11.8351356"><ele>81.0</ele><time>2026-04-04T13:47:30.234Z</time></trkpt><trkpt lat="42.051754" lon="11.8353042"><ele>81.0</ele><time>2026-04-04T13:47:32.245Z</time></trkpt><trkpt lat="42.0516998" lon="11.8354349"><ele>81.0</ele><time>2026-04-04T13:47:34.237Z</time></trkpt><trkpt lat="42.0516584" lon="11.8355387"><ele>81.8</ele><time>2026-04-04T13:47:36.229Z</time></trkpt><trkpt lat="42.0516521" lon="11.8356349"><ele>82.6</ele><time>2026-04-04T13:47:38.229Z</time></trkpt><trkpt lat="42.0516642" lon="11.8357497"><ele>83.4</ele><time>2026-04-04T13:47:40.237Z</time></trkpt><trkpt lat="42.0516838" lon="11.8358353"><ele>84.2</ele><time>2026-04-04T13:47:42.246Z</time></trkpt><trkpt lat="42.0517624" lon="11.8359348"><ele>85.0</ele><time>2026-04-04T13:47:45.237Z</time></trkpt><trkpt lat="42.0518812" lon="11.8359993"><ele>85.0</ele><time>2026-04-04T13:47:47.229Z</time></trkpt><trkpt lat="42.0519537" lon="11.8360356"><ele>85.0</ele><time>2026-04-04T13:47:48.23Z</time></trkpt><trkpt lat="42.052033" lon="11.8360677"><ele>85.0</ele><time>2026-04-04T13:47:49.238Z</time></trkpt><trkpt lat="42.052108" lon="11.836089"><ele>85.0</ele><time>2026-04-04T13:47:50.228Z</time></trkpt><trkpt lat="42.0521834" lon="11.8361065"><ele>85.0</ele><time>2026-04-04T13:47:51.234Z</time></trkpt><trkpt lat="42.0522601" lon="11.8361305"><ele>85.0</ele><time>2026-04-04T13:47:52.235Z</time></trkpt><trkpt lat="42.0523382" lon="11.8361544"><ele>85.0</ele><time>2026-04-04T13:47:53.235Z</time></trkpt><trkpt lat="42.0524134" lon="11.8361743"><ele>85.0</ele><time>2026-04-04T13:47:54.235Z</time></trkpt><trkpt lat="42.0524955" lon="11.8361979"><ele>85.0</ele><time>2026-04-04T13:47:55.23Z</time></trkpt><trkpt lat="42.0525686" lon="11.8362246"><ele>85.0</ele><time>2026-04-04T13:47:56.234Z</time></trkpt><trkpt lat="42.0526644" lon="11.8362969"><ele>85.0</ele><time>2026-04-04T13:47:58.244Z</time></trkpt><trkpt lat="42.0527165" lon="11.8363458"><ele>85.0</ele><time>2026-04-04T13:47:59.234Z</time></trkpt><trkpt lat="42.0527715" lon="11.8363942"><ele>88.0</ele><time>2026-04-04T13:48:00.231Z</time></trkpt><trkpt lat="42.0528202" lon="11.8364525"><ele>91.0</ele><time>2026-04-04T13:48:01.229Z</time></trkpt><trkpt lat="42.0528899" lon="11.8365351"><ele>94.0</ele><time>2026-04-04T13:48:03.235Z</time></trkpt><trkpt lat="42.0529754" lon="11.8365663"><ele>97.0</ele><time>2026-04-04T13:48:05.234Z</time></trkpt><trkpt lat="42.0530856" lon="11.8365243"><ele>100.0</ele><time>2026-04-04T13:48:07.232Z</time></trkpt><trkpt lat="42.053192" lon="11.8364881"><ele>100.4</ele><time>2026-04-04T13:48:09.233Z</time></trkpt><trkpt lat="42.053314" lon="11.8365106"><ele>100.8</ele><time>2026-04-04T13:48:11.231Z</time></trkpt><trkpt lat="42.0533844" lon="11.8365364"><ele>101.19999999999999</ele><time>2026-04-04T13:48:12.251Z</time></trkpt><trkpt lat="42.0535041" lon="11.8365948"><ele>101.6</ele><time>2026-04-04T13:48:14.229Z</time></trkpt><trkpt lat="42.0535877" lon="11.8366933"><ele>102.0</ele><time>2026-04-04T13:48:16.233Z</time></trkpt><trkpt lat="42.0536436" lon="11.8368138"><ele>102.0</ele><time>2026-04-04T13:48:18.232Z</time></trkpt><trkpt lat="42.0536453" lon="11.8369098"><ele>102.0</ele><time>2026-04-04T13:48:20.229Z</time></trkpt><trkpt lat="42.0537038" lon="11.8369912"><ele>102.0</ele><time>2026-04-04T13:49:02.234Z</time></trkpt><trkpt lat="42.0537709" lon="11.8370508"><ele>102.0</ele><time>2026-04-04T13:49:04.239Z</time></trkpt><trkpt lat="42.053827" lon="11.837097"><ele>102.0</ele><time>2026-04-04T13:49:05.229Z</time></trkpt><trkpt lat="42.0539357" lon="11.8371734"><ele>102.0</ele><time>2026-04-04T13:49:07.238Z</time></trkpt><trkpt lat="42.0539954" lon="11.8372092"><ele>102.0</ele><time>2026-04-04T13:49:08.233Z</time></trkpt><trkpt lat="42.0540575" lon="11.8372445"><ele>102.0</ele><time>2026-04-04T13:49:09.231Z</time></trkpt><trkpt lat="42.0541163" lon="11.8372931"><ele>102.0</ele><time>2026-04-04T13:49:10.232Z</time></trkpt><trkpt lat="42.0541795" lon="11.8373433"><ele>102.0</ele><time>2026-04-04T13:49:11.231Z</time></trkpt><trkpt lat="42.0542393" lon="11.837394"><ele>102.0</ele><time>2026-04-04T13:49:12.23Z</time></trkpt><trkpt lat="42.0543038" lon="11.8374505"><ele>102.0</ele><time>2026-04-04T13:49:13.231Z</time></trkpt><trkpt lat="42.054368" lon="11.837506"><ele>102.0</ele><time>2026-04-04T13:49:14.232Z</time></trkpt><trkpt lat="42.0544294" lon="11.8375562"><ele>103.57142857142857</ele><time>2026-04-04T13:49:15.232Z</time></trkpt><trkpt lat="42.0544867" lon="11.8376037"><ele>105.14285714285714</ele><time>2026-04-04T13:49:16.233Z</time></trkpt><trkpt lat="42.0545453" lon="11.837655"><ele>106.71428571428572</ele><time>2026-04-04T13:49:17.241Z</time></trkpt><trkpt lat="42.054603" lon="11.8377124"><ele>108.28571428571428</ele><time>2026-04-04T13:49:18.234Z</time></trkpt><trkpt lat="42.0546632" lon="11.8377735"><ele>109.85714285714285</ele><time>2026-04-04T13:49:19.234Z</time></trkpt><trkpt lat="42.0547219" lon="11.8378315"><ele>111.42857142857143</ele><time>2026-04-04T13:49:20.23Z</time></trkpt><trkpt lat="42.0547815" lon="11.8378927"><ele>113.0</ele><time>2026-04-04T13:49:21.239Z</time></trkpt><trkpt lat="42.0548405" lon="11.8379477"><ele>112.99999999999999</ele><time>2026-04-04T13:49:22.237Z</time></trkpt><trkpt lat="42.0549034" lon="11.8380057"><ele>113.0</ele><time>2026-04-04T13:49:23.237Z</time></trkpt><trkpt lat="42.0549669" lon="11.8380603"><ele>113.0</ele><time>2026-04-04T13:49:24.23Z</time></trkpt><trkpt lat="42.0550311" lon="11.8381147"><ele>113.0</ele><time>2026-04-04T13:49:25.236Z</time></trkpt><trkpt lat="42.0550988" lon="11.8381683"><ele>112.99999999999999</ele><time>2026-04-04T13:49:26.234Z</time></trkpt><trkpt lat="42.0551626" lon="11.8382184"><ele>113.0</ele><time>2026-04-04T13:49:27.225Z</time></trkpt><trkpt lat="42.0552201" lon="11.8382734"><ele>115.33333333333333</ele><time>2026-04-04T13:49:28.233Z</time></trkpt><trkpt lat="42.0552788" lon="11.8383262"><ele>117.66666666666666</ele><time>2026-04-04T13:49:29.235Z</time></trkpt><trkpt lat="42.0553366" lon="11.838363"><ele>120.0</ele><time>2026-04-04T13:49:30.233Z</time></trkpt><trkpt lat="42.0553929" lon="11.838403"><ele>122.33333333333334</ele><time>2026-04-04T13:49:31.229Z</time></trkpt><trkpt lat="42.0554452" lon="11.8384588"><ele>124.66666666666667</ele><time>2026-04-04T13:49:32.234Z</time></trkpt><trkpt lat="42.055558" lon="11.8385461"><ele>127.0</ele><time>2026-04-04T13:49:34.232Z</time></trkpt><trkpt lat="42.0556222" lon="11.8385958"><ele>127.50000000000001</ele><time>2026-04-04T13:49:35.234Z</time></trkpt><trkpt lat="42.0556896" lon="11.8386443"><ele>128.0</ele><time>2026-04-04T13:49:36.234Z</time></trkpt><trkpt lat="42.0557585" lon="11.8386939"><ele>128.5</ele><time>2026-04-04T13:49:37.236Z</time></trkpt><trkpt lat="42.0558152" lon="11.8387395"><ele>129.0</ele><time>2026-04-04T13:49:38.236Z</time></trkpt><trkpt lat="42.0559207" lon="11.8388069"><ele>129.5</ele><time>2026-04-04T13:49:40.24Z</time></trkpt><trkpt lat="42.0560182" lon="11.8388762"><ele>130.0</ele><time>2026-04-04T13:49:42.23Z</time></trkpt><trkpt lat="42.0561009" lon="11.8388613"><ele>131.5</ele><time>2026-04-04T13:49:44.234Z</time></trkpt><trkpt lat="42.0561822" lon="11.8388206"><ele>133.0</ele><time>2026-04-04T13:49:46.232Z</time></trkpt><trkpt lat="42.056254" lon="11.8387658"><ele>134.5</ele><time>2026-04-04T13:49:48.24Z</time></trkpt><trkpt lat="42.0563187" lon="11.838713"><ele>136.0</ele><time>2026-04-04T13:49:50.233Z</time></trkpt><trkpt lat="42.0563865" lon="11.8386799"><ele>137.5</ele><time>2026-04-04T13:49:52.233Z</time></trkpt><trkpt lat="42.056462" lon="11.8387355"><ele>139.0</ele><time>2026-04-04T13:49:54.228Z</time></trkpt><trkpt lat="42.0565213" lon="11.8388632"><ele>139.0</ele><time>2026-04-04T13:49:56.234Z</time></trkpt><trkpt lat="42.05654" lon="11.8389499"><ele>139.0</ele><time>2026-04-04T13:49:57.236Z</time></trkpt><trkpt lat="42.0565833" lon="11.8390873"><ele>139.0</ele><time>2026-04-04T13:49:59.24Z</time></trkpt><trkpt lat="42.0566198" lon="11.8391628"><ele>139.0</ele><time>2026-04-04T13:50:00.235Z</time></trkpt><trkpt lat="42.0567183" lon="11.8392467"><ele>139.0</ele><time>2026-04-04T13:50:02.237Z</time></trkpt><trkpt lat="42.056786" lon="11.8392851"><ele>139.0</ele><time>2026-04-04T13:50:03.231Z</time></trkpt><trkpt lat="42.0568589" lon="11.8393247"><ele>139.33333333333334</ele><time>2026-04-04T13:50:04.246Z</time></trkpt><trkpt lat="42.0569348" lon="11.8393698"><ele>139.66666666666669</ele><time>2026-04-04T13:50:05.236Z</time></trkpt><trkpt lat="42.0570122" lon="11.8394172"><ele>140.0</ele><time>2026-04-04T13:50:06.234Z</time></trkpt><trkpt lat="42.0570802" lon="11.8394572"><ele>140.33333333333334</ele><time>2026-04-04T13:50:07.231Z</time></trkpt><trkpt lat="42.0571517" lon="11.8395103"><ele>140.66666666666666</ele><time>2026-04-04T13:50:08.226Z</time></trkpt><trkpt lat="42.0572236" lon="11.8395632"><ele>141.0</ele><time>2026-04-04T13:50:09.232Z</time></trkpt><trkpt lat="42.0572924" lon="11.8396258"><ele>141.0</ele><time>2026-04-04T13:50:10.232Z</time></trkpt><trkpt lat="42.0573608" lon="11.839696"><ele>141.0</ele><time>2026-04-04T13:50:11.237Z</time></trkpt><trkpt lat="42.057429" lon="11.8397705"><ele>141.0</ele><time>2026-04-04T13:50:12.232Z</time></trkpt><trkpt lat="42.0574986" lon="11.8398455"><ele>141.0</ele><time>2026-04-04T13:50:13.236Z</time></trkpt><trkpt lat="42.0575739" lon="11.8399253"><ele>141.0</ele><time>2026-04-04T13:50:14.234Z</time></trkpt><trkpt lat="42.0576498" lon="11.8400039"><ele>141.16666666666666</ele><time>2026-04-04T13:50:15.234Z</time></trkpt><trkpt lat="42.0577193" lon="11.8400754"><ele>141.33333333333334</ele><time>2026-04-04T13:50:16.229Z</time></trkpt><trkpt lat="42.0577816" lon="11.8401317"><ele>141.5</ele><time>2026-04-04T13:50:17.231Z</time></trkpt><trkpt lat="42.057843" lon="11.8401924"><ele>141.66666666666669</ele><time>2026-04-04T13:50:18.232Z</time></trkpt><trkpt lat="42.0579081" lon="11.8402572"><ele>141.83333333333334</ele><time>2026-04-04T13:50:19.241Z</time></trkpt><trkpt lat="42.0579773" lon="11.8403225"><ele>142.0</ele><time>2026-04-04T13:50:20.229Z</time></trkpt><trkpt lat="42.0580449" lon="11.840391"><ele>142.0</ele><time>2026-04-04T13:50:21.225Z</time></trkpt><trkpt lat="42.058105" lon="11.84045"><ele>142.0</ele><time>2026-04-04T13:50:22.233Z</time></trkpt><trkpt lat="42.0581589" lon="11.8404964"><ele>142.0</ele><time>2026-04-04T13:50:23.232Z</time></trkpt><trkpt lat="42.0582194" lon="11.8405306"><ele>142.0</ele><time>2026-04-04T13:50:24.238Z</time></trkpt><trkpt lat="42.0582863" lon="11.8405473"><ele>142.0</ele><time>2026-04-04T13:50:25.236Z</time></trkpt><trkpt lat="42.0583535" lon="11.8405518"><ele>142.0</ele><time>2026-04-04T13:50:26.237Z</time></trkpt><trkpt lat="42.0584646" lon="11.840545"><ele>143.4</ele><time>2026-04-04T13:50:28.23Z</time></trkpt><trkpt lat="42.0585615" lon="11.8405355"><ele>144.79999999999998</ele><time>2026-04-04T13:50:30.238Z</time></trkpt><trkpt lat="42.0586674" lon="11.8405189"><ele>146.2</ele><time>2026-04-04T13:50:32.229Z</time></trkpt><trkpt lat="42.0587832" lon="11.8405052"><ele>147.6</ele><time>2026-04-04T13:50:34.239Z</time></trkpt><trkpt lat="42.0588526" lon="11.8405077"><ele>149.0</ele><time>2026-04-04T13:50:35.229Z</time></trkpt><trkpt lat="42.0589199" lon="11.8405215"><ele>149.0</ele><time>2026-04-04T13:50:36.237Z</time></trkpt><trkpt lat="42.0589795" lon="11.8405575"><ele>149.0</ele><time>2026-04-04T13:50:37.232Z</time></trkpt><trkpt lat="42.0590427" lon="11.8406103"><ele>149.0</ele><time>2026-04-04T13:50:38.234Z</time></trkpt><trkpt lat="42.0591054" lon="11.8406553"><ele>149.0</ele><time>2026-04-04T13:50:39.231Z</time></trkpt><trkpt lat="42.0591636" lon="11.8406943"><ele>149.0</ele><time>2026-04-04T13:50:40.24Z</time></trkpt><trkpt lat="42.0592238" lon="11.8407455"><ele>149.0</ele><time>2026-04-04T13:50:41.232Z</time></trkpt><trkpt lat="42.0592758" lon="11.8408092"><ele>149.0</ele><time>2026-04-04T13:50:42.23Z</time></trkpt><trkpt lat="42.0593186" lon="11.8408764"><ele>149.66666666666666</ele><time>2026-04-04T13:50:43.237Z</time></trkpt><trkpt lat="42.0593659" lon="11.840949"><ele>150.33333333333331</ele><time>2026-04-04T13:50:44.23Z</time></trkpt><trkpt lat="42.0594184" lon="11.84102"><ele>151.0</ele><time>2026-04-04T13:50:45.23Z</time></trkpt><trkpt lat="42.0594737" lon="11.8410988"><ele>151.66666666666666</ele><time>2026-04-04T13:50:46.232Z</time></trkpt><trkpt lat="42.0595218" lon="11.8411824"><ele>152.33333333333334</ele><time>2026-04-04T13:50:47.228Z</time></trkpt><trkpt lat="42.0595726" lon="11.8412697"><ele>153.0</ele><time>2026-04-04T13:50:48.229Z</time></trkpt><trkpt lat="42.0596159" lon="11.8413435"><ele>153.28571428571428</ele><time>2026-04-04T13:50:49.228Z</time></trkpt><trkpt lat="42.0596421" lon="11.8414261"><ele>153.57142857142858</ele><time>2026-04-04T13:50:50.236Z</time></trkpt><trkpt lat="42.0596658" lon="11.8415148"><ele>153.85714285714286</ele><time>2026-04-04T13:50:51.234Z</time></trkpt><trkpt lat="42.0596815" lon="11.8416028"><ele>154.14285714285714</ele><time>2026-04-04T13:50:52.229Z</time></trkpt><trkpt lat="42.0597026" lon="11.8416922"><ele>154.42857142857142</ele><time>2026-04-04T13:50:53.23Z</time></trkpt><trkpt lat="42.0597181" lon="11.8417836"><ele>154.71428571428572</ele><time>2026-04-04T13:50:54.231Z</time></trkpt><trkpt lat="42.0597422" lon="11.8418772"><ele>155.0</ele><time>2026-04-04T13:50:55.233Z</time></trkpt><trkpt lat="42.0597693" lon="11.8419814"><ele>155.16666666666666</ele><time>2026-04-04T13:50:56.232Z</time></trkpt><trkpt lat="42.0597935" lon="11.8420862"><ele>155.33333333333331</ele><time>2026-04-04T13:50:57.236Z</time></trkpt><trkpt lat="42.0598168" lon="11.8421833"><ele>155.5</ele><time>2026-04-04T13:50:58.234Z</time></trkpt><trkpt lat="42.0598328" lon="11.8422809"><ele>155.66666666666666</ele><time>2026-04-04T13:50:59.23Z</time></trkpt><trkpt lat="42.0598483" lon="11.8423835"><ele>155.83333333333334</ele><time>2026-04-04T13:51:00.228Z</time></trkpt><trkpt lat="42.0598675" lon="11.8424784"><ele>156.0</ele><time>2026-04-04T13:51:01.236Z</time></trkpt><trkpt lat="42.0598847" lon="11.8425679"><ele>156.5</ele><time>2026-04-04T13:51:02.229Z</time></trkpt><trkpt lat="42.059924" lon="11.8427233"><ele>157.0</ele><time>2026-04-04T13:51:04.231Z</time></trkpt><trkpt lat="42.0599475" lon="11.8428103"><ele>157.5</ele><time>2026-04-04T13:51:05.228Z</time></trkpt><trkpt lat="42.0599678" lon="11.8428984"><ele>158.0</ele><time>2026-04-04T13:51:06.235Z</time></trkpt><trkpt lat="42.0599894" lon="11.8430003"><ele>158.5</ele><time>2026-04-04T13:51:07.249Z</time></trkpt><trkpt lat="42.0600101" lon="11.8431153"><ele>159.0</ele><time>2026-04-04T13:51:08.231Z</time></trkpt><trkpt lat="42.0600338" lon="11.8432369"><ele>160.0</ele><time>2026-04-04T13:51:09.232Z</time></trkpt><trkpt lat="42.060057" lon="11.8433382"><ele>161.0</ele><time>2026-04-04T13:51:10.227Z</time></trkpt><trkpt lat="42.0600769" lon="11.8434256"><ele>162.0</ele><time>2026-04-04T13:51:11.228Z</time></trkpt><trkpt lat="42.060131" lon="11.8435678"><ele>163.0</ele><time>2026-04-04T13:51:13.23Z</time></trkpt><trkpt lat="42.0602045" lon="11.8436604"><ele>164.0</ele><time>2026-04-04T13:51:15.24Z</time></trkpt><trkpt lat="42.0602808" lon="11.8437377"><ele>164.5</ele><time>2026-04-04T13:51:17.231Z</time></trkpt><trkpt lat="42.0603531" lon="11.8438408"><ele>165.0</ele><time>2026-04-04T13:51:19.229Z</time></trkpt><trkpt lat="42.0603829" lon="11.8439165"><ele>165.5</ele><time>2026-04-04T13:51:20.231Z</time></trkpt><trkpt lat="42.0604118" lon="11.8440007"><ele>166.0</ele><time>2026-04-04T13:51:21.233Z</time></trkpt><trkpt lat="42.0604361" lon="11.8440923"><ele>166.5</ele><time>2026-04-04T13:51:22.237Z</time></trkpt><trkpt lat="42.0604605" lon="11.8441885"><ele>167.0</ele><time>2026-04-04T13:51:23.231Z</time></trkpt><trkpt lat="42.0604835" lon="11.8442832"><ele>167.33333333333331</ele><time>2026-04-04T13:51:24.227Z</time></trkpt><trkpt lat="42.060513" lon="11.8443845"><ele>167.66666666666666</ele><time>2026-04-04T13:51:25.23Z</time></trkpt><trkpt lat="42.0605456" lon="11.8444899"><ele>168.0</ele><time>2026-04-04T13:51:26.233Z</time></trkpt><trkpt lat="42.0605845" lon="11.8445928"><ele>168.33333333333334</ele><time>2026-04-04T13:51:27.225Z</time></trkpt><trkpt lat="42.0606147" lon="11.8446764"><ele>168.66666666666669</ele><time>2026-04-04T13:51:28.24Z</time></trkpt><trkpt lat="42.0606407" lon="11.8447608"><ele>169.0</ele><time>2026-04-04T13:51:29.229Z</time></trkpt><trkpt lat="42.0606706" lon="11.8448477"><ele>169.0</ele><time>2026-04-04T13:51:30.23Z</time></trkpt><trkpt lat="42.0607" lon="11.8449357"><ele>169.0</ele><time>2026-04-04T13:51:31.234Z</time></trkpt><trkpt lat="42.0607263" lon="11.8450239"><ele>169.0</ele><time>2026-04-04T13:51:32.263Z</time></trkpt><trkpt lat="42.0607489" lon="11.8451095"><ele>169.0</ele><time>2026-04-04T13:51:33.239Z</time></trkpt><trkpt lat="42.0607722" lon="11.8451928"><ele>169.0</ele><time>2026-04-04T13:51:34.237Z</time></trkpt><trkpt lat="42.060796" lon="11.8452744"><ele>169.0</ele><time>2026-04-04T13:51:35.231Z</time></trkpt><trkpt lat="42.0608049" lon="11.8453619"><ele>169.0</ele><time>2026-04-04T13:51:36.228Z</time></trkpt><trkpt lat="42.0608159" lon="11.8454484"><ele>170.0</ele><time>2026-04-04T13:51:37.237Z</time></trkpt><trkpt lat="42.0608247" lon="11.8455439"><ele>171.0</ele><time>2026-04-04T13:51:38.248Z</time></trkpt><trkpt lat="42.0608342" lon="11.8456325"><ele>172.0</ele><time>2026-04-04T13:51:39.231Z</time></trkpt><trkpt lat="42.0608476" lon="11.8457185"><ele>173.0</ele><time>2026-04-04T13:51:40.231Z</time></trkpt><trkpt lat="42.060865" lon="11.8458091"><ele>174.0</ele><time>2026-04-04T13:51:41.229Z</time></trkpt><trkpt lat="42.0608912" lon="11.8458969"><ele>175.0</ele><time>2026-04-04T13:51:42.237Z</time></trkpt><trkpt lat="42.0609156" lon="11.8459833"><ele>176.0</ele><time>2026-04-04T13:51:43.239Z</time></trkpt><trkpt lat="42.0609385" lon="11.8460728"><ele>176.28571428571428</ele><time>2026-04-04T13:51:44.233Z</time></trkpt><trkpt lat="42.0609612" lon="11.8461732"><ele>176.57142857142856</ele><time>2026-04-04T13:51:45.232Z</time></trkpt><trkpt lat="42.0609831" lon="11.8462717"><ele>176.85714285714283</ele><time>2026-04-04T13:51:46.237Z</time></trkpt><trkpt lat="42.0609972" lon="11.8463607"><ele>177.14285714285714</ele><time>2026-04-04T13:51:47.234Z</time></trkpt><trkpt lat="42.0610136" lon="11.8464533"><ele>177.42857142857142</ele><time>2026-04-04T13:51:48.231Z</time></trkpt><trkpt lat="42.0610225" lon="11.8465521"><ele>177.7142857142857</ele><time>2026-04-04T13:51:49.236Z</time></trkpt><trkpt lat="42.0610337" lon="11.8466498"><ele>178.0</ele><time>2026-04-04T13:51:50.236Z</time></trkpt><trkpt lat="42.0610499" lon="11.8467472"><ele>178.0</ele><time>2026-04-04T13:51:51.229Z</time></trkpt><trkpt lat="42.061063" lon="11.8468496"><ele>178.0</ele><time>2026-04-04T13:51:52.235Z</time></trkpt><trkpt lat="42.0610665" lon="11.8469468"><ele>178.0</ele><time>2026-04-04T13:51:53.228Z</time></trkpt><trkpt lat="42.06107" lon="11.8470337"><ele>178.0</ele><time>2026-04-04T13:51:54.237Z</time></trkpt><trkpt lat="42.0610799" lon="11.8471204"><ele>178.0</ele><time>2026-04-04T13:51:55.236Z</time></trkpt><trkpt lat="42.0610968" lon="11.847291"><ele>178.0</ele><time>2026-04-04T13:51:57.23Z</time></trkpt><trkpt lat="42.0611236" lon="11.8474545"><ele>178.0</ele><time>2026-04-04T13:51:59.228Z</time></trkpt><trkpt lat="42.0611382" lon="11.8475429"><ele>178.0</ele><time>2026-04-04T13:52:00.236Z</time></trkpt><trkpt lat="42.0611532" lon="11.8476401"><ele>178.0</ele><time>2026-04-04T13:52:01.234Z</time></trkpt><trkpt lat="42.0611696" lon="11.84774"><ele>178.0</ele><time>2026-04-04T13:52:02.241Z</time></trkpt><trkpt lat="42.0611774" lon="11.8478334"><ele>178.0</ele><time>2026-04-04T13:52:03.227Z</time></trkpt><trkpt lat="42.0611773" lon="11.8479205"><ele>178.0</ele><time>2026-04-04T13:52:04.233Z</time></trkpt><trkpt lat="42.0611907" lon="11.8480812"><ele>178.16666666666669</ele><time>2026-04-04T13:52:06.238Z</time></trkpt><trkpt lat="42.0611992" lon="11.8482101"><ele>178.33333333333334</ele><time>2026-04-04T13:52:08.231Z</time></trkpt><trkpt lat="42.0611985" lon="11.8483296"><ele>178.5</ele><time>2026-04-04T13:52:10.23Z</time></trkpt><trkpt lat="42.0612174" lon="11.8484255"><ele>178.66666666666666</ele><time>2026-04-04T13:52:12.229Z</time></trkpt><trkpt lat="42.0612551" lon="11.8485148"><ele>178.83333333333331</ele><time>2026-04-04T13:52:14.234Z</time></trkpt><trkpt lat="42.0612893" lon="11.8486131"><ele>179.0</ele><time>2026-04-04T13:52:16.23Z</time></trkpt><trkpt lat="42.0613102" lon="11.8487201"><ele>178.5</ele><time>2026-04-04T13:52:18.233Z</time></trkpt><trkpt lat="42.0613117" lon="11.8488256"><ele>178.0</ele><time>2026-04-04T13:52:20.233Z</time></trkpt><trkpt lat="42.0613168" lon="11.8489354"><ele>177.5</ele><time>2026-04-04T13:52:22.243Z</time></trkpt><trkpt lat="42.0613292" lon="11.8490483"><ele>177.0</ele><time>2026-04-04T13:52:24.229Z</time></trkpt><trkpt lat="42.0613477" lon="11.8491562"><ele>176.5</ele><time>2026-04-04T13:52:26.233Z</time></trkpt><trkpt lat="42.0613628" lon="11.8492658"><ele>176.0</ele><time>2026-04-04T13:52:28.233Z</time></trkpt><trkpt lat="42.0613692" lon="11.8493789"><ele>175.0</ele><time>2026-04-04T13:52:30.227Z</time></trkpt><trkpt lat="42.0613825" lon="11.8494981"><ele>174.0</ele><time>2026-04-04T13:52:32.227Z</time></trkpt><trkpt lat="42.0613991" lon="11.8496115"><ele>173.0</ele><time>2026-04-04T13:52:34.23Z</time></trkpt><trkpt lat="42.0614187" lon="11.8497223"><ele>172.0</ele><time>2026-04-04T13:52:36.23Z</time></trkpt><trkpt lat="42.0614217" lon="11.8498363"><ele>171.0</ele><time>2026-04-04T13:52:38.229Z</time></trkpt><trkpt lat="42.0614131" lon="11.8499664"><ele>170.0</ele><time>2026-04-04T13:52:40.23Z</time></trkpt><trkpt lat="42.061404" lon="11.8501078"><ele>170.2</ele><time>2026-04-04T13:52:42.231Z</time></trkpt><trkpt lat="42.0614133" lon="11.8502484"><ele>170.4</ele><time>2026-04-04T13:52:44.24Z</time></trkpt><trkpt lat="42.0613926" lon="11.850393"><ele>170.60000000000002</ele><time>2026-04-04T13:52:46.242Z</time></trkpt><trkpt lat="42.0613503" lon="11.8505075"><ele>170.8</ele><time>2026-04-04T13:52:48.237Z</time></trkpt><trkpt lat="42.0612963" lon="11.8505738"><ele>171.0</ele><time>2026-04-04T13:52:50.228Z</time></trkpt><trkpt lat="42.0612386" lon="11.8506384"><ele>171.0</ele><time>2026-04-04T13:53:13.229Z</time></trkpt><trkpt lat="42.0611636" lon="11.8507229"><ele>171.0</ele><time>2026-04-04T13:53:16.232Z</time></trkpt><trkpt lat="42.0611066" lon="11.8508104"><ele>171.0</ele><time>2026-04-04T13:53:18.236Z</time></trkpt><trkpt lat="42.0610678" lon="11.8509212"><ele>171.0</ele><time>2026-04-04T13:53:20.235Z</time></trkpt><trkpt lat="42.061043" lon="11.8510004"><ele>171.0</ele><time>2026-04-04T13:53:21.234Z</time></trkpt><trkpt lat="42.0610191" lon="11.85108"><ele>171.0</ele><time>2026-04-04T13:53:22.233Z</time></trkpt><trkpt lat="42.0609905" lon="11.8511618"><ele>172.60000000000002</ele><time>2026-04-04T13:53:23.229Z</time></trkpt><trkpt lat="42.0609588" lon="11.8512461"><ele>174.2</ele><time>2026-04-04T13:53:24.227Z</time></trkpt><trkpt lat="42.0609062" lon="11.8513636"><ele>175.8</ele><time>2026-04-04T13:53:26.229Z</time></trkpt><trkpt lat="42.060838" lon="11.8514759"><ele>177.39999999999998</ele><time>2026-04-04T13:53:28.234Z</time></trkpt><trkpt lat="42.0607635" lon="11.8516087"><ele>179.0</ele><time>2026-04-04T13:53:30.232Z</time></trkpt><trkpt lat="42.0607345" lon="11.8517596"><ele>179.39999999999998</ele><time>2026-04-04T13:53:32.232Z</time></trkpt><trkpt lat="42.060709" lon="11.851845"><ele>179.8</ele><time>2026-04-04T13:53:33.227Z</time></trkpt><trkpt lat="42.0606797" lon="11.85194"><ele>180.2</ele><time>2026-04-04T13:53:34.233Z</time></trkpt><trkpt lat="42.0606683" lon="11.8520741"><ele>180.60000000000002</ele><time>2026-04-04T13:53:36.236Z</time></trkpt><trkpt lat="42.0607279" lon="11.8521845"><ele>181.0</ele><time>2026-04-04T13:53:38.229Z</time></trkpt><trkpt lat="42.0608255" lon="11.8522911"><ele>182.60000000000002</ele><time>2026-04-04T13:53:40.228Z</time></trkpt><trkpt lat="42.0608876" lon="11.8523385"><ele>184.2</ele><time>2026-04-04T13:53:41.227Z</time></trkpt><trkpt lat="42.0609813" lon="11.8524524"><ele>185.8</ele><time>2026-04-04T13:53:43.23Z</time></trkpt><trkpt lat="42.0610326" lon="11.8525193"><ele>187.39999999999998</ele><time>2026-04-04T13:53:44.228Z</time></trkpt><trkpt lat="42.0611368" lon="11.8525747"><ele>189.0</ele><time>2026-04-04T13:53:46.227Z</time></trkpt><trkpt lat="42.061207" lon="11.8526151"><ele>188.33333333333334</ele><time>2026-04-04T13:53:48.23Z</time></trkpt><trkpt lat="42.0612574" lon="11.852689"><ele>187.66666666666666</ele><time>2026-04-04T13:53:50.23Z</time></trkpt><trkpt lat="42.0612956" lon="11.8527744"><ele>187.0</ele><time>2026-04-04T13:53:52.252Z</time></trkpt><trkpt lat="42.061353" lon="11.8528413"><ele>186.33333333333331</ele><time>2026-04-04T13:53:54.227Z</time></trkpt><trkpt lat="42.0614266" lon="11.8528523"><ele>185.66666666666666</ele><time>2026-04-04T13:53:56.24Z</time></trkpt><trkpt lat="42.061503" lon="11.8528464"><ele>185.0</ele><time>2026-04-04T13:53:58.23Z</time></trkpt><trkpt lat="42.0615674" lon="11.8529013"><ele>185.66666666666666</ele><time>2026-04-04T13:54:00.232Z</time></trkpt><trkpt lat="42.0616193" lon="11.8529834"><ele>186.33333333333331</ele><time>2026-04-04T13:54:02.23Z</time></trkpt><trkpt lat="42.0616836" lon="11.8530519"><ele>187.0</ele><time>2026-04-04T13:54:04.236Z</time></trkpt><trkpt lat="42.0617597" lon="11.8530921"><ele>187.66666666666666</ele><time>2026-04-04T13:54:06.227Z</time></trkpt><trkpt lat="42.0618354" lon="11.853133"><ele>188.33333333333334</ele><time>2026-04-04T13:54:08.228Z</time></trkpt><trkpt lat="42.0619065" lon="11.8531864"><ele>189.0</ele><time>2026-04-04T13:54:10.228Z</time></trkpt><trkpt lat="42.0619783" lon="11.8532314"><ele>189.0</ele><time>2026-04-04T13:54:12.231Z</time></trkpt><trkpt lat="42.0620523" lon="11.8532828"><ele>189.0</ele><time>2026-04-04T13:54:14.236Z</time></trkpt><trkpt lat="42.0621255" lon="11.8533317"><ele>189.0</ele><time>2026-04-04T13:54:16.225Z</time></trkpt><trkpt lat="42.0621978" lon="11.8533628"><ele>189.0</ele><time>2026-04-04T13:54:18.233Z</time></trkpt><trkpt lat="42.0622639" lon="11.8534194"><ele>189.0</ele><time>2026-04-04T13:54:20.227Z</time></trkpt><trkpt lat="42.0623153" lon="11.8535053"><ele>189.0</ele><time>2026-04-04T13:54:22.229Z</time></trkpt><trkpt lat="42.0623983" lon="11.8535853"><ele>187.0</ele><time>2026-04-04T13:54:24.241Z</time></trkpt><trkpt lat="42.0624947" lon="11.8536696"><ele>185.0</ele><time>2026-04-04T13:54:26.228Z</time></trkpt><trkpt lat="42.0625819" lon="11.8537557"><ele>183.0</ele><time>2026-04-04T13:54:28.245Z</time></trkpt><trkpt lat="42.0626779" lon="11.8538368"><ele>181.0</ele><time>2026-04-04T13:54:30.231Z</time></trkpt><trkpt lat="42.0627747" lon="11.8539042"><ele>179.0</ele><time>2026-04-04T13:54:32.229Z</time></trkpt><trkpt lat="42.0628759" lon="11.853961"><ele>179.0</ele><time>2026-04-04T13:54:34.226Z</time></trkpt><trkpt lat="42.0629687" lon="11.8540173"><ele>179.0</ele><time>2026-04-04T13:54:36.236Z</time></trkpt><trkpt lat="42.0630566" lon="11.8541026"><ele>179.0</ele><time>2026-04-04T13:54:38.233Z</time></trkpt><trkpt lat="42.063099" lon="11.85417"><ele>179.0</ele><time>2026-04-04T13:54:39.232Z</time></trkpt><trkpt lat="42.0631416" lon="11.8542422"><ele>179.0</ele><time>2026-04-04T13:54:40.236Z</time></trkpt><trkpt lat="42.0631833" lon="11.8543091"><ele>179.0</ele><time>2026-04-04T13:54:41.233Z</time></trkpt><trkpt lat="42.0632217" lon="11.8543947"><ele>179.0</ele><time>2026-04-04T13:54:42.228Z</time></trkpt><trkpt lat="42.0632535" lon="11.8544749"><ele>179.0</ele><time>2026-04-04T13:54:43.23Z</time></trkpt><trkpt lat="42.0632886" lon="11.8546131"><ele>179.0</ele><time>2026-04-04T13:54:45.231Z</time></trkpt><trkpt lat="42.0632987" lon="11.8547716"><ele>179.0</ele><time>2026-04-04T13:54:47.226Z</time></trkpt><trkpt lat="42.0632885" lon="11.8548581"><ele>179.0</ele><time>2026-04-04T13:54:48.231Z</time></trkpt><trkpt lat="42.0632461" lon="11.8549945"><ele>178.79999999999998</ele><time>2026-04-04T13:54:50.232Z</time></trkpt><trkpt lat="42.0632111" lon="11.8551085"><ele>178.6</ele><time>2026-04-04T13:54:52.228Z</time></trkpt><trkpt lat="42.0631824" lon="11.8551992"><ele>178.4</ele><time>2026-04-04T13:54:54.231Z</time></trkpt><trkpt lat="42.0631442" lon="11.8553159"><ele>178.2</ele><time>2026-04-04T13:55:05.225Z</time></trkpt><trkpt lat="42.0631002" lon="11.8554139"><ele>178.0</ele><time>2026-04-04T13:55:07.23Z</time></trkpt><trkpt lat="42.0630475" lon="11.8555573"><ele>179.0</ele><time>2026-04-04T13:55:09.227Z</time></trkpt><trkpt lat="42.0630223" lon="11.8556421"><ele>180.0</ele><time>2026-04-04T13:55:10.236Z</time></trkpt><trkpt lat="42.0630049" lon="11.8557546"><ele>181.0</ele><time>2026-04-04T13:55:12.236Z</time></trkpt><trkpt lat="42.0629497" lon="11.8559512"><ele>182.0</ele><time>2026-04-04T13:55:14.23Z</time></trkpt><trkpt lat="42.0628902" lon="11.8560966"><ele>183.0</ele><time>2026-04-04T13:55:16.231Z</time></trkpt><trkpt lat="42.0628298" lon="11.856227"><ele>184.60000000000002</ele><time>2026-04-04T13:55:18.23Z</time></trkpt><trkpt lat="42.0627944" lon="11.8563547"><ele>186.20000000000002</ele><time>2026-04-04T13:55:20.235Z</time></trkpt><trkpt lat="42.0627481" lon="11.8564993"><ele>187.8</ele><time>2026-04-04T13:55:22.231Z</time></trkpt><trkpt lat="42.0627285" lon="11.8565835"><ele>189.4</ele><time>2026-04-04T13:55:23.234Z</time></trkpt><trkpt lat="42.0626855" lon="11.8567569"><ele>191.0</ele><time>2026-04-04T13:55:25.229Z</time></trkpt><trkpt lat="42.0626609" lon="11.8568479"><ele>192.20000000000002</ele><time>2026-04-04T13:55:26.236Z</time></trkpt><trkpt lat="42.0626166" lon="11.8570098"><ele>193.4</ele><time>2026-04-04T13:55:28.239Z</time></trkpt><trkpt lat="42.0625959" lon="11.8571022"><ele>194.6</ele><time>2026-04-04T13:55:29.232Z</time></trkpt><trkpt lat="42.0625867" lon="11.8572435"><ele>195.8</ele><time>2026-04-04T13:55:31.231Z</time></trkpt><trkpt lat="42.0625919" lon="11.8573361"><ele>197.0</ele><time>2026-04-04T13:55:33.227Z</time></trkpt><trkpt lat="42.0626573" lon="11.857429"><ele>197.00000000000003</ele><time>2026-04-04T13:55:39.231Z</time></trkpt><trkpt lat="42.0627201" lon="11.8574467"><ele>197.0</ele><time>2026-04-04T13:55:40.225Z</time></trkpt><trkpt lat="42.0627901" lon="11.8574622"><ele>197.0</ele><time>2026-04-04T13:55:41.234Z</time></trkpt><trkpt lat="42.0628758" lon="11.8574695"><ele>197.0</ele><time>2026-04-04T13:55:42.227Z</time></trkpt><trkpt lat="42.0629654" lon="11.8574824"><ele>197.00000000000003</ele><time>2026-04-04T13:55:43.232Z</time></trkpt><trkpt lat="42.0630652" lon="11.8574961"><ele>197.0</ele><time>2026-04-04T13:55:44.226Z</time></trkpt><trkpt lat="42.0631691" lon="11.8575115"><ele>197.0</ele><time>2026-04-04T13:55:45.234Z</time></trkpt><trkpt lat="42.0632707" lon="11.8575286"><ele>197.0</ele><time>2026-04-04T13:55:46.234Z</time></trkpt><trkpt lat="42.063378" lon="11.8575467"><ele>197.0</ele><time>2026-04-04T13:55:47.228Z</time></trkpt><trkpt lat="42.0634923" lon="11.8575752"><ele>197.0</ele><time>2026-04-04T13:55:48.235Z</time></trkpt><trkpt lat="42.0636102" lon="11.8576034"><ele>197.0</ele><time>2026-04-04T13:55:49.239Z</time></trkpt><trkpt lat="42.0637304" lon="11.8576384"><ele>197.25</ele><time>2026-04-04T13:55:50.229Z</time></trkpt><trkpt lat="42.0638525" lon="11.8576722"><ele>197.5</ele><time>2026-04-04T13:55:51.232Z</time></trkpt><trkpt lat="42.06397" lon="11.8577054"><ele>197.75</ele><time>2026-04-04T13:55:52.238Z</time></trkpt><trkpt lat="42.0640911" lon="11.8577357"><ele>198.0</ele><time>2026-04-04T13:55:53.226Z</time></trkpt><trkpt lat="42.0642065" lon="11.8577677"><ele>198.60000000000002</ele><time>2026-04-04T13:55:54.228Z</time></trkpt><trkpt lat="42.0643095" lon="11.8577945"><ele>199.20000000000002</ele><time>2026-04-04T13:55:55.232Z</time></trkpt><trkpt lat="42.0644132" lon="11.8578245"><ele>199.8</ele><time>2026-04-04T13:55:56.242Z</time></trkpt><trkpt lat="42.0645112" lon="11.8578567"><ele>200.4</ele><time>2026-04-04T13:55:57.234Z</time></trkpt><trkpt lat="42.0646072" lon="11.857892"><ele>201.0</ele><time>2026-04-04T13:55:58.237Z</time></trkpt><trkpt lat="42.0647032" lon="11.8579312"><ele>201.0</ele><time>2026-04-04T13:55:59.231Z</time></trkpt><trkpt lat="42.0648005" lon="11.8579927"><ele>201.0</ele><time>2026-04-04T13:56:00.231Z</time></trkpt><trkpt lat="42.0649027" lon="11.8580491"><ele>201.0</ele><time>2026-04-04T13:56:01.229Z</time></trkpt><trkpt lat="42.0650084" lon="11.8580969"><ele>201.0</ele><time>2026-04-04T13:56:02.248Z</time></trkpt><trkpt lat="42.0651133" lon="11.8581432"><ele>201.0</ele><time>2026-04-04T13:56:03.228Z</time></trkpt><trkpt lat="42.0652153" lon="11.8581891"><ele>202.20000000000002</ele><time>2026-04-04T13:56:04.229Z</time></trkpt><trkpt lat="42.0653186" lon="11.8582345"><ele>203.4</ele><time>2026-04-04T13:56:05.229Z</time></trkpt><trkpt lat="42.0654162" lon="11.8582705"><ele>204.6</ele><time>2026-04-04T13:56:06.235Z</time></trkpt><trkpt lat="42.0655229" lon="11.8583103"><ele>205.8</ele><time>2026-04-04T13:56:07.229Z</time></trkpt><trkpt lat="42.0656328" lon="11.8583534"><ele>207.0</ele><time>2026-04-04T13:56:08.228Z</time></trkpt><trkpt lat="42.0657492" lon="11.8583961"><ele>208.0</ele><time>2026-04-04T13:56:09.233Z</time></trkpt><trkpt lat="42.0658693" lon="11.8584458"><ele>209.0</ele><time>2026-04-04T13:56:10.225Z</time></trkpt><trkpt lat="42.0659835" lon="11.8584896"><ele>210.0</ele><time>2026-04-04T13:56:11.234Z</time></trkpt><trkpt lat="42.0661051" lon="11.8585285"><ele>211.0</ele><time>2026-04-04T13:56:12.228Z</time></trkpt><trkpt lat="42.066231" lon="11.8585735"><ele>209.8</ele><time>2026-04-04T13:56:13.228Z</time></trkpt><trkpt lat="42.0663473" lon="11.8586088"><ele>208.60000000000002</ele><time>2026-04-04T13:56:14.229Z</time></trkpt><trkpt lat="42.0664499" lon="11.8586429"><ele>207.4</ele><time>2026-04-04T13:56:15.23Z</time></trkpt><trkpt lat="42.0665315" lon="11.8586775"><ele>206.2</ele><time>2026-04-04T13:56:16.228Z</time></trkpt><trkpt lat="42.0666014" lon="11.858717"><ele>205.0</ele><time>2026-04-04T13:56:17.236Z</time></trkpt><trkpt lat="42.0666605" lon="11.8587748"><ele>205.0</ele><time>2026-04-04T13:56:18.227Z</time></trkpt><trkpt lat="42.0667092" lon="11.8588508"><ele>205.0</ele><time>2026-04-04T13:56:19.227Z</time></trkpt><trkpt lat="42.066758" lon="11.858948"><ele>205.0</ele><time>2026-04-04T13:56:20.233Z</time></trkpt><trkpt lat="42.0668119" lon="11.8590594"><ele>205.0</ele><time>2026-04-04T13:56:21.227Z</time></trkpt><trkpt lat="42.0668665" lon="11.859174"><ele>205.0</ele><time>2026-04-04T13:56:22.228Z</time></trkpt><trkpt lat="42.0669196" lon="11.8592795"><ele>204.6</ele><time>2026-04-04T13:56:23.228Z</time></trkpt><trkpt lat="42.0669746" lon="11.8593894"><ele>204.2</ele><time>2026-04-04T13:56:24.228Z</time></trkpt><trkpt lat="42.0670282" lon="11.8595092"><ele>203.8</ele><time>2026-04-04T13:56:25.228Z</time></trkpt><trkpt lat="42.0670734" lon="11.859644"><ele>203.4</ele><time>2026-04-04T13:56:26.246Z</time></trkpt><trkpt lat="42.0671089" lon="11.8597857"><ele>203.0</ele><time>2026-04-04T13:56:27.227Z</time></trkpt><trkpt lat="42.0671439" lon="11.8599289"><ele>203.0</ele><time>2026-04-04T13:56:28.226Z</time></trkpt><trkpt lat="42.0671748" lon="11.8600605"><ele>203.0</ele><time>2026-04-04T13:56:29.225Z</time></trkpt><trkpt lat="42.067204" lon="11.8601932"><ele>203.0</ele><time>2026-04-04T13:56:30.228Z</time></trkpt><trkpt lat="42.0672312" lon="11.8603344"><ele>203.0</ele><time>2026-04-04T13:56:31.228Z</time></trkpt><trkpt lat="42.0672581" lon="11.8604724"><ele>203.0</ele><time>2026-04-04T13:56:32.228Z</time></trkpt><trkpt lat="42.0672869" lon="11.860614"><ele>204.2</ele><time>2026-04-04T13:56:33.232Z</time></trkpt><trkpt lat="42.0673138" lon="11.8607484"><ele>205.4</ele><time>2026-04-04T13:56:34.23Z</time></trkpt><trkpt lat="42.0673463" lon="11.8608781"><ele>206.6</ele><time>2026-04-04T13:56:35.234Z</time></trkpt><trkpt lat="42.0673773" lon="11.8610079"><ele>207.79999999999998</ele><time>2026-04-04T13:56:36.236Z</time></trkpt><trkpt lat="42.0674067" lon="11.8611262"><ele>209.0</ele><time>2026-04-04T13:56:37.226Z</time></trkpt><trkpt lat="42.0674418" lon="11.8612409"><ele>208.39999999999998</ele><time>2026-04-04T13:56:38.23Z</time></trkpt><trkpt lat="42.06748" lon="11.8613568"><ele>207.8</ele><time>2026-04-04T13:56:39.232Z</time></trkpt><trkpt lat="42.0675281" lon="11.8614638"><ele>207.2</ele><time>2026-04-04T13:56:40.24Z</time></trkpt><trkpt lat="42.0675916" lon="11.8615669"><ele>206.60000000000002</ele><time>2026-04-04T13:56:41.227Z</time></trkpt><trkpt lat="42.0676673" lon="11.8616626"><ele>206.0</ele><time>2026-04-04T13:56:42.227Z</time></trkpt><trkpt lat="42.0677578" lon="11.8617531"><ele>207.20000000000002</ele><time>2026-04-04T13:56:43.232Z</time></trkpt><trkpt lat="42.0678492" lon="11.8618492"><ele>208.4</ele><time>2026-04-04T13:56:44.232Z</time></trkpt><trkpt lat="42.0679343" lon="11.8619545"><ele>209.6</ele><time>2026-04-04T13:56:45.23Z</time></trkpt><trkpt lat="42.0680057" lon="11.862054"><ele>210.8</ele><time>2026-04-04T13:56:46.225Z</time></trkpt><trkpt lat="42.0680582" lon="11.862156"><ele>212.0</ele><time>2026-04-04T13:56:47.236Z</time></trkpt><trkpt lat="42.0680997" lon="11.8622712"><ele>212.0</ele><time>2026-04-04T13:56:48.238Z</time></trkpt><trkpt lat="42.0681436" lon="11.8623935"><ele>212.0</ele><time>2026-04-04T13:56:49.23Z</time></trkpt><trkpt lat="42.0681782" lon="11.8625361"><ele>212.0</ele><time>2026-04-04T13:56:50.235Z</time></trkpt><trkpt lat="42.0682194" lon="11.8626853"><ele>212.0</ele><time>2026-04-04T13:56:51.233Z</time></trkpt><trkpt lat="42.0682626" lon="11.8628424"><ele>211.0</ele><time>2026-04-04T13:56:52.242Z</time></trkpt><trkpt lat="42.0683077" lon="11.8630097"><ele>210.0</ele><time>2026-04-04T13:56:53.232Z</time></trkpt><trkpt lat="42.0683522" lon="11.8631614"><ele>209.0</ele><time>2026-04-04T13:56:54.23Z</time></trkpt><trkpt lat="42.068393" lon="11.8632981"><ele>208.0</ele><time>2026-04-04T13:56:55.236Z</time></trkpt><trkpt lat="42.0684296" lon="11.8634228"><ele>206.99999999999997</ele><time>2026-04-04T13:56:56.226Z</time></trkpt><trkpt lat="42.068459" lon="11.8635282"><ele>206.0</ele><time>2026-04-04T13:56:57.228Z</time></trkpt><trkpt lat="42.0684816" lon="11.8636248"><ele>205.0</ele><time>2026-04-04T13:56:58.222Z</time></trkpt><trkpt lat="42.0685025" lon="11.8637112"><ele>204.0</ele><time>2026-04-04T13:56:59.231Z</time></trkpt><trkpt lat="42.0685394" lon="11.8638458"><ele>202.99999999999997</ele><time>2026-04-04T13:57:01.23Z</time></trkpt><trkpt lat="42.0685637" lon="11.8639486"><ele>202.0</ele><time>2026-04-04T13:57:03.225Z</time></trkpt><trkpt lat="42.0685854" lon="11.8640373"><ele>202.0</ele><time>2026-04-04T13:57:06.237Z</time></trkpt><trkpt lat="42.0686356" lon="11.8641112"><ele>202.0</ele><time>2026-04-04T13:57:35.226Z</time></trkpt><trkpt lat="42.0686727" lon="11.8641859"><ele>202.0</ele><time>2026-04-04T13:58:17.231Z</time></trkpt></trkseg><trkseg><trkpt lat="42.1251907" lon="11.8987145"><ele>468.0</ele><time>2026-04-04T14:23:51.224Z</time></trkpt><trkpt lat="42.1252541" lon="11.8987892"><ele>467.99999999999994</ele><time>2026-04-04T14:23:59.247Z</time></trkpt><trkpt lat="42.1253586" lon="11.8989148"><ele>467.99999999999994</ele><time>2026-04-04T14:24:01.225Z</time></trkpt><trkpt lat="42.1254151" lon="11.8989802"><ele>468.0</ele><time>2026-04-04T14:24:02.229Z</time></trkpt><trkpt lat="42.1254765" lon="11.8990512"><ele>468.0</ele><time>2026-04-04T14:24:03.221Z</time></trkpt><trkpt lat="42.1255442" lon="11.8991319"><ele>468.0</ele><time>2026-04-04T14:24:04.225Z</time></trkpt><trkpt lat="42.1256128" lon="11.8992126"><ele>468.0</ele><time>2026-04-04T14:24:05.231Z</time></trkpt><trkpt lat="42.1256737" lon="11.8992926"><ele>468.0</ele><time>2026-04-04T14:24:06.226Z</time></trkpt><trkpt lat="42.1257367" lon="11.8993734"><ele>468.0</ele><time>2026-04-04T14:24:07.226Z</time></trkpt><trkpt lat="42.125804" lon="11.8994589"><ele>468.0</ele><time>2026-04-04T14:24:08.229Z</time></trkpt><trkpt lat="42.1258638" lon="11.8995544"><ele>468.0</ele><time>2026-04-04T14:24:09.227Z</time></trkpt><trkpt lat="42.1259254" lon="11.8996479"><ele>471.2</ele><time>2026-04-04T14:24:10.233Z</time></trkpt><trkpt lat="42.1259888" lon="11.8997459"><ele>474.4</ele><time>2026-04-04T14:24:11.222Z</time></trkpt><trkpt lat="42.1260431" lon="11.8998555"><ele>477.59999999999997</ele><time>2026-04-04T14:24:12.229Z</time></trkpt><trkpt lat="42.1260942" lon="11.8999719"><ele>480.79999999999995</ele><time>2026-04-04T14:24:13.226Z</time></trkpt><trkpt lat="42.1261642" lon="11.9000879"><ele>484.0</ele><time>2026-04-04T14:24:14.222Z</time></trkpt><trkpt lat="42.1262389" lon="11.9002091"><ele>484.25</ele><time>2026-04-04T14:24:15.222Z</time></trkpt><trkpt lat="42.1263137" lon="11.900331"><ele>484.5</ele><time>2026-04-04T14:24:16.228Z</time></trkpt><trkpt lat="42.1263931" lon="11.9004513"><ele>484.75</ele><time>2026-04-04T14:24:17.23Z</time></trkpt><trkpt lat="42.1264752" lon="11.9005746"><ele>485.0</ele><time>2026-04-04T14:24:18.224Z</time></trkpt><trkpt lat="42.1265591" lon="11.9006973"><ele>486.0</ele><time>2026-04-04T14:24:19.225Z</time></trkpt><trkpt lat="42.1266408" lon="11.9008193"><ele>487.0</ele><time>2026-04-04T14:24:20.222Z</time></trkpt><trkpt lat="42.1267284" lon="11.900935"><ele>488.0</ele><time>2026-04-04T14:24:21.223Z</time></trkpt><trkpt lat="42.1268242" lon="11.9010464"><ele>489.0</ele><time>2026-04-04T14:24:22.224Z</time></trkpt><trkpt lat="42.1269253" lon="11.9011529"><ele>489.0</ele><time>2026-04-04T14:24:23.227Z</time></trkpt><trkpt lat="42.1270288" lon="11.9012583"><ele>489.0</ele><time>2026-04-04T14:24:24.225Z</time></trkpt><trkpt lat="42.1271349" lon="11.9013662"><ele>489.0</ele><time>2026-04-04T14:24:25.23Z</time></trkpt><trkpt lat="42.1272318" lon="11.9014609"><ele>489.0</ele><time>2026-04-04T14:24:26.225Z</time></trkpt><trkpt lat="42.127316" lon="11.9015669"><ele>489.0</ele><time>2026-04-04T14:24:27.226Z</time></trkpt><trkpt lat="42.1273914" lon="11.9016774"><ele>489.0</ele><time>2026-04-04T14:24:28.231Z</time></trkpt><trkpt lat="42.1274628" lon="11.90181"><ele>489.0</ele><time>2026-04-04T14:24:29.224Z</time></trkpt><trkpt lat="42.1275304" lon="11.9019514"><ele>489.0</ele><time>2026-04-04T14:24:30.227Z</time></trkpt><trkpt lat="42.1275962" lon="11.902097"><ele>489.25</ele><time>2026-04-04T14:24:31.231Z</time></trkpt><trkpt lat="42.1276606" lon="11.9022538"><ele>489.5</ele><time>2026-04-04T14:24:32.236Z</time></trkpt><trkpt lat="42.1277258" lon="11.9024106"><ele>489.75</ele><time>2026-04-04T14:24:33.221Z</time></trkpt><trkpt lat="42.1277816" lon="11.9025636"><ele>490.0</ele><time>2026-04-04T14:24:34.224Z</time></trkpt><trkpt lat="42.1278389" lon="11.9027215"><ele>490.0</ele><time>2026-04-04T14:24:35.237Z</time></trkpt><trkpt lat="42.1278961" lon="11.9028753"><ele>490.0</ele><time>2026-04-04T14:24:36.225Z</time></trkpt><trkpt lat="42.1279608" lon="11.9030244"><ele>490.0</ele><time>2026-04-04T14:24:37.226Z</time></trkpt><trkpt lat="42.1280321" lon="11.9031676"><ele>490.0</ele><time>2026-04-04T14:24:38.228Z</time></trkpt><trkpt lat="42.1281087" lon="11.9033095"><ele>490.2</ele><time>2026-04-04T14:24:39.228Z</time></trkpt><trkpt lat="42.1281787" lon="11.9034369"><ele>490.4</ele><time>2026-04-04T14:24:40.227Z</time></trkpt><trkpt lat="42.128254" lon="11.9035527"><ele>490.6</ele><time>2026-04-04T14:24:41.222Z</time></trkpt><trkpt lat="42.1283231" lon="11.9036359"><ele>490.8</ele><time>2026-04-04T14:24:42.225Z</time></trkpt><trkpt lat="42.1283954" lon="11.9037083"><ele>491.0</ele><time>2026-04-04T14:24:43.221Z</time></trkpt><trkpt lat="42.1284744" lon="11.9037764"><ele>491.0</ele><time>2026-04-04T14:24:44.226Z</time></trkpt><trkpt lat="42.1285621" lon="11.9038428"><ele>491.0</ele><time>2026-04-04T14:24:45.23Z</time></trkpt><trkpt lat="42.1286621" lon="11.9039064"><ele>491.0</ele><time>2026-04-04T14:24:46.223Z</time></trkpt><trkpt lat="42.128769" lon="11.9039649"><ele>491.0</ele><time>2026-04-04T14:24:47.226Z</time></trkpt><trkpt lat="42.1288707" lon="11.9040152"><ele>491.0</ele><time>2026-04-04T14:24:48.226Z</time></trkpt><trkpt lat="42.1289673" lon="11.9040665"><ele>490.4</ele><time>2026-04-04T14:24:49.225Z</time></trkpt><trkpt lat="42.1290595" lon="11.9041076"><ele>489.8</ele><time>2026-04-04T14:24:50.233Z</time></trkpt><trkpt lat="42.1291457" lon="11.9041456"><ele>489.19999999999993</ele><time>2026-04-04T14:24:51.222Z</time></trkpt><trkpt lat="42.129234" lon="11.9041749"><ele>488.59999999999997</ele><time>2026-04-04T14:24:52.228Z</time></trkpt><trkpt lat="42.1293242" lon="11.9042161"><ele>488.0</ele><time>2026-04-04T14:24:53.223Z</time></trkpt><trkpt lat="42.1293992" lon="11.9042709"><ele>487.2</ele><time>2026-04-04T14:24:54.228Z</time></trkpt><trkpt lat="42.1294641" lon="11.9043248"><ele>486.4</ele><time>2026-04-04T14:24:55.225Z</time></trkpt><trkpt lat="42.1295483" lon="11.904421"><ele>485.59999999999997</ele><time>2026-04-04T14:24:57.225Z</time></trkpt><trkpt lat="42.1296629" lon="11.9044802"><ele>484.79999999999995</ele><time>2026-04-04T14:24:59.229Z</time></trkpt><trkpt lat="42.1297395" lon="11.904487"><ele>484.0</ele><time>2026-04-04T14:25:00.231Z</time></trkpt><trkpt lat="42.1298039" lon="11.9044795"><ele>484.0</ele><time>2026-04-04T14:25:01.223Z</time></trkpt><trkpt lat="42.1298852" lon="11.9044443"><ele>484.0</ele><time>2026-04-04T14:25:02.225Z</time></trkpt><trkpt lat="42.1299854" lon="11.9043946"><ele>484.0</ele><time>2026-04-04T14:25:03.225Z</time></trkpt><trkpt lat="42.1300931" lon="11.9043463"><ele>484.0</ele><time>2026-04-04T14:25:04.23Z</time></trkpt><trkpt lat="42.1302" lon="11.9043047"><ele>484.0</ele><time>2026-04-04T14:25:05.229Z</time></trkpt><trkpt lat="42.1303246" lon="11.9042632"><ele>485.0</ele><time>2026-04-04T14:25:06.226Z</time></trkpt><trkpt lat="42.1304527" lon="11.9042175"><ele>486.0</ele><time>2026-04-04T14:25:07.224Z</time></trkpt><trkpt lat="42.1305868" lon="11.9041757"><ele>487.0</ele><time>2026-04-04T14:25:08.234Z</time></trkpt><trkpt lat="42.1307222" lon="11.9041345"><ele>488.0</ele><time>2026-04-04T14:25:09.227Z</time></trkpt><trkpt lat="42.1308402" lon="11.9040908"><ele>489.75</ele><time>2026-04-04T14:25:10.23Z</time></trkpt><trkpt lat="42.1309576" lon="11.9040488"><ele>491.5</ele><time>2026-04-04T14:25:11.229Z</time></trkpt><trkpt lat="42.1310717" lon="11.9039836"><ele>493.25</ele><time>2026-04-04T14:25:12.229Z</time></trkpt><trkpt lat="42.1311802" lon="11.9039255"><ele>495.0</ele><time>2026-04-04T14:25:13.226Z</time></trkpt><trkpt lat="42.1312747" lon="11.9038567"><ele>495.0</ele><time>2026-04-04T14:25:14.229Z</time></trkpt><trkpt lat="42.1313549" lon="11.9037758"><ele>495.0</ele><time>2026-04-04T14:25:15.224Z</time></trkpt><trkpt lat="42.1314173" lon="11.9036936"><ele>495.0</ele><time>2026-04-04T14:25:16.223Z</time></trkpt><trkpt lat="42.131467" lon="11.9036091"><ele>495.0</ele><time>2026-04-04T14:25:17.223Z</time></trkpt><trkpt lat="42.1315199" lon="11.9035246"><ele>495.0</ele><time>2026-04-04T14:25:18.227Z</time></trkpt><trkpt lat="42.1315683" lon="11.9034438"><ele>495.0</ele><time>2026-04-04T14:25:19.229Z</time></trkpt><trkpt lat="42.1316284" lon="11.9033776"><ele>494.8333333333333</ele><time>2026-04-04T14:25:20.224Z</time></trkpt><trkpt lat="42.1317013" lon="11.9033356"><ele>494.66666666666663</ele><time>2026-04-04T14:25:21.225Z</time></trkpt><trkpt lat="42.1317721" lon="11.9032984"><ele>494.5</ele><time>2026-04-04T14:25:22.24Z</time></trkpt><trkpt lat="42.1318487" lon="11.9032785"><ele>494.3333333333333</ele><time>2026-04-04T14:25:23.232Z</time></trkpt><trkpt lat="42.1319171" lon="11.9032748"><ele>494.16666666666663</ele><time>2026-04-04T14:25:24.225Z</time></trkpt><trkpt lat="42.1319938" lon="11.9032813"><ele>494.0</ele><time>2026-04-04T14:25:25.233Z</time></trkpt><trkpt lat="42.1320685" lon="11.9032824"><ele>493.99999999999994</ele><time>2026-04-04T14:25:26.224Z</time></trkpt><trkpt lat="42.1321443" lon="11.9032833"><ele>494.0</ele><time>2026-04-04T14:25:27.225Z</time></trkpt><trkpt lat="42.1322203" lon="11.903279"><ele>494.0</ele><time>2026-04-04T14:25:28.226Z</time></trkpt><trkpt lat="42.1322987" lon="11.9032777"><ele>494.0</ele><time>2026-04-04T14:25:29.224Z</time></trkpt><trkpt lat="42.1323762" lon="11.9032797"><ele>493.99999999999994</ele><time>2026-04-04T14:25:30.235Z</time></trkpt><trkpt lat="42.1324533" lon="11.9032787"><ele>494.0</ele><time>2026-04-04T14:25:31.223Z</time></trkpt><trkpt lat="42.1325279" lon="11.9032818"><ele>493.57142857142856</ele><time>2026-04-04T14:25:32.226Z</time></trkpt><trkpt lat="42.1326008" lon="11.9032843"><ele>493.1428571428571</ele><time>2026-04-04T14:25:33.225Z</time></trkpt><trkpt lat="42.1326698" lon="11.9032944"><ele>492.71428571428567</ele><time>2026-04-04T14:25:34.225Z</time></trkpt><trkpt lat="42.1327479" lon="11.9033062"><ele>492.2857142857143</ele><time>2026-04-04T14:25:35.227Z</time></trkpt><trkpt lat="42.1328182" lon="11.9033235"><ele>491.8571428571428</ele><time>2026-04-04T14:25:36.222Z</time></trkpt><trkpt lat="42.1328911" lon="11.9033377"><ele>491.4285714285714</ele><time>2026-04-04T14:25:37.23Z</time></trkpt><trkpt lat="42.1329643" lon="11.9033434"><ele>491.0</ele><time>2026-04-04T14:25:38.231Z</time></trkpt><trkpt lat="42.1330373" lon="11.903333"><ele>490.99999999999994</ele><time>2026-04-04T14:25:39.223Z</time></trkpt><trkpt lat="42.1331068" lon="11.9033136"><ele>491.0</ele><time>2026-04-04T14:25:40.23Z</time></trkpt><trkpt lat="42.1331833" lon="11.9032778"><ele>491.0</ele><time>2026-04-04T14:25:41.225Z</time></trkpt><trkpt lat="42.1332707" lon="11.9032297"><ele>491.0</ele><time>2026-04-04T14:25:42.232Z</time></trkpt><trkpt lat="42.1333579" lon="11.9031662"><ele>490.99999999999994</ele><time>2026-04-04T14:25:43.225Z</time></trkpt><trkpt lat="42.1334458" lon="11.9030956"><ele>491.0</ele><time>2026-04-04T14:25:44.233Z</time></trkpt><trkpt lat="42.1335302" lon="11.9030319"><ele>489.49999999999994</ele><time>2026-04-04T14:25:45.236Z</time></trkpt><trkpt lat="42.1336096" lon="11.9029724"><ele>488.0</ele><time>2026-04-04T14:25:46.238Z</time></trkpt><trkpt lat="42.1336853" lon="11.9029152"><ele>486.5</ele><time>2026-04-04T14:25:47.224Z</time></trkpt><trkpt lat="42.1337618" lon="11.9028578"><ele>485.0</ele><time>2026-04-04T14:25:48.225Z</time></trkpt><trkpt lat="42.1338451" lon="11.9028077"><ele>483.49999999999994</ele><time>2026-04-04T14:25:49.223Z</time></trkpt><trkpt lat="42.1339333" lon="11.9027676"><ele>482.0</ele><time>2026-04-04T14:25:50.227Z</time></trkpt><trkpt lat="42.134023" lon="11.9027445"><ele>480.8</ele><time>2026-04-04T14:25:51.241Z</time></trkpt><trkpt lat="42.1341146" lon="11.9027699"><ele>479.6</ele><time>2026-04-04T14:25:52.228Z</time></trkpt><trkpt lat="42.1342026" lon="11.9028262"><ele>478.40000000000003</ele><time>2026-04-04T14:25:53.237Z</time></trkpt><trkpt lat="42.1342832" lon="11.9028974"><ele>477.20000000000005</ele><time>2026-04-04T14:25:54.231Z</time></trkpt><trkpt lat="42.1343674" lon="11.9029781"><ele>476.0</ele><time>2026-04-04T14:25:55.224Z</time></trkpt><trkpt lat="42.1344592" lon="11.9030595"><ele>476.0</ele><time>2026-04-04T14:25:56.223Z</time></trkpt><trkpt lat="42.1345504" lon="11.9031345"><ele>476.0</ele><time>2026-04-04T14:25:57.224Z</time></trkpt><trkpt lat="42.1346519" lon="11.9031957"><ele>476.0</ele><time>2026-04-04T14:25:58.225Z</time></trkpt><trkpt lat="42.1347582" lon="11.9032424"><ele>476.0</ele><time>2026-04-04T14:25:59.226Z</time></trkpt><trkpt lat="42.1348567" lon="11.9032781"><ele>476.0</ele><time>2026-04-04T14:26:00.223Z</time></trkpt><trkpt lat="42.134952" lon="11.903302"><ele>476.99999999999994</ele><time>2026-04-04T14:26:01.222Z</time></trkpt><trkpt lat="42.1350346" lon="11.9033342"><ele>478.0</ele><time>2026-04-04T14:26:02.23Z</time></trkpt><trkpt lat="42.1351067" lon="11.9033681"><ele>479.0</ele><time>2026-04-04T14:26:03.226Z</time></trkpt><trkpt lat="42.1351854" lon="11.9034132"><ele>480.0</ele><time>2026-04-04T14:26:04.234Z</time></trkpt><trkpt lat="42.1352593" lon="11.9034641"><ele>480.99999999999994</ele><time>2026-04-04T14:26:05.227Z</time></trkpt><trkpt lat="42.1353347" lon="11.9035094"><ele>482.0</ele><time>2026-04-04T14:26:06.232Z</time></trkpt><trkpt lat="42.135404" lon="11.9035507"><ele>480.66666666666663</ele><time>2026-04-04T14:26:07.227Z</time></trkpt><trkpt lat="42.1354794" lon="11.9035761"><ele>479.3333333333333</ele><time>2026-04-04T14:26:08.224Z</time></trkpt><trkpt lat="42.1355525" lon="11.9035808"><ele>478.0</ele><time>2026-04-04T14:26:09.226Z</time></trkpt><trkpt lat="42.1356252" lon="11.9035507"><ele>476.66666666666663</ele><time>2026-04-04T14:26:10.224Z</time></trkpt><trkpt lat="42.1356911" lon="11.9035004"><ele>475.3333333333333</ele><time>2026-04-04T14:26:11.221Z</time></trkpt><trkpt lat="42.1357514" lon="11.9034556"><ele>474.0</ele><time>2026-04-04T14:26:12.225Z</time></trkpt><trkpt lat="42.1358079" lon="11.9033754"><ele>474.0</ele><time>2026-04-04T14:26:13.224Z</time></trkpt><trkpt lat="42.1358534" lon="11.9032893"><ele>474.0</ele><time>2026-04-04T14:26:14.224Z</time></trkpt><trkpt lat="42.1358721" lon="11.90316"><ele>474.0</ele><time>2026-04-04T14:26:15.223Z</time></trkpt><trkpt lat="42.1359139" lon="11.9030403"><ele>474.0</ele><time>2026-04-04T14:26:16.229Z</time></trkpt><trkpt lat="42.1359495" lon="11.9029226"><ele>474.0</ele><time>2026-04-04T14:26:17.225Z</time></trkpt><trkpt lat="42.1359829" lon="11.9028131"><ele>474.0</ele><time>2026-04-04T14:26:18.223Z</time></trkpt><trkpt lat="42.1360302" lon="11.9027087"><ele>474.0</ele><time>2026-04-04T14:26:19.235Z</time></trkpt><trkpt lat="42.1360714" lon="11.9026118"><ele>474.0</ele><time>2026-04-04T14:26:20.23Z</time></trkpt><trkpt lat="42.1361343" lon="11.9025099"><ele>474.0</ele><time>2026-04-04T14:26:21.23Z</time></trkpt><trkpt lat="42.13621" lon="11.9024376"><ele>474.0</ele><time>2026-04-04T14:26:22.235Z</time></trkpt><trkpt lat="42.1362873" lon="11.9023833"><ele>472.2</ele><time>2026-04-04T14:26:23.226Z</time></trkpt><trkpt lat="42.136379" lon="11.9023473"><ele>470.4</ele><time>2026-04-04T14:26:24.22Z</time></trkpt><trkpt lat="42.1364664" lon="11.9023016"><ele>468.6</ele><time>2026-04-04T14:26:25.224Z</time></trkpt><trkpt lat="42.1365641" lon="11.9022575"><ele>466.8</ele><time>2026-04-04T14:26:26.223Z</time></trkpt><trkpt lat="42.1366493" lon="11.9022236"><ele>465.0</ele><time>2026-04-04T14:26:27.232Z</time></trkpt><trkpt lat="42.1367393" lon="11.9022004"><ele>465.0</ele><time>2026-04-04T14:26:28.227Z</time></trkpt><trkpt lat="42.1368179" lon="11.9022009"><ele>465.0</ele><time>2026-04-04T14:26:29.229Z</time></trkpt><trkpt lat="42.1368875" lon="11.9022188"><ele>465.0</ele><time>2026-04-04T14:26:30.227Z</time></trkpt><trkpt lat="42.1369517" lon="11.9022343"><ele>465.0</ele><time>2026-04-04T14:26:31.224Z</time></trkpt><trkpt lat="42.1370562" lon="11.9022303"><ele>465.0</ele><time>2026-04-04T14:26:33.227Z</time></trkpt><trkpt lat="42.1371409" lon="11.9021754"><ele>465.0</ele><time>2026-04-04T14:26:35.228Z</time></trkpt><trkpt lat="42.1372089" lon="11.9021083"><ele>465.0</ele><time>2026-04-04T14:26:37.228Z</time></trkpt><trkpt lat="42.1372994" lon="11.902041"><ele>465.0</ele><time>2026-04-04T14:26:39.223Z</time></trkpt><trkpt lat="42.1373866" lon="11.9019758"><ele>465.0</ele><time>2026-04-04T14:26:41.228Z</time></trkpt><trkpt lat="42.1374653" lon="11.9019146"><ele>465.0</ele><time>2026-04-04T14:26:43.222Z</time></trkpt><trkpt lat="42.1375302" lon="11.9019073"><ele>465.0</ele><time>2026-04-04T14:26:44.243Z</time></trkpt><trkpt lat="42.1375961" lon="11.9018966"><ele>465.0</ele><time>2026-04-04T14:26:45.225Z</time></trkpt><trkpt lat="42.137734" lon="11.9019338"><ele>466.1666666666667</ele><time>2026-04-04T14:26:47.232Z</time></trkpt><trkpt lat="42.1378468" lon="11.9019676"><ele>467.33333333333337</ele><time>2026-04-04T14:26:48.231Z</time></trkpt><trkpt lat="42.137922" lon="11.9019831"><ele>468.5</ele><time>2026-04-04T14:26:49.223Z</time></trkpt><trkpt lat="42.1379893" lon="11.9019768"><ele>469.6666666666667</ele><time>2026-04-04T14:26:50.23Z</time></trkpt><trkpt lat="42.138056" lon="11.9019506"><ele>470.83333333333337</ele><time>2026-04-04T14:26:51.226Z</time></trkpt><trkpt lat="42.1381179" lon="11.9019007"><ele>472.0</ele><time>2026-04-04T14:26:52.225Z</time></trkpt><trkpt lat="42.1381715" lon="11.9018236"><ele>471.33333333333337</ele><time>2026-04-04T14:26:53.224Z</time></trkpt><trkpt lat="42.1382074" lon="11.9017277"><ele>470.6666666666667</ele><time>2026-04-04T14:26:54.227Z</time></trkpt><trkpt lat="42.1382322" lon="11.9016118"><ele>470.0</ele><time>2026-04-04T14:26:55.228Z</time></trkpt><trkpt lat="42.1382491" lon="11.9014929"><ele>469.33333333333337</ele><time>2026-04-04T14:26:56.224Z</time></trkpt><trkpt lat="42.1382726" lon="11.9013856"><ele>468.6666666666667</ele><time>2026-04-04T14:26:57.223Z</time></trkpt><trkpt lat="42.1383301" lon="11.9013004"><ele>468.0</ele><time>2026-04-04T14:26:58.22Z</time></trkpt><trkpt lat="42.138384" lon="11.9012092"><ele>468.0</ele><time>2026-04-04T14:26:59.237Z</time></trkpt><trkpt lat="42.1384415" lon="11.9011085"><ele>467.99999999999994</ele><time>2026-04-04T14:27:00.229Z</time></trkpt><trkpt lat="42.1384811" lon="11.90099"><ele>467.99999999999994</ele><time>2026-04-04T14:27:01.228Z</time></trkpt><trkpt lat="42.1385298" lon="11.900874"><ele>468.0</ele><time>2026-04-04T14:27:02.227Z</time></trkpt><trkpt lat="42.1385644" lon="11.9007667"><ele>468.0</ele><time>2026-04-04T14:27:03.224Z</time></trkpt><trkpt lat="42.1386219" lon="11.9006763"><ele>467.8333333333333</ele><time>2026-04-04T14:27:04.223Z</time></trkpt><trkpt lat="42.138684" lon="11.9005982"><ele>467.66666666666663</ele><time>2026-04-04T14:27:05.228Z</time></trkpt><trkpt lat="42.1387594" lon="11.9005496"><ele>467.5</ele><time>2026-04-04T14:27:06.225Z</time></trkpt><trkpt lat="42.1388429" lon="11.9005124"><ele>467.3333333333333</ele><time>2026-04-04T14:27:07.222Z</time></trkpt><trkpt lat="42.1389326" lon="11.900485"><ele>467.16666666666663</ele><time>2026-04-04T14:27:08.238Z</time></trkpt><trkpt lat="42.139006" lon="11.9004867"><ele>467.0</ele><time>2026-04-04T14:27:09.224Z</time></trkpt><trkpt lat="42.1390703" lon="11.9004898"><ele>467.0</ele><time>2026-04-04T14:27:10.229Z</time></trkpt><trkpt lat="42.1391866" lon="11.9005398"><ele>467.00000000000006</ele><time>2026-04-04T14:27:12.228Z</time></trkpt><trkpt lat="42.1392783" lon="11.9005782"><ele>467.00000000000006</ele><time>2026-04-04T14:27:14.237Z</time></trkpt><trkpt lat="42.1393849" lon="11.9006096"><ele>467.0</ele><time>2026-04-04T14:27:16.232Z</time></trkpt><trkpt lat="42.1394543" lon="11.9006226"><ele>467.0</ele><time>2026-04-04T14:27:17.224Z</time></trkpt><trkpt lat="42.1395297" lon="11.9006315"><ele>467.0</ele><time>2026-04-04T14:27:18.236Z</time></trkpt><trkpt lat="42.139617" lon="11.9006304"><ele>467.00000000000006</ele><time>2026-04-04T14:27:19.225Z</time></trkpt><trkpt lat="42.1397073" lon="11.9006273"><ele>467.00000000000006</ele><time>2026-04-04T14:27:20.227Z</time></trkpt><trkpt lat="42.1398104" lon="11.9006157"><ele>467.0</ele><time>2026-04-04T14:27:21.224Z</time></trkpt><trkpt lat="42.1399038" lon="11.9006107"><ele>467.0</ele><time>2026-04-04T14:27:22.231Z</time></trkpt><trkpt lat="42.1400079" lon="11.9005981"><ele>468.0</ele><time>2026-04-04T14:27:23.228Z</time></trkpt><trkpt lat="42.1401023" lon="11.9005924"><ele>469.00000000000006</ele><time>2026-04-04T14:27:24.225Z</time></trkpt><trkpt lat="42.140203" lon="11.9005815"><ele>470.00000000000006</ele><time>2026-04-04T14:27:25.225Z</time></trkpt><trkpt lat="42.1402965" lon="11.9005798"><ele>471.0</ele><time>2026-04-04T14:27:26.229Z</time></trkpt><trkpt lat="42.1403769" lon="11.9005864"><ele>472.0</ele><time>2026-04-04T14:27:27.226Z</time></trkpt><trkpt lat="42.1404578" lon="11.9006159"><ele>472.00000000000006</ele><time>2026-04-04T14:27:28.229Z</time></trkpt><trkpt lat="42.140537" lon="11.9006567"><ele>472.0</ele><time>2026-04-04T14:27:29.233Z</time></trkpt><trkpt lat="42.1406256" lon="11.9007089"><ele>472.0</ele><time>2026-04-04T14:27:30.228Z</time></trkpt><trkpt lat="42.1407054" lon="11.9007502"><ele>472.0</ele><time>2026-04-04T14:27:31.225Z</time></trkpt><trkpt lat="42.1407813" lon="11.9007816"><ele>472.00000000000006</ele><time>2026-04-04T14:27:32.229Z</time></trkpt><trkpt lat="42.1408625" lon="11.9008021"><ele>472.0</ele><time>2026-04-04T14:27:33.233Z</time></trkpt><trkpt lat="42.1409441" lon="11.9008196"><ele>471.6</ele><time>2026-04-04T14:27:34.225Z</time></trkpt><trkpt lat="42.1410362" lon="11.900846"><ele>471.20000000000005</ele><time>2026-04-04T14:27:35.228Z</time></trkpt><trkpt lat="42.1411085" lon="11.9008912"><ele>470.8</ele><time>2026-04-04T14:27:36.228Z</time></trkpt><trkpt lat="42.1411813" lon="11.9009413"><ele>470.4</ele><time>2026-04-04T14:27:37.224Z</time></trkpt><trkpt lat="42.1413039" lon="11.9010317"><ele>470.0</ele><time>2026-04-04T14:27:39.23Z</time></trkpt><trkpt lat="42.141372" lon="11.9010743"><ele>470.8</ele><time>2026-04-04T14:27:40.222Z</time></trkpt><trkpt lat="42.1414489" lon="11.9010973"><ele>471.6</ele><time>2026-04-04T14:27:41.225Z</time></trkpt><trkpt lat="42.1415209" lon="11.9011013"><ele>472.4</ele><time>2026-04-04T14:27:42.227Z</time></trkpt><trkpt lat="42.1416232" lon="11.9010418"><ele>473.2</ele><time>2026-04-04T14:27:44.221Z</time></trkpt><trkpt lat="42.1417119" lon="11.9009228"><ele>474.0</ele><time>2026-04-04T14:27:46.234Z</time></trkpt><trkpt lat="42.1417587" lon="11.9008361"><ele>472.4</ele><time>2026-04-04T14:27:47.248Z</time></trkpt><trkpt lat="42.1418029" lon="11.9007404"><ele>470.79999999999995</ele><time>2026-04-04T14:27:48.227Z</time></trkpt><trkpt lat="42.1418502" lon="11.9006346"><ele>469.20000000000005</ele><time>2026-04-04T14:27:49.225Z</time></trkpt><trkpt lat="42.1419003" lon="11.9005248"><ele>467.6</ele><time>2026-04-04T14:27:50.227Z</time></trkpt><trkpt lat="42.141952" lon="11.9004169"><ele>466.0</ele><time>2026-04-04T14:27:51.225Z</time></trkpt><trkpt lat="42.142009" lon="11.9003139"><ele>466.0</ele><time>2026-04-04T14:27:52.229Z</time></trkpt><trkpt lat="42.1420755" lon="11.9002255"><ele>466.0</ele><time>2026-04-04T14:27:53.224Z</time></trkpt><trkpt lat="42.1421515" lon="11.9001539"><ele>466.0</ele><time>2026-04-04T14:27:54.228Z</time></trkpt><trkpt lat="42.1422304" lon="11.9000916"><ele>466.0</ele><time>2026-04-04T14:27:55.224Z</time></trkpt><trkpt lat="42.1423125" lon="11.9000345"><ele>466.0</ele><time>2026-04-04T14:27:56.23Z</time></trkpt><trkpt lat="42.1423991" lon="11.8999986"><ele>468.33333333333337</ele><time>2026-04-04T14:27:57.263Z</time></trkpt><trkpt lat="42.1424876" lon="11.8999662"><ele>470.6666666666667</ele><time>2026-04-04T14:27:58.226Z</time></trkpt><trkpt lat="42.1425762" lon="11.8999298"><ele>473.0</ele><time>2026-04-04T14:27:59.223Z</time></trkpt><trkpt lat="42.1426535" lon="11.8998764"><ele>475.33333333333337</ele><time>2026-04-04T14:28:00.224Z</time></trkpt><trkpt lat="42.142707" lon="11.8998182"><ele>477.6666666666667</ele><time>2026-04-04T14:28:01.223Z</time></trkpt><trkpt lat="42.1427467" lon="11.8997343"><ele>480.0</ele><time>2026-04-04T14:28:02.234Z</time></trkpt><trkpt lat="42.1427561" lon="11.8996251"><ele>480.0</ele><time>2026-04-04T14:28:03.226Z</time></trkpt><trkpt lat="42.1427621" lon="11.8995053"><ele>480.0</ele><time>2026-04-04T14:28:04.223Z</time></trkpt><trkpt lat="42.1427637" lon="11.899371"><ele>480.0</ele><time>2026-04-04T14:28:05.227Z</time></trkpt><trkpt lat="42.1427513" lon="11.8992368"><ele>480.0</ele><time>2026-04-04T14:28:06.221Z</time></trkpt><trkpt lat="42.1427317" lon="11.8991081"><ele>480.0</ele><time>2026-04-04T14:28:07.224Z</time></trkpt><trkpt lat="42.1427059" lon="11.898979"><ele>481.1666666666667</ele><time>2026-04-04T14:28:08.222Z</time></trkpt><trkpt lat="42.142674" lon="11.8988597"><ele>482.33333333333337</ele><time>2026-04-04T14:28:09.232Z</time></trkpt><trkpt lat="42.1426515" lon="11.8987594"><ele>483.5</ele><time>2026-04-04T14:28:10.225Z</time></trkpt><trkpt lat="42.1426387" lon="11.8986671"><ele>484.6666666666667</ele><time>2026-04-04T14:28:11.222Z</time></trkpt><trkpt lat="42.142634" lon="11.8985592"><ele>485.83333333333337</ele><time>2026-04-04T14:28:12.221Z</time></trkpt><trkpt lat="42.1426432" lon="11.8984528"><ele>487.0</ele><time>2026-04-04T14:28:13.226Z</time></trkpt><trkpt lat="42.1426695" lon="11.8983501"><ele>488.0</ele><time>2026-04-04T14:28:14.227Z</time></trkpt><trkpt lat="42.1427131" lon="11.8982512"><ele>489.00000000000006</ele><time>2026-04-04T14:28:15.226Z</time></trkpt><trkpt lat="42.1427666" lon="11.8981515"><ele>490.00000000000006</ele><time>2026-04-04T14:28:16.225Z</time></trkpt><trkpt lat="42.1428235" lon="11.8980477"><ele>491.0</ele><time>2026-04-04T14:28:17.225Z</time></trkpt><trkpt lat="42.1428867" lon="11.8979435"><ele>492.0</ele><time>2026-04-04T14:28:18.229Z</time></trkpt><trkpt lat="42.1429603" lon="11.8978514"><ele>492.0</ele><time>2026-04-04T14:28:19.225Z</time></trkpt><trkpt lat="42.1430506" lon="11.8977754"><ele>492.00000000000006</ele><time>2026-04-04T14:28:20.226Z</time></trkpt><trkpt lat="42.1431435" lon="11.8977155"><ele>492.00000000000006</ele><time>2026-04-04T14:28:21.222Z</time></trkpt><trkpt lat="42.1432343" lon="11.8976716"><ele>492.0</ele><time>2026-04-04T14:28:22.226Z</time></trkpt><trkpt lat="42.1433249" lon="11.8976466"><ele>492.0</ele><time>2026-04-04T14:28:23.223Z</time></trkpt><trkpt lat="42.1434157" lon="11.8976317"><ele>493.3333333333333</ele><time>2026-04-04T14:28:24.22Z</time></trkpt><trkpt lat="42.1435041" lon="11.8976442"><ele>494.66666666666663</ele><time>2026-04-04T14:28:25.225Z</time></trkpt><trkpt lat="42.1435761" lon="11.8976659"><ele>496.0</ele><time>2026-04-04T14:28:26.221Z</time></trkpt><trkpt lat="42.1436365" lon="11.8976924"><ele>497.3333333333333</ele><time>2026-04-04T14:28:27.223Z</time></trkpt><trkpt lat="42.1437428" lon="11.8977567"><ele>498.66666666666663</ele><time>2026-04-04T14:28:29.224Z</time></trkpt><trkpt lat="42.143833" lon="11.8978324"><ele>500.0</ele><time>2026-04-04T14:28:31.225Z</time></trkpt><trkpt lat="42.1439301" lon="11.8979114"><ele>499.99999999999994</ele><time>2026-04-04T14:28:33.225Z</time></trkpt><trkpt lat="42.1440329" lon="11.8980144"><ele>500.0</ele><time>2026-04-04T14:28:35.224Z</time></trkpt><trkpt lat="42.1440946" lon="11.8980675"><ele>500.0</ele><time>2026-04-04T14:28:36.23Z</time></trkpt><trkpt lat="42.1441562" lon="11.8981238"><ele>500.0</ele><time>2026-04-04T14:28:37.224Z</time></trkpt><trkpt lat="42.14422" lon="11.898173"><ele>499.99999999999994</ele><time>2026-04-04T14:28:38.228Z</time></trkpt><trkpt lat="42.1442918" lon="11.8982193"><ele>500.0</ele><time>2026-04-04T14:28:39.225Z</time></trkpt><trkpt lat="42.1443717" lon="11.8982639"><ele>499.8333333333333</ele><time>2026-04-04T14:28:40.233Z</time></trkpt><trkpt lat="42.1444486" lon="11.8982901"><ele>499.66666666666663</ele><time>2026-04-04T14:28:41.226Z</time></trkpt><trkpt lat="42.1445346" lon="11.8982985"><ele>499.5</ele><time>2026-04-04T14:28:42.227Z</time></trkpt><trkpt lat="42.1446213" lon="11.8982845"><ele>499.33333333333337</ele><time>2026-04-04T14:28:43.235Z</time></trkpt><trkpt lat="42.1447127" lon="11.89825"><ele>499.1666666666667</ele><time>2026-04-04T14:28:44.228Z</time></trkpt><trkpt lat="42.1447999" lon="11.8982029"><ele>499.0</ele><time>2026-04-04T14:28:45.229Z</time></trkpt><trkpt lat="42.1448902" lon="11.8981559"><ele>499.0</ele><time>2026-04-04T14:28:46.237Z</time></trkpt><trkpt lat="42.1449844" lon="11.8981171"><ele>499.0</ele><time>2026-04-04T14:28:47.225Z</time></trkpt><trkpt lat="42.1450785" lon="11.8980947"><ele>499.0</ele><time>2026-04-04T14:28:48.226Z</time></trkpt><trkpt lat="42.1451729" lon="11.8980928"><ele>499.0</ele><time>2026-04-04T14:28:49.225Z</time></trkpt><trkpt lat="42.1452631" lon="11.8981141"><ele>499.0</ele><time>2026-04-04T14:28:50.224Z</time></trkpt><trkpt lat="42.1453541" lon="11.8981332"><ele>499.0</ele><time>2026-04-04T14:28:51.224Z</time></trkpt><trkpt lat="42.1454419" lon="11.8982137"><ele>499.0</ele><time>2026-04-04T14:28:52.229Z</time></trkpt><trkpt lat="42.1455283" lon="11.8982768"><ele>499.0</ele><time>2026-04-04T14:28:53.223Z</time></trkpt><trkpt lat="42.1456192" lon="11.89834"><ele>499.0</ele><time>2026-04-04T14:28:54.231Z</time></trkpt><trkpt lat="42.1456996" lon="11.8983816"><ele>499.0</ele><time>2026-04-04T14:28:55.225Z</time></trkpt><trkpt lat="42.1457675" lon="11.8984125"><ele>498.1666666666667</ele><time>2026-04-04T14:28:56.225Z</time></trkpt><trkpt lat="42.1458325" lon="11.8984421"><ele>497.33333333333337</ele><time>2026-04-04T14:28:57.224Z</time></trkpt><trkpt lat="42.1458929" lon="11.8984792"><ele>496.5</ele><time>2026-04-04T14:28:58.227Z</time></trkpt><trkpt lat="42.1459516" lon="11.8985154"><ele>495.66666666666663</ele><time>2026-04-04T14:28:59.226Z</time></trkpt><trkpt lat="42.1460635" lon="11.8985873"><ele>494.8333333333333</ele><time>2026-04-04T14:29:01.223Z</time></trkpt><trkpt lat="42.1461733" lon="11.8986661"><ele>494.0</ele><time>2026-04-04T14:29:03.223Z</time></trkpt><trkpt lat="42.1462691" lon="11.8987622"><ele>494.0</ele><time>2026-04-04T14:29:05.225Z</time></trkpt><trkpt lat="42.1463626" lon="11.8988418"><ele>494.0</ele><time>2026-04-04T14:29:07.22Z</time></trkpt><trkpt lat="42.1464562" lon="11.8989202"><ele>494.0</ele><time>2026-04-04T14:29:09.226Z</time></trkpt><trkpt lat="42.1465259" lon="11.8990028"><ele>494.0</ele><time>2026-04-04T14:29:11.222Z</time></trkpt><trkpt lat="42.146622" lon="11.8990759"><ele>494.0</ele><time>2026-04-04T14:29:13.23Z</time></trkpt><trkpt lat="42.1466913" lon="11.899155"><ele>494.4</ele><time>2026-04-04T14:29:15.224Z</time></trkpt><trkpt lat="42.1467535" lon="11.8992132"><ele>494.79999999999995</ele><time>2026-04-04T14:29:17.225Z</time></trkpt><trkpt lat="42.1468142" lon="11.8992808"><ele>495.20000000000005</ele><time>2026-04-04T14:29:20.223Z</time></trkpt><trkpt lat="42.1469117" lon="11.8993107"><ele>495.6</ele><time>2026-04-04T14:29:29.225Z</time></trkpt><trkpt lat="42.1469972" lon="11.8993326"><ele>496.0</ele><time>2026-04-04T14:29:31.225Z</time></trkpt><trkpt lat="42.1471201" lon="11.8993189"><ele>495.83333333333337</ele><time>2026-04-04T14:29:33.223Z</time></trkpt><trkpt lat="42.1472454" lon="11.8992784"><ele>495.6666666666667</ele><time>2026-04-04T14:29:35.242Z</time></trkpt><trkpt lat="42.1473234" lon="11.899257"><ele>495.5</ele><time>2026-04-04T14:29:36.224Z</time></trkpt><trkpt lat="42.1473952" lon="11.8992521"><ele>495.33333333333337</ele><time>2026-04-04T14:29:37.227Z</time></trkpt><trkpt lat="42.1474618" lon="11.89925"><ele>495.1666666666667</ele><time>2026-04-04T14:29:38.223Z</time></trkpt><trkpt lat="42.1475229" lon="11.8992745"><ele>495.0</ele><time>2026-04-04T14:29:39.24Z</time></trkpt><trkpt lat="42.1476213" lon="11.8993391"><ele>493.6666666666667</ele><time>2026-04-04T14:29:41.222Z</time></trkpt><trkpt lat="42.1476837" lon="11.8994254"><ele>492.33333333333337</ele><time>2026-04-04T14:29:43.229Z</time></trkpt><trkpt lat="42.1476924" lon="11.8995207"><ele>491.0</ele><time>2026-04-04T14:29:45.226Z</time></trkpt><trkpt lat="42.1476489" lon="11.8996274"><ele>489.6666666666667</ele><time>2026-04-04T14:29:47.226Z</time></trkpt><trkpt lat="42.1476095" lon="11.8996979"><ele>488.33333333333337</ele><time>2026-04-04T14:29:48.226Z</time></trkpt><trkpt lat="42.1475724" lon="11.8997748"><ele>487.0</ele><time>2026-04-04T14:29:49.222Z</time></trkpt><trkpt lat="42.1475363" lon="11.8999147"><ele>487.0</ele><time>2026-04-04T14:29:51.222Z</time></trkpt><trkpt lat="42.147532" lon="11.9000487"><ele>487.00000000000006</ele><time>2026-04-04T14:29:53.221Z</time></trkpt><trkpt lat="42.147561" lon="11.9001852"><ele>487.00000000000006</ele><time>2026-04-04T14:29:55.225Z</time></trkpt><trkpt lat="42.1476376" lon="11.9002786"><ele>487.0</ele><time>2026-04-04T14:29:57.221Z</time></trkpt><trkpt lat="42.1477047" lon="11.9002809"><ele>487.0</ele><time>2026-04-04T14:29:58.233Z</time></trkpt><trkpt lat="42.1478251" lon="11.9003113"><ele>485.40000000000003</ele><time>2026-04-04T14:30:00.232Z</time></trkpt><trkpt lat="42.1478972" lon="11.9004102"><ele>483.80000000000007</ele><time>2026-04-04T14:30:02.226Z</time></trkpt><trkpt lat="42.1478977" lon="11.9005691"><ele>482.2</ele><time>2026-04-04T14:30:04.225Z</time></trkpt><trkpt lat="42.1478803" lon="11.9006584"><ele>480.6</ele><time>2026-04-04T14:30:05.227Z</time></trkpt><trkpt lat="42.1478648" lon="11.9007481"><ele>479.0</ele><time>2026-04-04T14:30:06.227Z</time></trkpt><trkpt lat="42.1478817" lon="11.9009009"><ele>480.0</ele><time>2026-04-04T14:30:08.225Z</time></trkpt><trkpt lat="42.1479384" lon="11.901039"><ele>481.0</ele><time>2026-04-04T14:30:10.223Z</time></trkpt><trkpt lat="42.1479867" lon="11.9011751"><ele>482.0</ele><time>2026-04-04T14:30:12.227Z</time></trkpt><trkpt lat="42.1479511" lon="11.9012935"><ele>483.0</ele><time>2026-04-04T14:30:14.221Z</time></trkpt><trkpt lat="42.1478659" lon="11.9013728"><ele>484.0</ele><time>2026-04-04T14:30:16.227Z</time></trkpt><trkpt lat="42.1477938" lon="11.9014154"><ele>484.00000000000006</ele><time>2026-04-04T14:30:17.233Z</time></trkpt><trkpt lat="42.1477231" lon="11.9014632"><ele>484.0</ele><time>2026-04-04T14:30:18.222Z</time></trkpt><trkpt lat="42.1476451" lon="11.9015288"><ele>484.0</ele><time>2026-04-04T14:30:19.23Z</time></trkpt><trkpt lat="42.1475636" lon="11.9015969"><ele>484.0</ele><time>2026-04-04T14:30:20.223Z</time></trkpt><trkpt lat="42.14748" lon="11.9016541"><ele>484.00000000000006</ele><time>2026-04-04T14:30:21.225Z</time></trkpt><trkpt lat="42.1474137" lon="11.9017259"><ele>484.0</ele><time>2026-04-04T14:30:22.228Z</time></trkpt><trkpt lat="42.1473518" lon="11.9017986"><ele>481.79999999999995</ele><time>2026-04-04T14:30:23.222Z</time></trkpt><trkpt lat="42.1472847" lon="11.9018688"><ele>479.59999999999997</ele><time>2026-04-04T14:30:24.225Z</time></trkpt><trkpt lat="42.1472087" lon="11.9019488"><ele>477.4</ele><time>2026-04-04T14:30:25.224Z</time></trkpt><trkpt lat="42.1471489" lon="11.9020263"><ele>475.2</ele><time>2026-04-04T14:30:26.227Z</time></trkpt><trkpt lat="42.1470748" lon="11.9021088"><ele>473.0</ele><time>2026-04-04T14:30:27.224Z</time></trkpt><trkpt lat="42.1470118" lon="11.9021966"><ele>472.99999999999994</ele><time>2026-04-04T14:30:28.231Z</time></trkpt><trkpt lat="42.1469494" lon="11.9022948"><ele>473.0</ele><time>2026-04-04T14:30:29.228Z</time></trkpt><trkpt lat="42.1468895" lon="11.9023827"><ele>473.0</ele><time>2026-04-04T14:30:30.226Z</time></trkpt><trkpt lat="42.1468434" lon="11.9024774"><ele>473.0</ele><time>2026-04-04T14:30:31.224Z</time></trkpt><trkpt lat="42.1468105" lon="11.9025692"><ele>472.99999999999994</ele><time>2026-04-04T14:30:32.226Z</time></trkpt><trkpt lat="42.1467922" lon="11.9026533"><ele>473.0</ele><time>2026-04-04T14:30:33.225Z</time></trkpt><trkpt lat="42.1467858" lon="11.9028139"><ele>472.66666666666663</ele><time>2026-04-04T14:30:35.235Z</time></trkpt><trkpt lat="42.1468181" lon="11.9029621"><ele>472.3333333333333</ele><time>2026-04-04T14:30:37.232Z</time></trkpt><trkpt lat="42.1468384" lon="11.9030572"><ele>472.0</ele><time>2026-04-04T14:30:38.224Z</time></trkpt><trkpt lat="42.1468616" lon="11.9031579"><ele>471.66666666666663</ele><time>2026-04-04T14:30:39.221Z</time></trkpt><trkpt lat="42.1468894" lon="11.9032369"><ele>471.3333333333333</ele><time>2026-04-04T14:30:40.226Z</time></trkpt><trkpt lat="42.146928" lon="11.9033127"><ele>471.0</ele><time>2026-04-04T14:30:41.223Z</time></trkpt><trkpt lat="42.1470154" lon="11.9034106"><ele>471.3333333333333</ele><time>2026-04-04T14:30:43.223Z</time></trkpt><trkpt lat="42.1470994" lon="11.9034866"><ele>471.66666666666663</ele><time>2026-04-04T14:30:45.225Z</time></trkpt><trkpt lat="42.1471458" lon="11.9035789"><ele>472.0</ele><time>2026-04-04T14:30:47.221Z</time></trkpt><trkpt lat="42.1471251" lon="11.9036735"><ele>472.3333333333333</ele><time>2026-04-04T14:30:49.224Z</time></trkpt><trkpt lat="42.1470336" lon="11.9036959"><ele>472.66666666666663</ele><time>2026-04-04T14:30:51.225Z</time></trkpt><trkpt lat="42.1469634" lon="11.9037207"><ele>473.0</ele><time>2026-04-04T14:30:53.222Z</time></trkpt><trkpt lat="42.1468795" lon="11.9037447"><ele>473.0</ele><time>2026-04-04T14:30:55.224Z</time></trkpt><trkpt lat="42.1468157" lon="11.903806"><ele>472.99999999999994</ele><time>2026-04-04T14:30:57.222Z</time></trkpt><trkpt lat="42.1467689" lon="11.9039062"><ele>472.99999999999994</ele><time>2026-04-04T14:30:59.224Z</time></trkpt><trkpt lat="42.1467491" lon="11.9040272"><ele>473.0</ele><time>2026-04-04T14:31:01.224Z</time></trkpt><trkpt lat="42.1467253" lon="11.9041529"><ele>473.0</ele><time>2026-04-04T14:31:03.227Z</time></trkpt><trkpt lat="42.1466973" lon="11.9042792"><ele>471.66666666666663</ele><time>2026-04-04T14:31:05.23Z</time></trkpt><trkpt lat="42.1466452" lon="11.9043687"><ele>470.3333333333333</ele><time>2026-04-04T14:31:07.222Z</time></trkpt><trkpt lat="42.1465615" lon="11.9044261"><ele>469.0</ele><time>2026-04-04T14:31:09.223Z</time></trkpt><trkpt lat="42.1464523" lon="11.9044334"><ele>467.66666666666663</ele><time>2026-04-04T14:31:11.225Z</time></trkpt><trkpt lat="42.1463883" lon="11.9044328"><ele>466.3333333333333</ele><time>2026-04-04T14:31:12.224Z</time></trkpt><trkpt lat="42.1463212" lon="11.9044358"><ele>465.0</ele><time>2026-04-04T14:31:13.235Z</time></trkpt><trkpt lat="42.1462553" lon="11.9044414"><ele>465.0</ele><time>2026-04-04T14:31:14.221Z</time></trkpt><trkpt lat="42.1461441" lon="11.9045083"><ele>465.0</ele><time>2026-04-04T14:31:16.221Z</time></trkpt><trkpt lat="42.1460896" lon="11.9045525"><ele>465.0</ele><time>2026-04-04T14:31:17.23Z</time></trkpt><trkpt lat="42.1459953" lon="11.9046477"><ele>465.0</ele><time>2026-04-04T14:31:19.225Z</time></trkpt><trkpt lat="42.1459033" lon="11.9047383"><ele>465.0</ele><time>2026-04-04T14:31:21.227Z</time></trkpt><trkpt lat="42.1457967" lon="11.9048241"><ele>465.0</ele><time>2026-04-04T14:31:23.228Z</time></trkpt><trkpt lat="42.1457129" lon="11.9049248"><ele>465.0</ele><time>2026-04-04T14:31:25.225Z</time></trkpt><trkpt lat="42.1456527" lon="11.9050454"><ele>465.0</ele><time>2026-04-04T14:31:27.232Z</time></trkpt><trkpt lat="42.1455952" lon="11.9051923"><ele>465.0</ele><time>2026-04-04T14:31:29.229Z</time></trkpt><trkpt lat="42.1455589" lon="11.9053663"><ele>464.5</ele><time>2026-04-04T14:31:31.224Z</time></trkpt><trkpt lat="42.1455409" lon="11.9054591"><ele>464.0</ele><time>2026-04-04T14:31:32.224Z</time></trkpt><trkpt lat="42.1455243" lon="11.9055511"><ele>463.5</ele><time>2026-04-04T14:31:33.224Z</time></trkpt><trkpt lat="42.1455015" lon="11.9056354"><ele>463.0</ele><time>2026-04-04T14:31:34.231Z</time></trkpt><trkpt lat="42.1454795" lon="11.9057183"><ele>462.5</ele><time>2026-04-04T14:31:35.228Z</time></trkpt><trkpt lat="42.1454311" lon="11.905858"><ele>462.0</ele><time>2026-04-04T14:31:37.228Z</time></trkpt><trkpt lat="42.145382" lon="11.9059186"><ele>462.0</ele><time>2026-04-04T14:31:38.232Z</time></trkpt><trkpt lat="42.1453174" lon="11.906022"><ele>462.0</ele><time>2026-04-04T14:31:40.233Z</time></trkpt><trkpt lat="42.1452252" lon="11.9060829"><ele>462.0</ele><time>2026-04-04T14:31:42.229Z</time></trkpt><trkpt lat="42.1451417" lon="11.9061111"><ele>462.0</ele><time>2026-04-04T14:31:44.228Z</time></trkpt><trkpt lat="42.1450786" lon="11.9060962"><ele>462.0</ele><time>2026-04-04T14:31:46.222Z</time></trkpt><trkpt lat="42.1450062" lon="11.9060798"><ele>462.0</ele><time>2026-04-04T14:31:48.221Z</time></trkpt><trkpt lat="42.144943" lon="11.906106"><ele>462.0</ele><time>2026-04-04T14:31:50.229Z</time></trkpt><trkpt lat="42.1448804" lon="11.9061649"><ele>462.0</ele><time>2026-04-04T14:31:52.227Z</time></trkpt><trkpt lat="42.144811" lon="11.9062292"><ele>462.0</ele><time>2026-04-04T14:31:54.223Z</time></trkpt><trkpt lat="42.1447599" lon="11.9062887"><ele>462.0</ele><time>2026-04-04T14:31:55.229Z</time></trkpt><trkpt lat="42.1446747" lon="11.9063832"><ele>462.0</ele><time>2026-04-04T14:31:57.237Z</time></trkpt><trkpt lat="42.1445987" lon="11.9064772"><ele>462.0</ele><time>2026-04-04T14:31:59.222Z</time></trkpt><trkpt lat="42.1445376" lon="11.9065847"><ele>457.6</ele><time>2026-04-04T14:32:01.221Z</time></trkpt><trkpt lat="42.1444914" lon="11.9066862"><ele>453.20000000000005</ele><time>2026-04-04T14:32:03.224Z</time></trkpt><trkpt lat="42.1444637" lon="11.9068098"><ele>448.8</ele><time>2026-04-04T14:32:05.233Z</time></trkpt><trkpt lat="42.1444428" lon="11.9069404"><ele>444.4</ele><time>2026-04-04T14:32:07.223Z</time></trkpt><trkpt lat="42.144418" lon="11.907101"><ele>440.0</ele><time>2026-04-04T14:32:09.235Z</time></trkpt><trkpt lat="42.1444015" lon="11.9071854"><ele>440.0</ele><time>2026-04-04T14:32:10.225Z</time></trkpt><trkpt lat="42.144375" lon="11.9073306"><ele>440.0</ele><time>2026-04-04T14:32:12.223Z</time></trkpt><trkpt lat="42.1443518" lon="11.9074515"><ele>440.0</ele><time>2026-04-04T14:32:14.228Z</time></trkpt><trkpt lat="42.1443344" lon="11.9075746"><ele>440.0</ele><time>2026-04-04T14:32:16.221Z</time></trkpt><trkpt lat="42.1443273" lon="11.9077139"><ele>440.0</ele><time>2026-04-04T14:32:18.22Z</time></trkpt><trkpt lat="42.1443242" lon="11.9078514"><ele>438.6</ele><time>2026-04-04T14:32:20.226Z</time></trkpt><trkpt lat="42.144346" lon="11.9079858"><ele>437.2</ele><time>2026-04-04T14:32:22.222Z</time></trkpt><trkpt lat="42.14436" lon="11.9081105"><ele>435.79999999999995</ele><time>2026-04-04T14:32:24.226Z</time></trkpt><trkpt lat="42.1443833" lon="11.9082339"><ele>434.4</ele><time>2026-04-04T14:32:26.238Z</time></trkpt><trkpt lat="42.1444074" lon="11.9083417"><ele>433.0</ele><time>2026-04-04T14:32:28.225Z</time></trkpt><trkpt lat="42.144432" lon="11.9084448"><ele>432.1428571428571</ele><time>2026-04-04T14:32:30.23Z</time></trkpt><trkpt lat="42.1444545" lon="11.9085324"><ele>431.2857142857143</ele><time>2026-04-04T14:32:32.23Z</time></trkpt><trkpt lat="42.1444814" lon="11.9086313"><ele>430.42857142857144</ele><time>2026-04-04T14:32:34.221Z</time></trkpt><trkpt lat="42.1445177" lon="11.9087269"><ele>429.57142857142856</ele><time>2026-04-04T14:32:36.226Z</time></trkpt><trkpt lat="42.1445754" lon="11.9087936"><ele>428.7142857142857</ele><time>2026-04-04T14:32:38.23Z</time></trkpt><trkpt lat="42.1446527" lon="11.9088055"><ele>427.85714285714283</ele><time>2026-04-04T14:32:40.225Z</time></trkpt><trkpt lat="42.1447057" lon="11.9087547"><ele>427.0</ele><time>2026-04-04T14:32:41.23Z</time></trkpt><trkpt lat="42.1447957" lon="11.9086714"><ele>428.8</ele><time>2026-04-04T14:32:43.227Z</time></trkpt><trkpt lat="42.1448794" lon="11.9085845"><ele>430.6</ele><time>2026-04-04T14:32:45.221Z</time></trkpt><trkpt lat="42.1449354" lon="11.9085042"><ele>432.40000000000003</ele><time>2026-04-04T14:32:47.228Z</time></trkpt><trkpt lat="42.1450248" lon="11.9084216"><ele>434.20000000000005</ele><time>2026-04-04T14:32:49.225Z</time></trkpt><trkpt lat="42.1450933" lon="11.9083439"><ele>436.0</ele><time>2026-04-04T14:32:51.228Z</time></trkpt><trkpt lat="42.1451907" lon="11.9083298"><ele>436.0</ele><time>2026-04-04T14:32:54.224Z</time></trkpt><trkpt lat="42.145201" lon="11.9084432"><ele>436.0</ele><time>2026-04-04T14:32:57.226Z</time></trkpt><trkpt lat="42.145161" lon="11.9085773"><ele>436.0</ele><time>2026-04-04T14:32:59.221Z</time></trkpt><trkpt lat="42.1451176" lon="11.9087093"><ele>436.0</ele><time>2026-04-04T14:33:01.225Z</time></trkpt><trkpt lat="42.145088" lon="11.9088096"><ele>436.0</ele><time>2026-04-04T14:33:03.219Z</time></trkpt><trkpt lat="42.1450918" lon="11.9089124"><ele>436.00000000000006</ele><time>2026-04-04T14:33:05.229Z</time></trkpt><trkpt lat="42.1451019" lon="11.9090059"><ele>436.0</ele><time>2026-04-04T14:33:07.226Z</time></trkpt><trkpt lat="42.1450535" lon="11.9091101"><ele>436.0</ele><time>2026-04-04T14:33:09.223Z</time></trkpt><trkpt lat="42.1449885" lon="11.9091719"><ele>436.0</ele><time>2026-04-04T14:33:11.233Z</time></trkpt><trkpt lat="42.1449555" lon="11.9092605"><ele>436.00000000000006</ele><time>2026-04-04T14:33:12.23Z</time></trkpt><trkpt lat="42.1449462" lon="11.9094117"><ele>436.0</ele><time>2026-04-04T14:33:14.234Z</time></trkpt><trkpt lat="42.1449492" lon="11.9095655"><ele>435.0</ele><time>2026-04-04T14:33:16.231Z</time></trkpt><trkpt lat="42.1449033" lon="11.909709"><ele>434.0</ele><time>2026-04-04T14:33:18.222Z</time></trkpt><trkpt lat="42.144882" lon="11.9098647"><ele>433.0</ele><time>2026-04-04T14:33:20.227Z</time></trkpt><trkpt lat="42.1448745" lon="11.9099795"><ele>432.0</ele><time>2026-04-04T14:33:22.226Z</time></trkpt><trkpt lat="42.1448545" lon="11.9101045"><ele>431.0</ele><time>2026-04-04T14:33:24.23Z</time></trkpt><trkpt lat="42.144788" lon="11.9102057"><ele>428.66666666666663</ele><time>2026-04-04T14:33:26.228Z</time></trkpt><trkpt lat="42.1447375" lon="11.9103124"><ele>426.3333333333333</ele><time>2026-04-04T14:33:28.226Z</time></trkpt><trkpt lat="42.144712" lon="11.9104269"><ele>424.0</ele><time>2026-04-04T14:33:30.22Z</time></trkpt><trkpt lat="42.1447287" lon="11.9105398"><ele>421.66666666666663</ele><time>2026-04-04T14:33:32.228Z</time></trkpt><trkpt lat="42.1447677" lon="11.9106365"><ele>419.3333333333333</ele><time>2026-04-04T14:33:34.227Z</time></trkpt><trkpt lat="42.1448191" lon="11.9107151"><ele>417.0</ele><time>2026-04-04T14:33:36.227Z</time></trkpt><trkpt lat="42.144859" lon="11.9107955"><ele>417.0</ele><time>2026-04-04T14:33:38.232Z</time></trkpt><trkpt lat="42.1448744" lon="11.9108991"><ele>417.0</ele><time>2026-04-04T14:33:40.227Z</time></trkpt><trkpt lat="42.1448635" lon="11.9110397"><ele>417.0</ele><time>2026-04-04T14:33:42.223Z</time></trkpt><trkpt lat="42.1448466" lon="11.9111898"><ele>417.0</ele><time>2026-04-04T14:33:44.222Z</time></trkpt><trkpt lat="42.1448415" lon="11.9113261"><ele>417.0</ele><time>2026-04-04T14:33:46.222Z</time></trkpt><trkpt lat="42.1448572" lon="11.9114606"><ele>417.8</ele><time>2026-04-04T14:33:48.231Z</time></trkpt><trkpt lat="42.1449097" lon="11.9115593"><ele>418.6</ele><time>2026-04-04T14:33:50.224Z</time></trkpt><trkpt lat="42.144985" lon="11.9116289"><ele>419.40000000000003</ele><time>2026-04-04T14:33:52.222Z</time></trkpt><trkpt lat="42.145095" lon="11.9116924"><ele>420.20000000000005</ele><time>2026-04-04T14:33:54.225Z</time></trkpt><trkpt lat="42.1452093" lon="11.9117398"><ele>421.0</ele><time>2026-04-04T14:33:56.221Z</time></trkpt><trkpt lat="42.1453059" lon="11.9118069"><ele>422.00000000000006</ele><time>2026-04-04T14:33:58.221Z</time></trkpt><trkpt lat="42.1453179" lon="11.9119011"><ele>423.0</ele><time>2026-04-04T14:34:00.232Z</time></trkpt><trkpt lat="42.14528" lon="11.9119788"><ele>424.0</ele><time>2026-04-04T14:34:02.23Z</time></trkpt><trkpt lat="42.1452027" lon="11.9119981"><ele>425.0</ele><time>2026-04-04T14:34:04.227Z</time></trkpt><trkpt lat="42.145129" lon="11.912017"><ele>426.00000000000006</ele><time>2026-04-04T14:34:06.223Z</time></trkpt><trkpt lat="42.1450423" lon="11.9120358"><ele>427.0</ele><time>2026-04-04T14:34:08.228Z</time></trkpt><trkpt lat="42.1449595" lon="11.9120483"><ele>423.50000000000006</ele><time>2026-04-04T14:34:10.222Z</time></trkpt><trkpt lat="42.1448595" lon="11.9120538"><ele>420.0</ele><time>2026-04-04T14:34:12.219Z</time></trkpt><trkpt lat="42.1447742" lon="11.9120469"><ele>416.5</ele><time>2026-04-04T14:34:14.223Z</time></trkpt><trkpt lat="42.1446994" lon="11.9120684"><ele>413.0</ele><time>2026-04-04T14:34:16.233Z</time></trkpt><trkpt lat="42.1446128" lon="11.9120963"><ele>409.50000000000006</ele><time>2026-04-04T14:34:18.222Z</time></trkpt><trkpt lat="42.1445461" lon="11.9121549"><ele>406.0</ele><time>2026-04-04T14:34:20.227Z</time></trkpt><trkpt lat="42.1444985" lon="11.9122414"><ele>406.00000000000006</ele><time>2026-04-04T14:34:22.22Z</time></trkpt><trkpt lat="42.1444667" lon="11.9123289"><ele>406.0</ele><time>2026-04-04T14:34:24.22Z</time></trkpt><trkpt lat="42.1444313" lon="11.9124171"><ele>406.0</ele><time>2026-04-04T14:34:26.224Z</time></trkpt><trkpt lat="42.144386" lon="11.9125865"><ele>406.0</ele><time>2026-04-04T14:34:28.225Z</time></trkpt><trkpt lat="42.1443703" lon="11.9126922"><ele>406.00000000000006</ele><time>2026-04-04T14:34:29.224Z</time></trkpt><trkpt lat="42.1443434" lon="11.9127842"><ele>406.0</ele><time>2026-04-04T14:34:30.237Z</time></trkpt><trkpt lat="42.1443025" lon="11.9129436"><ele>405.50000000000006</ele><time>2026-04-04T14:34:32.223Z</time></trkpt><trkpt lat="42.1442704" lon="11.9130801"><ele>405.0</ele><time>2026-04-04T14:34:34.23Z</time></trkpt><trkpt lat="42.1442534" lon="11.9131639"><ele>404.5</ele><time>2026-04-04T14:34:35.222Z</time></trkpt><trkpt lat="42.1442088" lon="11.9133433"><ele>404.0</ele><time>2026-04-04T14:34:37.227Z</time></trkpt><trkpt lat="42.1441764" lon="11.9134311"><ele>403.50000000000006</ele><time>2026-04-04T14:34:38.224Z</time></trkpt><trkpt lat="42.1441518" lon="11.9135127"><ele>403.0</ele><time>2026-04-04T14:34:39.226Z</time></trkpt><trkpt lat="42.1441024" lon="11.9136275"><ele>402.4</ele><time>2026-04-04T14:34:41.226Z</time></trkpt><trkpt lat="42.1440622" lon="11.9137614"><ele>401.79999999999995</ele><time>2026-04-04T14:34:43.22Z</time></trkpt><trkpt lat="42.1440312" lon="11.913901"><ele>401.2</ele><time>2026-04-04T14:34:45.227Z</time></trkpt><trkpt lat="42.1440247" lon="11.914044"><ele>400.6</ele><time>2026-04-04T14:34:47.223Z</time></trkpt><trkpt lat="42.1440383" lon="11.9141277"><ele>400.0</ele><time>2026-04-04T14:34:48.236Z</time></trkpt><trkpt lat="42.1441106" lon="11.9142556"><ele>401.83333333333337</ele><time>2026-04-04T14:34:50.221Z</time></trkpt><trkpt lat="42.1441622" lon="11.9143109"><ele>403.6666666666667</ele><time>2026-04-04T14:34:51.222Z</time></trkpt><trkpt lat="42.1442511" lon="11.9143898"><ele>405.5</ele><time>2026-04-04T14:34:53.227Z</time></trkpt><trkpt lat="42.1443285" lon="11.914457"><ele>407.33333333333337</ele><time>2026-04-04T14:34:55.227Z</time></trkpt><trkpt lat="42.1444035" lon="11.914539"><ele>409.1666666666667</ele><time>2026-04-04T14:34:57.231Z</time></trkpt><trkpt lat="42.1444637" lon="11.9146152"><ele>411.0</ele><time>2026-04-04T14:34:59.224Z</time></trkpt><trkpt lat="42.1445263" lon="11.9146829"><ele>411.0</ele><time>2026-04-04T14:35:01.221Z</time></trkpt><trkpt lat="42.144535" lon="11.914783"><ele>411.0</ele><time>2026-04-04T14:35:03.225Z</time></trkpt><trkpt lat="42.1444627" lon="11.9148402"><ele>411.0</ele><time>2026-04-04T14:35:06.223Z</time></trkpt><trkpt lat="42.1443823" lon="11.914819"><ele>411.0</ele><time>2026-04-04T14:35:08.218Z</time></trkpt><trkpt lat="42.1443139" lon="11.9147981"><ele>411.0</ele><time>2026-04-04T14:35:10.231Z</time></trkpt><trkpt lat="42.1442475" lon="11.914785"><ele>411.0</ele><time>2026-04-04T14:35:12.225Z</time></trkpt><trkpt lat="42.1441828" lon="11.9147795"><ele>411.0</ele><time>2026-04-04T14:35:14.223Z</time></trkpt><trkpt lat="42.1441012" lon="11.9147821"><ele>407.3333333333333</ele><time>2026-04-04T14:35:16.228Z</time></trkpt><trkpt lat="42.1440241" lon="11.9147887"><ele>403.66666666666663</ele><time>2026-04-04T14:35:18.229Z</time></trkpt><trkpt lat="42.1439293" lon="11.9147982"><ele>400.0</ele><time>2026-04-04T14:35:20.226Z</time></trkpt><trkpt lat="42.1438482" lon="11.9147837"><ele>396.3333333333333</ele><time>2026-04-04T14:35:22.227Z</time></trkpt><trkpt lat="42.1437824" lon="11.9148233"><ele>392.66666666666663</ele><time>2026-04-04T14:35:24.224Z</time></trkpt><trkpt lat="42.1437247" lon="11.9148905"><ele>389.0</ele><time>2026-04-04T14:35:26.226Z</time></trkpt><trkpt lat="42.1436528" lon="11.9149421"><ele>388.99999999999994</ele><time>2026-04-04T14:35:28.228Z</time></trkpt><trkpt lat="42.1435757" lon="11.9149974"><ele>389.0</ele><time>2026-04-04T14:35:30.219Z</time></trkpt><trkpt lat="42.1435013" lon="11.9150555"><ele>389.0</ele><time>2026-04-04T14:35:32.226Z</time></trkpt><trkpt lat="42.1434304" lon="11.9151249"><ele>389.0</ele><time>2026-04-04T14:35:34.221Z</time></trkpt><trkpt lat="42.1433884" lon="11.9152212"><ele>388.99999999999994</ele><time>2026-04-04T14:35:36.224Z</time></trkpt><trkpt lat="42.1433703" lon="11.9153183"><ele>389.0</ele><time>2026-04-04T14:35:38.22Z</time></trkpt><trkpt lat="42.1433618" lon="11.9154235"><ele>389.66666666666663</ele><time>2026-04-04T14:35:40.223Z</time></trkpt><trkpt lat="42.1433509" lon="11.9155385"><ele>390.3333333333333</ele><time>2026-04-04T14:35:42.223Z</time></trkpt><trkpt lat="42.1433378" lon="11.9156528"><ele>391.0</ele><time>2026-04-04T14:35:44.232Z</time></trkpt><trkpt lat="42.1433282" lon="11.9157686"><ele>391.66666666666663</ele><time>2026-04-04T14:35:46.229Z</time></trkpt><trkpt lat="42.1433318" lon="11.9158809"><ele>392.3333333333333</ele><time>2026-04-04T14:35:48.222Z</time></trkpt><trkpt lat="42.143324" lon="11.9159996"><ele>393.0</ele><time>2026-04-04T14:35:50.228Z</time></trkpt><trkpt lat="42.1432836" lon="11.9160852"><ele>391.3333333333333</ele><time>2026-04-04T14:35:52.226Z</time></trkpt><trkpt lat="42.1432115" lon="11.9161313"><ele>389.6666666666667</ele><time>2026-04-04T14:35:54.225Z</time></trkpt><trkpt lat="42.1431427" lon="11.9162021"><ele>388.0</ele><time>2026-04-04T14:35:56.222Z</time></trkpt><trkpt lat="42.1430896" lon="11.916289"><ele>386.33333333333337</ele><time>2026-04-04T14:35:58.219Z</time></trkpt><trkpt lat="42.1430496" lon="11.9163567"><ele>384.6666666666667</ele><time>2026-04-04T14:35:59.239Z</time></trkpt><trkpt lat="42.1430161" lon="11.9164304"><ele>383.0</ele><time>2026-04-04T14:36:00.222Z</time></trkpt><trkpt lat="42.1429577" lon="11.9165561"><ele>383.0</ele><time>2026-04-04T14:36:02.222Z</time></trkpt><trkpt lat="42.1429258" lon="11.916688"><ele>383.0</ele><time>2026-04-04T14:36:04.226Z</time></trkpt><trkpt lat="42.1428896" lon="11.9167944"><ele>383.0</ele><time>2026-04-04T14:36:06.218Z</time></trkpt><trkpt lat="42.1428445" lon="11.9168939"><ele>383.0</ele><time>2026-04-04T14:36:08.228Z</time></trkpt><trkpt lat="42.142811" lon="11.9169893"><ele>383.0</ele><time>2026-04-04T14:36:10.23Z</time></trkpt><trkpt lat="42.1428093" lon="11.9170889"><ele>383.0</ele><time>2026-04-04T14:36:12.225Z</time></trkpt><trkpt lat="42.1428198" lon="11.9171945"><ele>382.6666666666667</ele><time>2026-04-04T14:36:14.223Z</time></trkpt><trkpt lat="42.1428229" lon="11.9172859"><ele>382.33333333333337</ele><time>2026-04-04T14:36:16.225Z</time></trkpt><trkpt lat="42.1427912" lon="11.9173133"><ele>382.0</ele><time>2026-04-04T14:43:51.22Z</time></trkpt><trkpt lat="42.1427562" lon="11.9173957"><ele>381.6666666666667</ele><time>2026-04-04T14:45:41.224Z</time></trkpt><trkpt lat="42.1427715" lon="11.9175012"><ele>381.3333333333333</ele><time>2026-04-04T14:45:43.223Z</time></trkpt><trkpt lat="42.1428086" lon="11.9176161"><ele>381.0</ele><time>2026-04-04T14:45:45.236Z</time></trkpt><trkpt lat="42.1428829" lon="11.9177197"><ele>380.8</ele><time>2026-04-04T14:45:47.233Z</time></trkpt><trkpt lat="42.1429061" lon="11.9178666"><ele>380.6</ele><time>2026-04-04T14:45:49.235Z</time></trkpt><trkpt lat="42.1429245" lon="11.9180071"><ele>380.4</ele><time>2026-04-04T14:45:51.227Z</time></trkpt><trkpt lat="42.1429662" lon="11.9181285"><ele>380.2</ele><time>2026-04-04T14:45:53.223Z</time></trkpt><trkpt lat="42.1430189" lon="11.9182411"><ele>380.0</ele><time>2026-04-04T14:45:54.227Z</time></trkpt><trkpt lat="42.1430744" lon="11.9183103"><ele>380.0</ele><time>2026-04-04T14:45:55.231Z</time></trkpt><trkpt lat="42.1431075" lon="11.9183902"><ele>380.0</ele><time>2026-04-04T14:45:56.23Z</time></trkpt><trkpt lat="42.1431372" lon="11.9184671"><ele>380.0</ele><time>2026-04-04T14:45:57.233Z</time></trkpt><trkpt lat="42.1432159" lon="11.9185943"><ele>380.0</ele><time>2026-04-04T14:45:59.225Z</time></trkpt><trkpt lat="42.1432591" lon="11.9186618"><ele>380.0</ele><time>2026-04-04T14:46:00.225Z</time></trkpt><trkpt lat="42.143307" lon="11.9187183"><ele>380.0</ele><time>2026-04-04T14:46:01.228Z</time></trkpt><trkpt lat="42.1434196" lon="11.9187914"><ele>380.0</ele><time>2026-04-04T14:46:03.228Z</time></trkpt><trkpt lat="42.1435373" lon="11.9188"><ele>380.0</ele><time>2026-04-04T14:46:05.224Z</time></trkpt><trkpt lat="42.1436324" lon="11.9187769"><ele>380.0</ele><time>2026-04-04T14:46:07.221Z</time></trkpt><trkpt lat="42.1437391" lon="11.9187808"><ele>380.0</ele><time>2026-04-04T14:46:09.23Z</time></trkpt><trkpt lat="42.143834" lon="11.9188554"><ele>380.0</ele><time>2026-04-04T14:46:11.22Z</time></trkpt><trkpt lat="42.1439072" lon="11.9189567"><ele>380.0</ele><time>2026-04-04T14:46:13.224Z</time></trkpt><trkpt lat="42.1439912" lon="11.9190514"><ele>380.0</ele><time>2026-04-04T14:46:15.23Z</time></trkpt><trkpt lat="42.1440267" lon="11.919156"><ele>380.0</ele><time>2026-04-04T14:46:17.237Z</time></trkpt><trkpt lat="42.1440344" lon="11.9193047"><ele>380.0</ele><time>2026-04-04T14:46:19.237Z</time></trkpt><trkpt lat="42.1440257" lon="11.9193921"><ele>380.0</ele><time>2026-04-04T14:46:20.233Z</time></trkpt><trkpt lat="42.1440524" lon="11.9195272"><ele>383.0</ele><time>2026-04-04T14:46:22.234Z</time></trkpt><trkpt lat="42.1441244" lon="11.9195969"><ele>386.0</ele><time>2026-04-04T14:46:24.24Z</time></trkpt><trkpt lat="42.1442374" lon="11.9196723"><ele>389.0</ele><time>2026-04-04T14:46:26.239Z</time></trkpt><trkpt lat="42.1442939" lon="11.919715"><ele>392.0</ele><time>2026-04-04T14:46:27.238Z</time></trkpt><trkpt lat="42.144414" lon="11.9198022"><ele>395.0</ele><time>2026-04-04T14:46:29.228Z</time></trkpt><trkpt lat="42.1444786" lon="11.9198395"><ele>394.99999999999994</ele><time>2026-04-04T14:46:30.234Z</time></trkpt><trkpt lat="42.1445487" lon="11.9198858"><ele>395.0</ele><time>2026-04-04T14:46:31.226Z</time></trkpt><trkpt lat="42.1446096" lon="11.9199205"><ele>395.0</ele><time>2026-04-04T14:46:32.225Z</time></trkpt><trkpt lat="42.1446659" lon="11.9199588"><ele>395.0</ele><time>2026-04-04T14:46:33.228Z</time></trkpt><trkpt lat="42.1447375" lon="11.9199958"><ele>394.99999999999994</ele><time>2026-04-04T14:46:34.228Z</time></trkpt><trkpt lat="42.1447925" lon="11.9200372"><ele>395.0</ele><time>2026-04-04T14:46:35.221Z</time></trkpt><trkpt lat="42.1449115" lon="11.9201148"><ele>397.99999999999994</ele><time>2026-04-04T14:46:37.227Z</time></trkpt><trkpt lat="42.1449764" lon="11.9201687"><ele>401.0</ele><time>2026-04-04T14:46:38.238Z</time></trkpt><trkpt lat="42.1450417" lon="11.9202127"><ele>404.0</ele><time>2026-04-04T14:46:39.231Z</time></trkpt><trkpt lat="42.1451185" lon="11.9202109"><ele>407.0</ele><time>2026-04-04T14:46:41.224Z</time></trkpt><trkpt lat="42.1451718" lon="11.9201473"><ele>409.99999999999994</ele><time>2026-04-04T14:46:44.226Z</time></trkpt><trkpt lat="42.1450788" lon="11.9200441"><ele>413.0</ele><time>2026-04-04T14:46:48.228Z</time></trkpt><trkpt lat="42.1449934" lon="11.9199881"><ele>413.59999999999997</ele><time>2026-04-04T14:46:50.234Z</time></trkpt><trkpt lat="42.1449239" lon="11.9199011"><ele>414.2</ele><time>2026-04-04T14:46:52.224Z</time></trkpt><trkpt lat="42.1448643" lon="11.9197616"><ele>414.8</ele><time>2026-04-04T14:46:54.238Z</time></trkpt><trkpt lat="42.1448258" lon="11.9195932"><ele>415.4</ele><time>2026-04-04T14:46:56.239Z</time></trkpt><trkpt lat="42.1448553" lon="11.9194996"><ele>416.0</ele><time>2026-04-04T14:46:57.235Z</time></trkpt><trkpt lat="42.1448605" lon="11.9194099"><ele>417.7142857142857</ele><time>2026-04-04T14:46:58.228Z</time></trkpt><trkpt lat="42.1448641" lon="11.9193115"><ele>419.42857142857144</ele><time>2026-04-04T14:46:59.232Z</time></trkpt><trkpt lat="42.1448703" lon="11.9192234"><ele>421.14285714285717</ele><time>2026-04-04T14:47:00.23Z</time></trkpt><trkpt lat="42.1448851" lon="11.9191268"><ele>422.8571428571429</ele><time>2026-04-04T14:47:01.226Z</time></trkpt><trkpt lat="42.1448916" lon="11.9190326"><ele>424.57142857142856</ele><time>2026-04-04T14:47:02.234Z</time></trkpt><trkpt lat="42.1449024" lon="11.9189456"><ele>426.28571428571433</ele><time>2026-04-04T14:47:03.226Z</time></trkpt><trkpt lat="42.1449174" lon="11.9188554"><ele>428.0</ele><time>2026-04-04T14:47:04.225Z</time></trkpt><trkpt lat="42.1448894" lon="11.9187522"><ele>427.99999999999994</ele><time>2026-04-04T14:47:05.235Z</time></trkpt><trkpt lat="42.1448833" lon="11.918665"><ele>428.0</ele><time>2026-04-04T14:47:06.223Z</time></trkpt><trkpt lat="42.1448615" lon="11.9185819"><ele>428.0</ele><time>2026-04-04T14:47:07.219Z</time></trkpt><trkpt lat="42.1448216" lon="11.9184873"><ele>428.0</ele><time>2026-04-04T14:47:08.224Z</time></trkpt><trkpt lat="42.1447839" lon="11.9183963"><ele>427.99999999999994</ele><time>2026-04-04T14:47:09.226Z</time></trkpt><trkpt lat="42.1447403" lon="11.9182956"><ele>428.0</ele><time>2026-04-04T14:47:10.228Z</time></trkpt><trkpt lat="42.1446795" lon="11.918135"><ele>428.14285714285717</ele><time>2026-04-04T14:47:12.232Z</time></trkpt><trkpt lat="42.1446585" lon="11.9180476"><ele>428.2857142857143</ele><time>2026-04-04T14:47:13.217Z</time></trkpt><trkpt lat="42.144642" lon="11.917952"><ele>428.42857142857144</ele><time>2026-04-04T14:47:14.231Z</time></trkpt><trkpt lat="42.1446314" lon="11.917867"><ele>428.57142857142856</ele><time>2026-04-04T14:47:15.228Z</time></trkpt><trkpt lat="42.1446303" lon="11.9177786"><ele>428.7142857142857</ele><time>2026-04-04T14:47:16.234Z</time></trkpt><trkpt lat="42.1446242" lon="11.91768"><ele>428.8571428571429</ele><time>2026-04-04T14:47:17.225Z</time></trkpt><trkpt lat="42.1446245" lon="11.9175827"><ele>429.0</ele><time>2026-04-04T14:47:18.232Z</time></trkpt><trkpt lat="42.144595" lon="11.9174906"><ele>429.0</ele><time>2026-04-04T14:47:19.23Z</time></trkpt><trkpt lat="42.1445966" lon="11.9173549"><ele>429.0</ele><time>2026-04-04T14:47:21.227Z</time></trkpt><trkpt lat="42.1446592" lon="11.917284"><ele>429.0</ele><time>2026-04-04T14:47:23.244Z</time></trkpt><trkpt lat="42.1447252" lon="11.9172626"><ele>429.0</ele><time>2026-04-04T14:47:24.228Z</time></trkpt><trkpt lat="42.1448022" lon="11.9172533"><ele>429.0</ele><time>2026-04-04T14:47:25.223Z</time></trkpt><trkpt lat="42.1448878" lon="11.9172527"><ele>429.0</ele><time>2026-04-04T14:47:26.225Z</time></trkpt><trkpt lat="42.1449675" lon="11.9172779"><ele>429.6666666666667</ele><time>2026-04-04T14:47:27.222Z</time></trkpt><trkpt lat="42.1450322" lon="11.9173222"><ele>430.33333333333337</ele><time>2026-04-04T14:47:28.227Z</time></trkpt><trkpt lat="42.1450891" lon="11.9173642"><ele>431.0</ele><time>2026-04-04T14:47:29.221Z</time></trkpt><trkpt lat="42.1451309" lon="11.9174433"><ele>431.6666666666667</ele><time>2026-04-04T14:47:32.223Z</time></trkpt><trkpt lat="42.145179" lon="11.9175407"><ele>432.33333333333337</ele><time>2026-04-04T14:47:35.227Z</time></trkpt><trkpt lat="42.1452346" lon="11.9176564"><ele>433.0</ele><time>2026-04-04T14:47:37.229Z</time></trkpt><trkpt lat="42.1452879" lon="11.9177901"><ele>433.0</ele><time>2026-04-04T14:47:39.222Z</time></trkpt><trkpt lat="42.1453532" lon="11.9179296"><ele>432.99999999999994</ele><time>2026-04-04T14:47:41.23Z</time></trkpt><trkpt lat="42.1453918" lon="11.9180056"><ele>432.99999999999994</ele><time>2026-04-04T14:47:42.223Z</time></trkpt><trkpt lat="42.1454718" lon="11.9181408"><ele>433.0</ele><time>2026-04-04T14:47:44.227Z</time></trkpt><trkpt lat="42.1455205" lon="11.9182092"><ele>433.0</ele><time>2026-04-04T14:47:45.243Z</time></trkpt><trkpt lat="42.1455665" lon="11.9182868"><ele>432.99999999999994</ele><time>2026-04-04T14:47:46.23Z</time></trkpt><trkpt lat="42.1456222" lon="11.9183618"><ele>433.0</ele><time>2026-04-04T14:47:47.233Z</time></trkpt><trkpt lat="42.1456793" lon="11.9184375"><ele>433.0</ele><time>2026-04-04T14:47:48.24Z</time></trkpt><trkpt lat="42.1457396" lon="11.9185031"><ele>433.0</ele><time>2026-04-04T14:47:49.225Z</time></trkpt><trkpt lat="42.1457891" lon="11.9185598"><ele>433.0</ele><time>2026-04-04T14:47:50.233Z</time></trkpt><trkpt lat="42.1458391" lon="11.9186284"><ele>432.99999999999994</ele><time>2026-04-04T14:47:51.226Z</time></trkpt><trkpt lat="42.1458848" lon="11.9186947"><ele>433.0</ele><time>2026-04-04T14:47:52.22Z</time></trkpt><trkpt lat="42.1459442" lon="11.9187601"><ele>435.83333333333337</ele><time>2026-04-04T14:47:53.231Z</time></trkpt><trkpt lat="42.1460124" lon="11.9188195"><ele>438.6666666666667</ele><time>2026-04-04T14:47:54.226Z</time></trkpt><trkpt lat="42.1460905" lon="11.9188693"><ele>441.5</ele><time>2026-04-04T14:47:55.235Z</time></trkpt><trkpt lat="42.1461688" lon="11.9189017"><ele>444.33333333333337</ele><time>2026-04-04T14:47:56.233Z</time></trkpt><trkpt lat="42.1462344" lon="11.9189034"><ele>447.1666666666667</ele><time>2026-04-04T14:47:57.227Z</time></trkpt><trkpt lat="42.1463585" lon="11.9188668"><ele>450.0</ele><time>2026-04-04T14:47:59.226Z</time></trkpt><trkpt lat="42.1464227" lon="11.9188262"><ele>450.0</ele><time>2026-04-04T14:48:00.233Z</time></trkpt><trkpt lat="42.1465341" lon="11.9187998"><ele>450.0</ele><time>2026-04-04T14:48:02.224Z</time></trkpt><trkpt lat="42.1466033" lon="11.918782"><ele>450.0</ele><time>2026-04-04T14:48:21.222Z</time></trkpt><trkpt lat="42.1467296" lon="11.918775"><ele>450.0</ele><time>2026-04-04T14:48:25.223Z</time></trkpt><trkpt lat="42.1468084" lon="11.918786"><ele>450.0</ele><time>2026-04-04T14:48:26.237Z</time></trkpt><trkpt lat="42.1468817" lon="11.9188016"><ele>451.6666666666667</ele><time>2026-04-04T14:48:27.224Z</time></trkpt><trkpt lat="42.1469559" lon="11.9188251"><ele>453.33333333333337</ele><time>2026-04-04T14:48:28.23Z</time></trkpt><trkpt lat="42.1470407" lon="11.9188565"><ele>455.0</ele><time>2026-04-04T14:48:29.222Z</time></trkpt><trkpt lat="42.1471169" lon="11.9188977"><ele>456.6666666666667</ele><time>2026-04-04T14:48:30.222Z</time></trkpt><trkpt lat="42.1471832" lon="11.9189386"><ele>458.33333333333337</ele><time>2026-04-04T14:48:31.223Z</time></trkpt><trkpt lat="42.1472687" lon="11.9189888"><ele>460.0</ele><time>2026-04-04T14:48:32.224Z</time></trkpt><trkpt lat="42.1473422" lon="11.9190513"><ele>462.2</ele><time>2026-04-04T14:48:33.225Z</time></trkpt><trkpt lat="42.1474189" lon="11.9191208"><ele>464.4</ele><time>2026-04-04T14:48:34.224Z</time></trkpt><trkpt lat="42.1474726" lon="11.919201"><ele>466.6</ele><time>2026-04-04T14:48:35.221Z</time></trkpt><trkpt lat="42.1475476" lon="11.9193023"><ele>468.8</ele><time>2026-04-04T14:48:36.228Z</time></trkpt><trkpt lat="42.1476168" lon="11.9193903"><ele>471.0</ele><time>2026-04-04T14:48:37.226Z</time></trkpt><trkpt lat="42.147682" lon="11.9194785"><ele>471.0</ele><time>2026-04-04T14:48:38.223Z</time></trkpt><trkpt lat="42.1477276" lon="11.9195632"><ele>471.0</ele><time>2026-04-04T14:48:39.219Z</time></trkpt><trkpt lat="42.1477833" lon="11.9196517"><ele>471.0</ele><time>2026-04-04T14:48:40.226Z</time></trkpt><trkpt lat="42.1477946" lon="11.9197574"><ele>471.0</ele><time>2026-04-04T14:48:41.223Z</time></trkpt><trkpt lat="42.1477885" lon="11.9198668"><ele>471.0</ele><time>2026-04-04T14:48:42.226Z</time></trkpt><trkpt lat="42.1477715" lon="11.9199773"><ele>471.0</ele><time>2026-04-04T14:48:43.219Z</time></trkpt><trkpt lat="42.1477408" lon="11.9201492"><ele>470.5</ele><time>2026-04-04T14:48:45.225Z</time></trkpt><trkpt lat="42.1477525" lon="11.9202495"><ele>470.0</ele><time>2026-04-04T14:48:46.22Z</time></trkpt><trkpt lat="42.1477833" lon="11.9203475"><ele>469.5</ele><time>2026-04-04T14:48:47.225Z</time></trkpt><trkpt lat="42.147819" lon="11.9204506"><ele>469.0</ele><time>2026-04-04T14:48:48.22Z</time></trkpt><trkpt lat="42.1478675" lon="11.9205659"><ele>468.5</ele><time>2026-04-04T14:48:49.219Z</time></trkpt><trkpt lat="42.1479029" lon="11.9206856"><ele>468.0</ele><time>2026-04-04T14:48:50.221Z</time></trkpt><trkpt lat="42.1479414" lon="11.9207985"><ele>467.4</ele><time>2026-04-04T14:48:51.221Z</time></trkpt><trkpt lat="42.1479792" lon="11.9209135"><ele>466.79999999999995</ele><time>2026-04-04T14:48:52.227Z</time></trkpt><trkpt lat="42.1480122" lon="11.9210113"><ele>466.2</ele><time>2026-04-04T14:48:53.223Z</time></trkpt><trkpt lat="42.1480908" lon="11.9211179"><ele>465.6</ele><time>2026-04-04T14:48:55.224Z</time></trkpt><trkpt lat="42.1481792" lon="11.921181"><ele>465.0</ele><time>2026-04-04T14:48:57.219Z</time></trkpt><trkpt lat="42.1482954" lon="11.9212402"><ele>468.0</ele><time>2026-04-04T14:48:59.232Z</time></trkpt><trkpt lat="42.1483787" lon="11.9212547"><ele>471.0</ele><time>2026-04-04T14:49:00.226Z</time></trkpt><trkpt lat="42.1484608" lon="11.9212486"><ele>474.0</ele><time>2026-04-04T14:49:01.222Z</time></trkpt><trkpt lat="42.1485635" lon="11.9212323"><ele>477.0</ele><time>2026-04-04T14:49:02.222Z</time></trkpt><trkpt lat="42.1486605" lon="11.9212172"><ele>480.0</ele><time>2026-04-04T14:49:03.226Z</time></trkpt><trkpt lat="42.1487604" lon="11.9212026"><ele>480.0</ele><time>2026-04-04T14:49:04.221Z</time></trkpt><trkpt lat="42.1488541" lon="11.9211875"><ele>480.0</ele><time>2026-04-04T14:49:05.218Z</time></trkpt><trkpt lat="42.1489499" lon="11.9211734"><ele>480.0</ele><time>2026-04-04T14:49:06.221Z</time></trkpt><trkpt lat="42.1490531" lon="11.9211507"><ele>480.0</ele><time>2026-04-04T14:49:07.222Z</time></trkpt><trkpt lat="42.1491461" lon="11.9211335"><ele>480.0</ele><time>2026-04-04T14:49:08.219Z</time></trkpt><trkpt lat="42.1492405" lon="11.9211172"><ele>481.6</ele><time>2026-04-04T14:49:09.223Z</time></trkpt><trkpt lat="42.1493238" lon="11.9210799"><ele>483.2</ele><time>2026-04-04T14:49:10.23Z</time></trkpt><trkpt lat="42.1494119" lon="11.9210352"><ele>484.79999999999995</ele><time>2026-04-04T14:49:11.222Z</time></trkpt><trkpt lat="42.1494875" lon="11.9209726"><ele>486.4</ele><time>2026-04-04T14:49:12.233Z</time></trkpt><trkpt lat="42.1495624" lon="11.9208956"><ele>488.0</ele><time>2026-04-04T14:49:13.225Z</time></trkpt><trkpt lat="42.1496176" lon="11.9208046"><ele>489.66666666666663</ele><time>2026-04-04T14:49:14.22Z</time></trkpt><trkpt lat="42.1496627" lon="11.9207075"><ele>491.3333333333333</ele><time>2026-04-04T14:49:15.218Z</time></trkpt><trkpt lat="42.1496945" lon="11.9205974"><ele>493.0</ele><time>2026-04-04T14:49:16.225Z</time></trkpt><trkpt lat="42.1497057" lon="11.9204833"><ele>494.66666666666663</ele><time>2026-04-04T14:49:17.223Z</time></trkpt><trkpt lat="42.1497161" lon="11.9203714"><ele>496.3333333333333</ele><time>2026-04-04T14:49:18.225Z</time></trkpt><trkpt lat="42.1497325" lon="11.9202652"><ele>498.0</ele><time>2026-04-04T14:49:19.222Z</time></trkpt><trkpt lat="42.1497722" lon="11.920187"><ele>498.0</ele><time>2026-04-04T14:49:20.221Z</time></trkpt><trkpt lat="42.1498145" lon="11.9201022"><ele>497.99999999999994</ele><time>2026-04-04T14:49:21.22Z</time></trkpt><trkpt lat="42.1498895" lon="11.9200615"><ele>498.0</ele><time>2026-04-04T14:49:22.223Z</time></trkpt><trkpt lat="42.1499559" lon="11.9200388"><ele>498.0</ele><time>2026-04-04T14:49:23.222Z</time></trkpt><trkpt lat="42.150033" lon="11.9200443"><ele>497.99999999999994</ele><time>2026-04-04T14:49:24.221Z</time></trkpt><trkpt lat="42.1501089" lon="11.9200439"><ele>498.0</ele><time>2026-04-04T14:49:25.221Z</time></trkpt><trkpt lat="42.1501786" lon="11.9200405"><ele>498.0</ele><time>2026-04-04T14:49:26.224Z</time></trkpt><trkpt lat="42.1502629" lon="11.9200248"><ele>500.8333333333333</ele><time>2026-04-04T14:49:28.226Z</time></trkpt><trkpt lat="42.1503159" lon="11.9199669"><ele>503.66666666666663</ele><time>2026-04-04T14:49:39.244Z</time></trkpt><trkpt lat="42.1502696" lon="11.9198909"><ele>506.5</ele><time>2026-04-04T14:49:41.219Z</time></trkpt><trkpt lat="42.1501785" lon="11.9197493"><ele>509.3333333333333</ele><time>2026-04-04T14:49:43.227Z</time></trkpt><trkpt lat="42.1501355" lon="11.9196695"><ele>512.1666666666666</ele><time>2026-04-04T14:49:44.221Z</time></trkpt><trkpt lat="42.1500853" lon="11.9195863"><ele>515.0</ele><time>2026-04-04T14:49:45.226Z</time></trkpt><trkpt lat="42.1500284" lon="11.9194871"><ele>515.0</ele><time>2026-04-04T14:49:46.222Z</time></trkpt><trkpt lat="42.1499628" lon="11.9193843"><ele>515.0</ele><time>2026-04-04T14:49:47.229Z</time></trkpt><trkpt lat="42.1499044" lon="11.9192838"><ele>515.0</ele><time>2026-04-04T14:49:48.226Z</time></trkpt><trkpt lat="42.1498493" lon="11.9191872"><ele>515.0</ele><time>2026-04-04T14:49:49.222Z</time></trkpt><trkpt lat="42.1497919" lon="11.9190864"><ele>515.0</ele><time>2026-04-04T14:49:50.226Z</time></trkpt><trkpt lat="42.1497394" lon="11.9189857"><ele>515.6</ele><time>2026-04-04T14:49:51.225Z</time></trkpt><trkpt lat="42.1496798" lon="11.9188743"><ele>516.2</ele><time>2026-04-04T14:49:52.227Z</time></trkpt><trkpt lat="42.1496128" lon="11.9187663"><ele>516.8</ele><time>2026-04-04T14:49:53.225Z</time></trkpt><trkpt lat="42.1495514" lon="11.9186624"><ele>517.4</ele><time>2026-04-04T14:49:54.223Z</time></trkpt><trkpt lat="42.1494853" lon="11.9185664"><ele>518.0</ele><time>2026-04-04T14:49:55.22Z</time></trkpt><trkpt lat="42.149415" lon="11.9184747"><ele>517.6</ele><time>2026-04-04T14:49:56.232Z</time></trkpt><trkpt lat="42.1493396" lon="11.9183916"><ele>517.1999999999999</ele><time>2026-04-04T14:49:57.223Z</time></trkpt><trkpt lat="42.1492547" lon="11.9183176"><ele>516.8</ele><time>2026-04-04T14:49:58.225Z</time></trkpt><trkpt lat="42.1491702" lon="11.9182466"><ele>516.4</ele><time>2026-04-04T14:49:59.234Z</time></trkpt><trkpt lat="42.1490844" lon="11.9181794"><ele>516.0</ele><time>2026-04-04T14:50:00.222Z</time></trkpt><trkpt lat="42.1490024" lon="11.9181105"><ele>516.0</ele><time>2026-04-04T14:50:01.223Z</time></trkpt><trkpt lat="42.1489175" lon="11.9180389"><ele>516.0</ele><time>2026-04-04T14:50:02.225Z</time></trkpt><trkpt lat="42.1488357" lon="11.9179671"><ele>516.0</ele><time>2026-04-04T14:50:03.228Z</time></trkpt><trkpt lat="42.148773" lon="11.9179035"><ele>516.0</ele><time>2026-04-04T14:50:04.232Z</time></trkpt><trkpt lat="42.1487239" lon="11.9178263"><ele>516.0</ele><time>2026-04-04T14:50:05.228Z</time></trkpt><trkpt lat="42.1486867" lon="11.9177352"><ele>516.0</ele><time>2026-04-04T14:50:06.219Z</time></trkpt><trkpt lat="42.1486584" lon="11.9176291"><ele>517.5</ele><time>2026-04-04T14:50:07.226Z</time></trkpt><trkpt lat="42.1486338" lon="11.9175085"><ele>519.0</ele><time>2026-04-04T14:50:08.224Z</time></trkpt><trkpt lat="42.1486244" lon="11.9173904"><ele>520.5</ele><time>2026-04-04T14:50:09.22Z</time></trkpt><trkpt lat="42.1486211" lon="11.917279"><ele>522.0</ele><time>2026-04-04T14:50:10.224Z</time></trkpt><trkpt lat="42.148638" lon="11.9171754"><ele>523.5</ele><time>2026-04-04T14:50:11.23Z</time></trkpt><trkpt lat="42.1486564" lon="11.9170679"><ele>525.0</ele><time>2026-04-04T14:50:12.221Z</time></trkpt><trkpt lat="42.1487232" lon="11.9169757"><ele>525.0</ele><time>2026-04-04T14:50:13.234Z</time></trkpt><trkpt lat="42.1487938" lon="11.9169085"><ele>525.0</ele><time>2026-04-04T14:50:14.224Z</time></trkpt><trkpt lat="42.1488724" lon="11.9168586"><ele>525.0</ele><time>2026-04-04T14:50:15.22Z</time></trkpt><trkpt lat="42.1489692" lon="11.9168178"><ele>525.0</ele><time>2026-04-04T14:50:16.227Z</time></trkpt><trkpt lat="42.1490725" lon="11.9167737"><ele>525.0</ele><time>2026-04-04T14:50:17.223Z</time></trkpt><trkpt lat="42.1491803" lon="11.9167294"><ele>525.2</ele><time>2026-04-04T14:50:18.223Z</time></trkpt><trkpt lat="42.149287" lon="11.916674"><ele>525.4</ele><time>2026-04-04T14:50:19.219Z</time></trkpt><trkpt lat="42.1493921" lon="11.916622"><ele>525.6</ele><time>2026-04-04T14:50:20.221Z</time></trkpt><trkpt lat="42.1494891" lon="11.9165666"><ele>525.8</ele><time>2026-04-04T14:50:21.22Z</time></trkpt><trkpt lat="42.1495764" lon="11.9164962"><ele>526.0</ele><time>2026-04-04T14:50:22.225Z</time></trkpt><trkpt lat="42.1496534" lon="11.9164088"><ele>526.0</ele><time>2026-04-04T14:50:23.225Z</time></trkpt><trkpt lat="42.1497181" lon="11.9163087"><ele>526.0</ele><time>2026-04-04T14:50:24.229Z</time></trkpt><trkpt lat="42.1497785" lon="11.916193"><ele>526.0</ele><time>2026-04-04T14:50:25.222Z</time></trkpt><trkpt lat="42.1498362" lon="11.9160618"><ele>526.0</ele><time>2026-04-04T14:50:26.226Z</time></trkpt><trkpt lat="42.1498786" lon="11.9159424"><ele>526.0</ele><time>2026-04-04T14:50:27.222Z</time></trkpt><trkpt lat="42.1499074" lon="11.9158108"><ele>530.2</ele><time>2026-04-04T14:50:28.224Z</time></trkpt><trkpt lat="42.1499199" lon="11.9156709"><ele>534.4000000000001</ele><time>2026-04-04T14:50:29.22Z</time></trkpt><trkpt lat="42.149917" lon="11.9155289"><ele>538.6</ele><time>2026-04-04T14:50:30.235Z</time></trkpt><trkpt lat="42.1499094" lon="11.9153824"><ele>542.8000000000001</ele><time>2026-04-04T14:50:31.228Z</time></trkpt><trkpt lat="42.149906" lon="11.9152437"><ele>547.0</ele><time>2026-04-04T14:50:32.224Z</time></trkpt><trkpt lat="42.1499046" lon="11.9150972"><ele>547.2</ele><time>2026-04-04T14:50:33.229Z</time></trkpt><trkpt lat="42.1499198" lon="11.9149505"><ele>547.4000000000001</ele><time>2026-04-04T14:50:34.222Z</time></trkpt><trkpt lat="42.149939" lon="11.9148039"><ele>547.5999999999999</ele><time>2026-04-04T14:50:35.221Z</time></trkpt><trkpt lat="42.149946" lon="11.9146489"><ele>547.8</ele><time>2026-04-04T14:50:36.227Z</time></trkpt><trkpt lat="42.1499607" lon="11.9144967"><ele>548.0</ele><time>2026-04-04T14:50:37.221Z</time></trkpt><trkpt lat="42.1499716" lon="11.9143287"><ele>547.5</ele><time>2026-04-04T14:50:38.225Z</time></trkpt><trkpt lat="42.1499778" lon="11.9141604"><ele>547.0</ele><time>2026-04-04T14:50:39.226Z</time></trkpt><trkpt lat="42.1499786" lon="11.9139898"><ele>546.5</ele><time>2026-04-04T14:50:40.22Z</time></trkpt><trkpt lat="42.1499777" lon="11.9138311"><ele>546.0</ele><time>2026-04-04T14:50:41.224Z</time></trkpt><trkpt lat="42.1499718" lon="11.9136866"><ele>546.0</ele><time>2026-04-04T14:50:42.221Z</time></trkpt><trkpt lat="42.1499402" lon="11.9135609"><ele>546.0</ele><time>2026-04-04T14:50:43.229Z</time></trkpt><trkpt lat="42.1498903" lon="11.9134481"><ele>546.0</ele><time>2026-04-04T14:50:44.22Z</time></trkpt><trkpt lat="42.1498424" lon="11.9133385"><ele>546.0</ele><time>2026-04-04T14:50:45.233Z</time></trkpt><trkpt lat="42.1497515" lon="11.9132592"><ele>546.0</ele><time>2026-04-04T14:50:46.228Z</time></trkpt><trkpt lat="42.1496729" lon="11.9131643"><ele>543.25</ele><time>2026-04-04T14:50:47.238Z</time></trkpt><trkpt lat="42.1495858" lon="11.9130539"><ele>540.5</ele><time>2026-04-04T14:50:48.22Z</time></trkpt><trkpt lat="42.149507" lon="11.9129388"><ele>537.75</ele><time>2026-04-04T14:50:49.222Z</time></trkpt><trkpt lat="42.1494466" lon="11.9128132"><ele>535.0</ele><time>2026-04-04T14:50:50.226Z</time></trkpt><trkpt lat="42.1493885" lon="11.9126735"><ele>537.25</ele><time>2026-04-04T14:50:51.224Z</time></trkpt><trkpt lat="42.1493447" lon="11.9125293"><ele>539.5</ele><time>2026-04-04T14:50:52.222Z</time></trkpt><trkpt lat="42.1493001" lon="11.9123792"><ele>541.75</ele><time>2026-04-04T14:50:53.224Z</time></trkpt><trkpt lat="42.1492624" lon="11.9122255"><ele>544.0</ele><time>2026-04-04T14:50:54.223Z</time></trkpt><trkpt lat="42.1492337" lon="11.9120905"><ele>544.0</ele><time>2026-04-04T14:50:55.221Z</time></trkpt><trkpt lat="42.1492178" lon="11.9119683"><ele>544.0</ele><time>2026-04-04T14:50:56.222Z</time></trkpt><trkpt lat="42.149193" lon="11.9118535"><ele>544.0</ele><time>2026-04-04T14:50:57.227Z</time></trkpt><trkpt lat="42.1491556" lon="11.9117333"><ele>544.0</ele><time>2026-04-04T14:50:58.222Z</time></trkpt><trkpt lat="42.1491072" lon="11.9116034"><ele>544.0</ele><time>2026-04-04T14:50:59.224Z</time></trkpt><trkpt lat="42.1490466" lon="11.9114649"><ele>543.2</ele><time>2026-04-04T14:51:00.228Z</time></trkpt><trkpt lat="42.1489821" lon="11.9113175"><ele>542.4</ele><time>2026-04-04T14:51:01.219Z</time></trkpt><trkpt lat="42.1489171" lon="11.9111866"><ele>541.6</ele><time>2026-04-04T14:51:02.228Z</time></trkpt><trkpt lat="42.1488544" lon="11.9110601"><ele>540.8</ele><time>2026-04-04T14:51:03.23Z</time></trkpt><trkpt lat="42.1488059" lon="11.9109587"><ele>540.0</ele><time>2026-04-04T14:51:04.22Z</time></trkpt><trkpt lat="42.1487444" lon="11.9108532"><ele>540.0</ele><time>2026-04-04T14:51:05.231Z</time></trkpt><trkpt lat="42.1486803" lon="11.9107503"><ele>540.0</ele><time>2026-04-04T14:51:06.221Z</time></trkpt><trkpt lat="42.1486108" lon="11.9106507"><ele>540.0</ele><time>2026-04-04T14:51:07.224Z</time></trkpt><trkpt lat="42.1485278" lon="11.910556"><ele>540.0</ele><time>2026-04-04T14:51:08.226Z</time></trkpt><trkpt lat="42.1484543" lon="11.9104689"><ele>540.0</ele><time>2026-04-04T14:51:09.222Z</time></trkpt><trkpt lat="42.1483862" lon="11.9103925"><ele>540.0</ele><time>2026-04-04T14:51:10.227Z</time></trkpt><trkpt lat="42.1483237" lon="11.910305"><ele>540.0</ele><time>2026-04-04T14:51:11.227Z</time></trkpt><trkpt lat="42.1482567" lon="11.9102181"><ele>540.0</ele><time>2026-04-04T14:51:12.225Z</time></trkpt><trkpt lat="42.1481961" lon="11.9101298"><ele>540.0</ele><time>2026-04-04T14:51:13.224Z</time></trkpt><trkpt lat="42.1481433" lon="11.910026"><ele>540.0</ele><time>2026-04-04T14:51:14.233Z</time></trkpt><trkpt lat="42.1480979" lon="11.9099165"><ele>536.2</ele><time>2026-04-04T14:51:15.228Z</time></trkpt><trkpt lat="42.1480464" lon="11.9097986"><ele>532.4</ele><time>2026-04-04T14:51:16.225Z</time></trkpt><trkpt lat="42.1479926" lon="11.9096772"><ele>528.6</ele><time>2026-04-04T14:51:17.228Z</time></trkpt><trkpt lat="42.1479428" lon="11.9095562"><ele>524.8</ele><time>2026-04-04T14:51:18.22Z</time></trkpt><trkpt lat="42.1478992" lon="11.9094482"><ele>521.0</ele><time>2026-04-04T14:51:19.222Z</time></trkpt><trkpt lat="42.1478571" lon="11.9093439"><ele>521.8333333333333</ele><time>2026-04-04T14:51:20.226Z</time></trkpt><trkpt lat="42.1478157" lon="11.9092422"><ele>522.6666666666666</ele><time>2026-04-04T14:51:21.223Z</time></trkpt><trkpt lat="42.1477776" lon="11.9091446"><ele>523.5</ele><time>2026-04-04T14:51:22.22Z</time></trkpt><trkpt lat="42.1477525" lon="11.9090508"><ele>524.3333333333334</ele><time>2026-04-04T14:51:23.226Z</time></trkpt><trkpt lat="42.1477439" lon="11.9089515"><ele>525.1666666666667</ele><time>2026-04-04T14:51:24.223Z</time></trkpt><trkpt lat="42.1477542" lon="11.9088546"><ele>526.0</ele><time>2026-04-04T14:51:25.225Z</time></trkpt><trkpt lat="42.1477816" lon="11.9087714"><ele>526.0</ele><time>2026-04-04T14:51:26.222Z</time></trkpt><trkpt lat="42.1478228" lon="11.9086872"><ele>526.0</ele><time>2026-04-04T14:51:27.223Z</time></trkpt><trkpt lat="42.1478719" lon="11.9085948"><ele>526.0</ele><time>2026-04-04T14:51:28.225Z</time></trkpt><trkpt lat="42.147917" lon="11.9084913"><ele>526.0</ele><time>2026-04-04T14:51:29.224Z</time></trkpt><trkpt lat="42.1479647" lon="11.9083853"><ele>526.0</ele><time>2026-04-04T14:51:30.219Z</time></trkpt><trkpt lat="42.1479717" lon="11.9082645"><ele>526.0</ele><time>2026-04-04T14:51:31.225Z</time></trkpt><trkpt lat="42.1479847" lon="11.9081462"><ele>525.6</ele><time>2026-04-04T14:51:32.219Z</time></trkpt><trkpt lat="42.1479815" lon="11.9080173"><ele>525.2</ele><time>2026-04-04T14:51:33.223Z</time></trkpt><trkpt lat="42.147956" lon="11.9078849"><ele>524.8</ele><time>2026-04-04T14:51:34.225Z</time></trkpt><trkpt lat="42.1479283" lon="11.9077488"><ele>524.4</ele><time>2026-04-04T14:51:35.224Z</time></trkpt><trkpt lat="42.147921" lon="11.9076236"><ele>524.0</ele><time>2026-04-04T14:51:36.223Z</time></trkpt><trkpt lat="42.1479174" lon="11.9074919"><ele>523.4</ele><time>2026-04-04T14:51:37.226Z</time></trkpt><trkpt lat="42.1479167" lon="11.907366"><ele>522.8</ele><time>2026-04-04T14:51:38.22Z</time></trkpt><trkpt lat="42.1479168" lon="11.9072475"><ele>522.2</ele><time>2026-04-04T14:51:39.223Z</time></trkpt><trkpt lat="42.1479177" lon="11.9071264"><ele>521.6</ele><time>2026-04-04T14:51:40.22Z</time></trkpt><trkpt lat="42.1479201" lon="11.9070084"><ele>521.0</ele><time>2026-04-04T14:51:41.228Z</time></trkpt><trkpt lat="42.1479119" lon="11.9068787"><ele>521.0</ele><time>2026-04-04T14:51:42.218Z</time></trkpt><trkpt lat="42.1478896" lon="11.9067482"><ele>521.0</ele><time>2026-04-04T14:51:43.231Z</time></trkpt><trkpt lat="42.1478612" lon="11.9066236"><ele>521.0</ele><time>2026-04-04T14:51:44.221Z</time></trkpt><trkpt lat="42.1478391" lon="11.9065103"><ele>521.0</ele><time>2026-04-04T14:51:45.225Z</time></trkpt><trkpt lat="42.1478223" lon="11.9063994"><ele>521.0</ele><time>2026-04-04T14:51:46.221Z</time></trkpt><trkpt lat="42.1478185" lon="11.906299"><ele>521.0</ele><time>2026-04-04T14:51:47.224Z</time></trkpt><trkpt lat="42.1478201" lon="11.9061977"><ele>521.2</ele><time>2026-04-04T14:51:48.22Z</time></trkpt><trkpt lat="42.1478324" lon="11.9060966"><ele>521.4000000000001</ele><time>2026-04-04T14:51:49.221Z</time></trkpt><trkpt lat="42.1478477" lon="11.905984"><ele>521.6</ele><time>2026-04-04T14:51:50.224Z</time></trkpt><trkpt lat="42.1478782" lon="11.9058661"><ele>521.8000000000001</ele><time>2026-04-04T14:51:51.222Z</time></trkpt><trkpt lat="42.1479082" lon="11.9057386"><ele>522.0</ele><time>2026-04-04T14:51:52.22Z</time></trkpt><trkpt lat="42.1479326" lon="11.9056036"><ele>521.4</ele><time>2026-04-04T14:51:53.223Z</time></trkpt><trkpt lat="42.147945" lon="11.9054559"><ele>520.8000000000001</ele><time>2026-04-04T14:51:54.221Z</time></trkpt><trkpt lat="42.1479483" lon="11.9053075"><ele>520.2</ele><time>2026-04-04T14:51:55.227Z</time></trkpt><trkpt lat="42.1479504" lon="11.9051613"><ele>519.6</ele><time>2026-04-04T14:51:56.229Z</time></trkpt><trkpt lat="42.147952" lon="11.9050064"><ele>519.0</ele><time>2026-04-04T14:51:57.226Z</time></trkpt><trkpt lat="42.1479573" lon="11.9048414"><ele>517.2</ele><time>2026-04-04T14:51:58.226Z</time></trkpt><trkpt lat="42.1479572" lon="11.9046821"><ele>515.4</ele><time>2026-04-04T14:51:59.226Z</time></trkpt><trkpt lat="42.1479616" lon="11.9045295"><ele>513.6</ele><time>2026-04-04T14:52:00.223Z</time></trkpt><trkpt lat="42.1479686" lon="11.9043797"><ele>511.8</ele><time>2026-04-04T14:52:01.223Z</time></trkpt><trkpt lat="42.1479899" lon="11.904253"><ele>510.0</ele><time>2026-04-04T14:52:02.227Z</time></trkpt><trkpt lat="42.1480037" lon="11.9041186"><ele>508.4</ele><time>2026-04-04T14:52:03.223Z</time></trkpt><trkpt lat="42.1480196" lon="11.9039915"><ele>506.8</ele><time>2026-04-04T14:52:04.218Z</time></trkpt><trkpt lat="42.1480318" lon="11.9038515"><ele>505.20000000000005</ele><time>2026-04-04T14:52:05.218Z</time></trkpt><trkpt lat="42.1480213" lon="11.9037083"><ele>503.6</ele><time>2026-04-04T14:52:06.229Z</time></trkpt><trkpt lat="42.1479977" lon="11.9035742"><ele>502.0</ele><time>2026-04-04T14:52:07.223Z</time></trkpt><trkpt lat="42.1479659" lon="11.9034433"><ele>501.40000000000003</ele><time>2026-04-04T14:52:08.229Z</time></trkpt><trkpt lat="42.1479367" lon="11.9033043"><ele>500.80000000000007</ele><time>2026-04-04T14:52:09.22Z</time></trkpt><trkpt lat="42.1479139" lon="11.9031612"><ele>500.2</ele><time>2026-04-04T14:52:10.225Z</time></trkpt><trkpt lat="42.147898" lon="11.9030328"><ele>499.6</ele><time>2026-04-04T14:52:11.223Z</time></trkpt><trkpt lat="42.1478812" lon="11.902894"><ele>499.0</ele><time>2026-04-04T14:52:12.22Z</time></trkpt><trkpt lat="42.1479094" lon="11.9027553"><ele>499.0</ele><time>2026-04-04T14:52:13.228Z</time></trkpt><trkpt lat="42.1479374" lon="11.9026212"><ele>499.0</ele><time>2026-04-04T14:52:14.222Z</time></trkpt><trkpt lat="42.1479806" lon="11.9024906"><ele>499.0</ele><time>2026-04-04T14:52:15.22Z</time></trkpt><trkpt lat="42.1480238" lon="11.9023804"><ele>499.0</ele><time>2026-04-04T14:52:16.225Z</time></trkpt><trkpt lat="42.148121" lon="11.9023123"><ele>499.0</ele><time>2026-04-04T14:52:17.22Z</time></trkpt><trkpt lat="42.1482052" lon="11.90223"><ele>499.6</ele><time>2026-04-04T14:52:18.221Z</time></trkpt><trkpt lat="42.1482934" lon="11.9021438"><ele>500.2</ele><time>2026-04-04T14:52:19.225Z</time></trkpt><trkpt lat="42.1483825" lon="11.9020472"><ele>500.80000000000007</ele><time>2026-04-04T14:52:20.222Z</time></trkpt><trkpt lat="42.1484552" lon="11.9019395"><ele>501.40000000000003</ele><time>2026-04-04T14:52:21.224Z</time></trkpt><trkpt lat="42.1485075" lon="11.9018202"><ele>502.0</ele><time>2026-04-04T14:52:22.225Z</time></trkpt><trkpt lat="42.1485408" lon="11.9016984"><ele>502.0</ele><time>2026-04-04T14:52:23.228Z</time></trkpt><trkpt lat="42.1485375" lon="11.9015649"><ele>502.00000000000006</ele><time>2026-04-04T14:52:24.222Z</time></trkpt><trkpt lat="42.1485196" lon="11.9014367"><ele>502.00000000000006</ele><time>2026-04-04T14:52:25.224Z</time></trkpt><trkpt lat="42.1484955" lon="11.9013157"><ele>502.0</ele><time>2026-04-04T14:52:26.221Z</time></trkpt><trkpt lat="42.1484666" lon="11.9011908"><ele>502.0</ele><time>2026-04-04T14:52:27.221Z</time></trkpt><trkpt lat="42.148444" lon="11.9010682"><ele>502.0</ele><time>2026-04-04T14:52:28.226Z</time></trkpt><trkpt lat="42.1484163" lon="11.9009299"><ele>502.0</ele><time>2026-04-04T14:52:29.226Z</time></trkpt><trkpt lat="42.1483713" lon="11.900781"><ele>502.0</ele><time>2026-04-04T14:52:30.219Z</time></trkpt><trkpt lat="42.148327" lon="11.9006336"><ele>502.0</ele><time>2026-04-04T14:52:31.227Z</time></trkpt><trkpt lat="42.1482812" lon="11.9004811"><ele>501.0</ele><time>2026-04-04T14:52:32.22Z</time></trkpt><trkpt lat="42.1482378" lon="11.9003391"><ele>500.00000000000006</ele><time>2026-04-04T14:52:33.216Z</time></trkpt><trkpt lat="42.1481953" lon="11.9002075"><ele>499.00000000000006</ele><time>2026-04-04T14:52:34.221Z</time></trkpt><trkpt lat="42.1481596" lon="11.9000843"><ele>498.0</ele><time>2026-04-04T14:52:35.224Z</time></trkpt><trkpt lat="42.1481307" lon="11.8999687"><ele>497.0</ele><time>2026-04-04T14:52:36.227Z</time></trkpt><trkpt lat="42.1481226" lon="11.8998515"><ele>496.3333333333333</ele><time>2026-04-04T14:52:37.22Z</time></trkpt><trkpt lat="42.1481342" lon="11.899726"><ele>495.66666666666663</ele><time>2026-04-04T14:52:38.22Z</time></trkpt><trkpt lat="42.1481747" lon="11.8996268"><ele>495.0</ele><time>2026-04-04T14:52:39.238Z</time></trkpt><trkpt lat="42.1482383" lon="11.8995496"><ele>494.33333333333337</ele><time>2026-04-04T14:52:40.234Z</time></trkpt><trkpt lat="42.1483137" lon="11.8994888"><ele>493.6666666666667</ele><time>2026-04-04T14:52:41.229Z</time></trkpt><trkpt lat="42.1483942" lon="11.8994345"><ele>493.0</ele><time>2026-04-04T14:52:42.222Z</time></trkpt><trkpt lat="42.1484787" lon="11.8993715"><ele>493.0</ele><time>2026-04-04T14:52:43.233Z</time></trkpt><trkpt lat="42.1485711" lon="11.8993051"><ele>492.99999999999994</ele><time>2026-04-04T14:52:44.225Z</time></trkpt><trkpt lat="42.1486682" lon="11.8992421"><ele>492.99999999999994</ele><time>2026-04-04T14:52:45.224Z</time></trkpt><trkpt lat="42.1487656" lon="11.8991798"><ele>493.0</ele><time>2026-04-04T14:52:46.231Z</time></trkpt><trkpt lat="42.1488707" lon="11.8991202"><ele>493.0</ele><time>2026-04-04T14:52:47.22Z</time></trkpt><trkpt lat="42.1489699" lon="11.8990491"><ele>491.4</ele><time>2026-04-04T14:52:48.229Z</time></trkpt><trkpt lat="42.1490745" lon="11.8989965"><ele>489.79999999999995</ele><time>2026-04-04T14:52:49.225Z</time></trkpt><trkpt lat="42.1491782" lon="11.8989705"><ele>488.2</ele><time>2026-04-04T14:52:50.234Z</time></trkpt><trkpt lat="42.1492773" lon="11.8989816"><ele>486.6</ele><time>2026-04-04T14:52:51.219Z</time></trkpt><trkpt lat="42.1493725" lon="11.8990208"><ele>485.0</ele><time>2026-04-04T14:52:52.232Z</time></trkpt><trkpt lat="42.1494662" lon="11.8990903"><ele>485.0</ele><time>2026-04-04T14:52:53.221Z</time></trkpt><trkpt lat="42.1495556" lon="11.8991742"><ele>485.0</ele><time>2026-04-04T14:52:54.222Z</time></trkpt><trkpt lat="42.149641" lon="11.8992602"><ele>485.0</ele><time>2026-04-04T14:52:55.227Z</time></trkpt><trkpt lat="42.1497206" lon="11.899339"><ele>485.0</ele><time>2026-04-04T14:52:56.223Z</time></trkpt><trkpt lat="42.1498002" lon="11.8994136"><ele>485.0</ele><time>2026-04-04T14:52:57.228Z</time></trkpt><trkpt lat="42.1498826" lon="11.8994796"><ele>488.4</ele><time>2026-04-04T14:52:58.223Z</time></trkpt><trkpt lat="42.1499649" lon="11.899522"><ele>491.8</ele><time>2026-04-04T14:52:59.22Z</time></trkpt><trkpt lat="42.1500506" lon="11.8995468"><ele>495.20000000000005</ele><time>2026-04-04T14:53:00.22Z</time></trkpt><trkpt lat="42.1501461" lon="11.8995536"><ele>498.6</ele><time>2026-04-04T14:53:01.24Z</time></trkpt><trkpt lat="42.1502451" lon="11.8995555"><ele>502.0</ele><time>2026-04-04T14:53:02.22Z</time></trkpt><trkpt lat="42.1503434" lon="11.8995553"><ele>501.99999999999994</ele><time>2026-04-04T14:53:03.224Z</time></trkpt><trkpt lat="42.1504292" lon="11.899542"><ele>502.0</ele><time>2026-04-04T14:53:04.225Z</time></trkpt><trkpt lat="42.150503" lon="11.8995091"><ele>501.99999999999994</ele><time>2026-04-04T14:53:05.236Z</time></trkpt><trkpt lat="42.1505552" lon="11.8994541"><ele>501.99999999999994</ele><time>2026-04-04T14:53:06.221Z</time></trkpt><trkpt lat="42.1505921" lon="11.8993764"><ele>502.0</ele><time>2026-04-04T14:53:07.222Z</time></trkpt><trkpt lat="42.1506183" lon="11.8992961"><ele>501.99999999999994</ele><time>2026-04-04T14:53:08.223Z</time></trkpt><trkpt lat="42.1506278" lon="11.8992109"><ele>501.99999999999994</ele><time>2026-04-04T14:53:09.231Z</time></trkpt><trkpt lat="42.1506288" lon="11.8990775"><ele>497.6666666666667</ele><time>2026-04-04T14:53:11.227Z</time></trkpt><trkpt lat="42.1505634" lon="11.8989941"><ele>493.33333333333337</ele><time>2026-04-04T14:53:13.229Z</time></trkpt><trkpt lat="42.1504972" lon="11.8989969"><ele>489.0</ele><time>2026-04-04T14:53:14.221Z</time></trkpt><trkpt lat="42.1504166" lon="11.8990156"><ele>484.66666666666663</ele><time>2026-04-04T14:53:15.224Z</time></trkpt><trkpt lat="42.1503325" lon="11.8990408"><ele>480.3333333333333</ele><time>2026-04-04T14:53:16.222Z</time></trkpt><trkpt lat="42.1502444" lon="11.8990655"><ele>476.0</ele><time>2026-04-04T14:53:17.227Z</time></trkpt><trkpt lat="42.1501469" lon="11.8990915"><ele>476.0</ele><time>2026-04-04T14:53:18.219Z</time></trkpt><trkpt lat="42.1500428" lon="11.8991153"><ele>476.0</ele><time>2026-04-04T14:53:19.228Z</time></trkpt><trkpt lat="42.1499377" lon="11.8991246"><ele>476.0</ele><time>2026-04-04T14:53:20.219Z</time></trkpt><trkpt lat="42.1498421" lon="11.8991123"><ele>476.0</ele><time>2026-04-04T14:53:21.224Z</time></trkpt><trkpt lat="42.1497517" lon="11.8990751"><ele>476.0</ele><time>2026-04-04T14:53:22.23Z</time></trkpt><trkpt lat="42.1496564" lon="11.8990114"><ele>477.8</ele><time>2026-04-04T14:53:23.229Z</time></trkpt><trkpt lat="42.1495679" lon="11.8989294"><ele>479.6</ele><time>2026-04-04T14:53:24.224Z</time></trkpt><trkpt lat="42.1494762" lon="11.8988439"><ele>481.4</ele><time>2026-04-04T14:53:25.223Z</time></trkpt><trkpt lat="42.1493774" lon="11.8987783"><ele>483.2</ele><time>2026-04-04T14:53:26.229Z</time></trkpt><trkpt lat="42.149274" lon="11.8987358"><ele>485.0</ele><time>2026-04-04T14:53:27.23Z</time></trkpt><trkpt lat="42.1491493" lon="11.8987043"><ele>485.25</ele><time>2026-04-04T14:53:28.221Z</time></trkpt><trkpt lat="42.1490235" lon="11.8986914"><ele>485.5</ele><time>2026-04-04T14:53:29.227Z</time></trkpt><trkpt lat="42.1488987" lon="11.8986897"><ele>485.75</ele><time>2026-04-04T14:53:30.221Z</time></trkpt><trkpt lat="42.1487875" lon="11.8986836"><ele>486.0</ele><time>2026-04-04T14:53:31.222Z</time></trkpt><trkpt lat="42.1486801" lon="11.8986579"><ele>486.0</ele><time>2026-04-04T14:53:32.227Z</time></trkpt><trkpt lat="42.1485906" lon="11.8986072"><ele>486.0</ele><time>2026-04-04T14:53:33.221Z</time></trkpt><trkpt lat="42.1485084" lon="11.8985343"><ele>486.0</ele><time>2026-04-04T14:53:34.22Z</time></trkpt><trkpt lat="42.1484345" lon="11.8984326"><ele>486.0</ele><time>2026-04-04T14:53:35.228Z</time></trkpt><trkpt lat="42.1483702" lon="11.8983111"><ele>486.0</ele><time>2026-04-04T14:53:36.222Z</time></trkpt><trkpt lat="42.1483184" lon="11.8981784"><ele>488.25</ele><time>2026-04-04T14:53:37.238Z</time></trkpt><trkpt lat="42.1482729" lon="11.8980256"><ele>490.5</ele><time>2026-04-04T14:53:38.225Z</time></trkpt><trkpt lat="42.1482201" lon="11.897869"><ele>492.75</ele><time>2026-04-04T14:53:39.244Z</time></trkpt><trkpt lat="42.1481713" lon="11.8977075"><ele>495.0</ele><time>2026-04-04T14:53:40.222Z</time></trkpt><trkpt lat="42.1481191" lon="11.897541"><ele>495.0</ele><time>2026-04-04T14:53:41.222Z</time></trkpt><trkpt lat="42.1480675" lon="11.8973722"><ele>495.0</ele><time>2026-04-04T14:53:42.219Z</time></trkpt><trkpt lat="42.1480191" lon="11.8971979"><ele>495.0</ele><time>2026-04-04T14:53:43.227Z</time></trkpt><trkpt lat="42.1479814" lon="11.897022"><ele>495.0</ele><time>2026-04-04T14:53:44.225Z</time></trkpt><trkpt lat="42.1479569" lon="11.8968369"><ele>490.75</ele><time>2026-04-04T14:53:45.22Z</time></trkpt><trkpt lat="42.147947" lon="11.8966595"><ele>486.5</ele><time>2026-04-04T14:53:46.227Z</time></trkpt><trkpt lat="42.147949" lon="11.8964941"><ele>482.25</ele><time>2026-04-04T14:53:47.226Z</time></trkpt><trkpt lat="42.1479465" lon="11.8963406"><ele>478.0</ele><time>2026-04-04T14:53:48.221Z</time></trkpt><trkpt lat="42.1479255" lon="11.8961898"><ele>478.0</ele><time>2026-04-04T14:53:49.228Z</time></trkpt><trkpt lat="42.1478817" lon="11.8960505"><ele>477.99999999999994</ele><time>2026-04-04T14:53:50.225Z</time></trkpt><trkpt lat="42.147827" lon="11.8959332"><ele>477.99999999999994</ele><time>2026-04-04T14:53:51.228Z</time></trkpt><trkpt lat="42.1477525" lon="11.8958316"><ele>478.0</ele><time>2026-04-04T14:53:52.226Z</time></trkpt><trkpt lat="42.1476588" lon="11.8957651"><ele>478.0</ele><time>2026-04-04T14:53:53.227Z</time></trkpt><trkpt lat="42.1475547" lon="11.8957294"><ele>472.75</ele><time>2026-04-04T14:53:54.228Z</time></trkpt><trkpt lat="42.1474467" lon="11.8957253"><ele>467.5</ele><time>2026-04-04T14:53:55.223Z</time></trkpt><trkpt lat="42.1473352" lon="11.8957515"><ele>462.25</ele><time>2026-04-04T14:53:56.221Z</time></trkpt><trkpt lat="42.1472278" lon="11.8958082"><ele>457.0</ele><time>2026-04-04T14:53:57.226Z</time></trkpt><trkpt lat="42.1471202" lon="11.8958835"><ele>460.25</ele><time>2026-04-04T14:53:58.225Z</time></trkpt><trkpt lat="42.147008" lon="11.8959642"><ele>463.5</ele><time>2026-04-04T14:53:59.221Z</time></trkpt><trkpt lat="42.1468912" lon="11.8960391"><ele>466.75</ele><time>2026-04-04T14:54:00.229Z</time></trkpt><trkpt lat="42.146776" lon="11.8961081"><ele>470.0</ele><time>2026-04-04T14:54:01.221Z</time></trkpt><trkpt lat="42.1466552" lon="11.8961739"><ele>468.75</ele><time>2026-04-04T14:54:02.219Z</time></trkpt><trkpt lat="42.1465362" lon="11.8962364"><ele>467.5</ele><time>2026-04-04T14:54:03.224Z</time></trkpt><trkpt lat="42.1464159" lon="11.8962904"><ele>466.25</ele><time>2026-04-04T14:54:04.223Z</time></trkpt><trkpt lat="42.1463051" lon="11.896333"><ele>465.0</ele><time>2026-04-04T14:54:05.224Z</time></trkpt><trkpt lat="42.1461957" lon="11.8963621"><ele>465.0</ele><time>2026-04-04T14:54:06.227Z</time></trkpt><trkpt lat="42.1460902" lon="11.8963823"><ele>465.0</ele><time>2026-04-04T14:54:07.224Z</time></trkpt><trkpt lat="42.1459943" lon="11.8963777"><ele>465.0</ele><time>2026-04-04T14:54:08.224Z</time></trkpt><trkpt lat="42.1458959" lon="11.8963486"><ele>465.0</ele><time>2026-04-04T14:54:09.228Z</time></trkpt><trkpt lat="42.1458099" lon="11.8963001"><ele>465.0</ele><time>2026-04-04T14:54:10.226Z</time></trkpt><trkpt lat="42.1457256" lon="11.8962059"><ele>464.5</ele><time>2026-04-04T14:54:11.219Z</time></trkpt><trkpt lat="42.145653" lon="11.8960902"><ele>464.0</ele><time>2026-04-04T14:54:12.221Z</time></trkpt><trkpt lat="42.1455865" lon="11.8959589"><ele>463.5</ele><time>2026-04-04T14:54:13.226Z</time></trkpt><trkpt lat="42.1455243" lon="11.8958225"><ele>463.0</ele><time>2026-04-04T14:54:14.221Z</time></trkpt><trkpt lat="42.1454499" lon="11.8956991"><ele>463.0</ele><time>2026-04-04T14:54:15.228Z</time></trkpt><trkpt lat="42.1453719" lon="11.8956044"><ele>463.0</ele><time>2026-04-04T14:54:16.222Z</time></trkpt><trkpt lat="42.1452731" lon="11.8955268"><ele>463.0</ele><time>2026-04-04T14:54:17.226Z</time></trkpt><trkpt lat="42.1451664" lon="11.8954638"><ele>463.0</ele><time>2026-04-04T14:54:18.222Z</time></trkpt><trkpt lat="42.1450483" lon="11.8954317"><ele>463.0</ele><time>2026-04-04T14:54:19.224Z</time></trkpt><trkpt lat="42.1449324" lon="11.8953991"><ele>462.99999999999994</ele><time>2026-04-04T14:54:20.222Z</time></trkpt><trkpt lat="42.1448304" lon="11.895339"><ele>462.99999999999994</ele><time>2026-04-04T14:54:21.22Z</time></trkpt><trkpt lat="42.1447474" lon="11.8952566"><ele>463.0</ele><time>2026-04-04T14:54:22.221Z</time></trkpt><trkpt lat="42.1446712" lon="11.8951475"><ele>463.0</ele><time>2026-04-04T14:54:23.225Z</time></trkpt><trkpt lat="42.1446149" lon="11.8950156"><ele>462.25</ele><time>2026-04-04T14:54:24.226Z</time></trkpt><trkpt lat="42.1445722" lon="11.8948699"><ele>461.5</ele><time>2026-04-04T14:54:25.221Z</time></trkpt><trkpt lat="42.1445494" lon="11.894715"><ele>460.75</ele><time>2026-04-04T14:54:26.223Z</time></trkpt><trkpt lat="42.1445464" lon="11.8945409"><ele>460.0</ele><time>2026-04-04T14:54:27.223Z</time></trkpt><trkpt lat="42.1445567" lon="11.8943623"><ele>461.75</ele><time>2026-04-04T14:54:28.223Z</time></trkpt><trkpt lat="42.1445905" lon="11.894185"><ele>463.5</ele><time>2026-04-04T14:54:29.222Z</time></trkpt><trkpt lat="42.1446372" lon="11.8940038"><ele>465.25</ele><time>2026-04-04T14:54:30.227Z</time></trkpt><trkpt lat="42.1446887" lon="11.8938246"><ele>467.0</ele><time>2026-04-04T14:54:31.221Z</time></trkpt><trkpt lat="42.1447374" lon="11.8936541"><ele>467.0</ele><time>2026-04-04T14:54:32.22Z</time></trkpt><trkpt lat="42.1447878" lon="11.8934741"><ele>467.0</ele><time>2026-04-04T14:54:33.218Z</time></trkpt><trkpt lat="42.1448415" lon="11.8932965"><ele>467.0</ele><time>2026-04-04T14:54:34.22Z</time></trkpt><trkpt lat="42.1448923" lon="11.8931112"><ele>467.0</ele><time>2026-04-04T14:54:35.22Z</time></trkpt><trkpt lat="42.144943" lon="11.8929258"><ele>461.5</ele><time>2026-04-04T14:54:36.228Z</time></trkpt><trkpt lat="42.144995" lon="11.8927391"><ele>456.0</ele><time>2026-04-04T14:54:37.224Z</time></trkpt><trkpt lat="42.145044" lon="11.8925606"><ele>450.5</ele><time>2026-04-04T14:54:38.228Z</time></trkpt><trkpt lat="42.1450895" lon="11.8923916"><ele>445.0</ele><time>2026-04-04T14:54:39.22Z</time></trkpt><trkpt lat="42.1451265" lon="11.8922324"><ele>445.0</ele><time>2026-04-04T14:54:40.225Z</time></trkpt><trkpt lat="42.14515" lon="11.8920622"><ele>445.0</ele><time>2026-04-04T14:54:41.231Z</time></trkpt><trkpt lat="42.1451604" lon="11.8918926"><ele>445.0</ele><time>2026-04-04T14:54:42.225Z</time></trkpt><trkpt lat="42.1451566" lon="11.8917185"><ele>445.0</ele><time>2026-04-04T14:54:43.221Z</time></trkpt><trkpt lat="42.1451444" lon="11.8915361"><ele>445.75</ele><time>2026-04-04T14:54:44.219Z</time></trkpt><trkpt lat="42.1451363" lon="11.8913477"><ele>446.5</ele><time>2026-04-04T14:54:45.217Z</time></trkpt><trkpt lat="42.1451257" lon="11.8911585"><ele>447.25</ele><time>2026-04-04T14:54:46.222Z</time></trkpt><trkpt lat="42.1451225" lon="11.8909789"><ele>448.0</ele><time>2026-04-04T14:54:47.229Z</time></trkpt><trkpt lat="42.1451415" lon="11.8908076"><ele>448.0</ele><time>2026-04-04T14:54:48.221Z</time></trkpt><trkpt lat="42.1451837" lon="11.8906377"><ele>448.0</ele><time>2026-04-04T14:54:49.225Z</time></trkpt><trkpt lat="42.1452351" lon="11.8904748"><ele>448.0</ele><time>2026-04-04T14:54:50.223Z</time></trkpt><trkpt lat="42.1452974" lon="11.8903184"><ele>448.0</ele><time>2026-04-04T14:54:51.223Z</time></trkpt><trkpt lat="42.1453468" lon="11.8901733"><ele>449.0</ele><time>2026-04-04T14:54:52.219Z</time></trkpt><trkpt lat="42.1453884" lon="11.89002"><ele>450.0</ele><time>2026-04-04T14:54:53.227Z</time></trkpt><trkpt lat="42.1454183" lon="11.8898568"><ele>451.0</ele><time>2026-04-04T14:54:54.22Z</time></trkpt><trkpt lat="42.1454203" lon="11.8896866"><ele>452.0</ele><time>2026-04-04T14:54:55.225Z</time></trkpt><trkpt lat="42.1454063" lon="11.8895144"><ele>452.0</ele><time>2026-04-04T14:54:56.226Z</time></trkpt><trkpt lat="42.1453867" lon="11.8893325"><ele>452.0</ele><time>2026-04-04T14:54:57.225Z</time></trkpt><trkpt lat="42.1453725" lon="11.8891505"><ele>452.0</ele><time>2026-04-04T14:54:58.221Z</time></trkpt><trkpt lat="42.145361" lon="11.8889836"><ele>452.0</ele><time>2026-04-04T14:54:59.222Z</time></trkpt><trkpt lat="42.1453387" lon="11.8888266"><ele>450.0</ele><time>2026-04-04T14:55:00.219Z</time></trkpt><trkpt lat="42.1452985" lon="11.8886841"><ele>448.00000000000006</ele><time>2026-04-04T14:55:01.22Z</time></trkpt><trkpt lat="42.1452446" lon="11.8885663"><ele>446.00000000000006</ele><time>2026-04-04T14:55:02.221Z</time></trkpt><trkpt lat="42.1451609" lon="11.8884719"><ele>444.0</ele><time>2026-04-04T14:55:03.222Z</time></trkpt><trkpt lat="42.1450584" lon="11.8884163"><ele>442.0</ele><time>2026-04-04T14:55:04.224Z</time></trkpt><trkpt lat="42.1449489" lon="11.888404"><ele>440.8</ele><time>2026-04-04T14:55:05.222Z</time></trkpt><trkpt lat="42.1448428" lon="11.8884248"><ele>439.6</ele><time>2026-04-04T14:55:06.221Z</time></trkpt><trkpt lat="42.1447435" lon="11.8884539"><ele>438.40000000000003</ele><time>2026-04-04T14:55:07.226Z</time></trkpt><trkpt lat="42.1446508" lon="11.888444"><ele>437.20000000000005</ele><time>2026-04-04T14:55:08.222Z</time></trkpt><trkpt lat="42.1445654" lon="11.888408"><ele>436.0</ele><time>2026-04-04T14:55:09.229Z</time></trkpt><trkpt lat="42.1444818" lon="11.8883303"><ele>436.0</ele><time>2026-04-04T14:55:10.22Z</time></trkpt><trkpt lat="42.1444381" lon="11.888232"><ele>436.0</ele><time>2026-04-04T14:55:11.225Z</time></trkpt><trkpt lat="42.1444175" lon="11.8881078"><ele>436.0</ele><time>2026-04-04T14:55:12.221Z</time></trkpt><trkpt lat="42.144431" lon="11.8879757"><ele>436.0</ele><time>2026-04-04T14:55:13.224Z</time></trkpt><trkpt lat="42.1444763" lon="11.8878439"><ele>436.0</ele><time>2026-04-04T14:55:14.224Z</time></trkpt><trkpt lat="42.1445291" lon="11.8877087"><ele>435.8</ele><time>2026-04-04T14:55:15.217Z</time></trkpt><trkpt lat="42.1445653" lon="11.8875741"><ele>435.6</ele><time>2026-04-04T14:55:16.224Z</time></trkpt><trkpt lat="42.1445784" lon="11.8874307"><ele>435.4</ele><time>2026-04-04T14:55:17.224Z</time></trkpt><trkpt lat="42.1445582" lon="11.8872982"><ele>435.2</ele><time>2026-04-04T14:55:18.22Z</time></trkpt><trkpt lat="42.144515" lon="11.8871845"><ele>435.0</ele><time>2026-04-04T14:55:19.22Z</time></trkpt><trkpt lat="42.1444457" lon="11.8870874"><ele>435.0</ele><time>2026-04-04T14:55:20.224Z</time></trkpt><trkpt lat="42.1443543" lon="11.887021"><ele>435.0</ele><time>2026-04-04T14:55:21.22Z</time></trkpt><trkpt lat="42.1442514" lon="11.8869663"><ele>435.0</ele><time>2026-04-04T14:55:22.224Z</time></trkpt><trkpt lat="42.1441543" lon="11.8868916"><ele>435.0</ele><time>2026-04-04T14:55:23.225Z</time></trkpt><trkpt lat="42.1440743" lon="11.8868017"><ele>435.0</ele><time>2026-04-04T14:55:24.22Z</time></trkpt><trkpt lat="42.1440052" lon="11.8866916"><ele>435.2</ele><time>2026-04-04T14:55:25.221Z</time></trkpt><trkpt lat="42.1439577" lon="11.8865636"><ele>435.4</ele><time>2026-04-04T14:55:26.218Z</time></trkpt><trkpt lat="42.1439404" lon="11.8864146"><ele>435.6</ele><time>2026-04-04T14:55:27.224Z</time></trkpt><trkpt lat="42.1439568" lon="11.8862651"><ele>435.8</ele><time>2026-04-04T14:55:28.223Z</time></trkpt><trkpt lat="42.1439997" lon="11.8861206"><ele>436.0</ele><time>2026-04-04T14:55:29.224Z</time></trkpt><trkpt lat="42.14407" lon="11.8859851"><ele>432.4</ele><time>2026-04-04T14:55:30.218Z</time></trkpt><trkpt lat="42.1441433" lon="11.8858571"><ele>428.8</ele><time>2026-04-04T14:55:31.225Z</time></trkpt><trkpt lat="42.1442058" lon="11.8857353"><ele>425.2</ele><time>2026-04-04T14:55:32.22Z</time></trkpt><trkpt lat="42.1442435" lon="11.8856046"><ele>421.59999999999997</ele><time>2026-04-04T14:55:33.217Z</time></trkpt><trkpt lat="42.1442562" lon="11.8854595"><ele>418.0</ele><time>2026-04-04T14:55:34.223Z</time></trkpt><trkpt lat="42.1442519" lon="11.8853054"><ele>418.0</ele><time>2026-04-04T14:55:35.222Z</time></trkpt><trkpt lat="42.144247" lon="11.8851469"><ele>418.0</ele><time>2026-04-04T14:55:36.226Z</time></trkpt><trkpt lat="42.1442691" lon="11.8849965"><ele>418.0</ele><time>2026-04-04T14:55:37.218Z</time></trkpt><trkpt lat="42.1443165" lon="11.8848547"><ele>418.0</ele><time>2026-04-04T14:55:38.221Z</time></trkpt><trkpt lat="42.1443951" lon="11.8847295"><ele>419.0</ele><time>2026-04-04T14:55:39.224Z</time></trkpt><trkpt lat="42.1444918" lon="11.8846243"><ele>420.0</ele><time>2026-04-04T14:55:40.228Z</time></trkpt><trkpt lat="42.1446021" lon="11.8845539"><ele>421.0</ele><time>2026-04-04T14:55:41.22Z</time></trkpt><trkpt lat="42.144709" lon="11.8845052"><ele>422.0</ele><time>2026-04-04T14:55:42.225Z</time></trkpt><trkpt lat="42.144814" lon="11.8844452"><ele>419.0</ele><time>2026-04-04T14:55:43.221Z</time></trkpt><trkpt lat="42.1449048" lon="11.8843735"><ele>416.0</ele><time>2026-04-04T14:55:44.231Z</time></trkpt><trkpt lat="42.1449777" lon="11.8842674"><ele>413.0</ele><time>2026-04-04T14:55:45.225Z</time></trkpt><trkpt lat="42.1450235" lon="11.8841341"><ele>410.0</ele><time>2026-04-04T14:55:46.221Z</time></trkpt><trkpt lat="42.1450313" lon="11.8839875"><ele>407.0</ele><time>2026-04-04T14:55:47.22Z</time></trkpt><trkpt lat="42.1450013" lon="11.8838545"><ele>407.0</ele><time>2026-04-04T14:55:48.224Z</time></trkpt><trkpt lat="42.1449389" lon="11.8837325"><ele>407.0</ele><time>2026-04-04T14:55:49.22Z</time></trkpt><trkpt lat="42.1448603" lon="11.883638"><ele>407.0</ele><time>2026-04-04T14:55:50.218Z</time></trkpt><trkpt lat="42.1447625" lon="11.8835544"><ele>407.0</ele><time>2026-04-04T14:55:51.224Z</time></trkpt><trkpt lat="42.1446546" lon="11.8834863"><ele>408.6</ele><time>2026-04-04T14:55:52.222Z</time></trkpt><trkpt lat="42.1445443" lon="11.8834189"><ele>410.20000000000005</ele><time>2026-04-04T14:55:53.218Z</time></trkpt><trkpt lat="42.1444418" lon="11.8833519"><ele>411.8</ele><time>2026-04-04T14:55:54.228Z</time></trkpt><trkpt lat="42.1443549" lon="11.8832678"><ele>413.4</ele><time>2026-04-04T14:55:55.224Z</time></trkpt><trkpt lat="42.1442934" lon="11.883168"><ele>415.0</ele><time>2026-04-04T14:55:56.226Z</time></trkpt><trkpt lat="42.1442588" lon="11.8830424"><ele>415.0</ele><time>2026-04-04T14:55:57.225Z</time></trkpt><trkpt lat="42.1442567" lon="11.8829002"><ele>415.0</ele><time>2026-04-04T14:55:58.223Z</time></trkpt><trkpt lat="42.1442889" lon="11.882778"><ele>415.0</ele><time>2026-04-04T14:55:59.226Z</time></trkpt><trkpt lat="42.1443513" lon="11.882667"><ele>415.0</ele><time>2026-04-04T14:56:00.226Z</time></trkpt><trkpt lat="42.1444324" lon="11.8825671"><ele>415.0</ele><time>2026-04-04T14:56:01.219Z</time></trkpt><trkpt lat="42.1445263" lon="11.8824635"><ele>414.5</ele><time>2026-04-04T14:56:02.224Z</time></trkpt><trkpt lat="42.1446276" lon="11.8823628"><ele>414.0</ele><time>2026-04-04T14:56:03.22Z</time></trkpt><trkpt lat="42.144733" lon="11.8822536"><ele>413.5</ele><time>2026-04-04T14:56:04.224Z</time></trkpt><trkpt lat="42.1448352" lon="11.8821416"><ele>413.0</ele><time>2026-04-04T14:56:05.226Z</time></trkpt><trkpt lat="42.1449325" lon="11.8820352"><ele>411.75</ele><time>2026-04-04T14:56:06.222Z</time></trkpt><trkpt lat="42.1450193" lon="11.8819138"><ele>410.5</ele><time>2026-04-04T14:56:07.222Z</time></trkpt><trkpt lat="42.145094" lon="11.8817829"><ele>409.25</ele><time>2026-04-04T14:56:08.227Z</time></trkpt><trkpt lat="42.1451403" lon="11.8816309"><ele>408.0</ele><time>2026-04-04T14:56:09.225Z</time></trkpt><trkpt lat="42.1451669" lon="11.8814677"><ele>408.0</ele><time>2026-04-04T14:56:10.225Z</time></trkpt><trkpt lat="42.1451939" lon="11.8812973"><ele>408.0</ele><time>2026-04-04T14:56:11.22Z</time></trkpt><trkpt lat="42.1452335" lon="11.8811282"><ele>408.0</ele><time>2026-04-04T14:56:12.225Z</time></trkpt><trkpt lat="42.1452871" lon="11.8809709"><ele>408.0</ele><time>2026-04-04T14:56:13.222Z</time></trkpt><trkpt lat="42.1453458" lon="11.880829"><ele>408.4</ele><time>2026-04-04T14:56:14.226Z</time></trkpt><trkpt lat="42.145401" lon="11.8806934"><ele>408.79999999999995</ele><time>2026-04-04T14:56:15.224Z</time></trkpt><trkpt lat="42.14545" lon="11.8805655"><ele>409.2</ele><time>2026-04-04T14:56:16.221Z</time></trkpt><trkpt lat="42.1454866" lon="11.8804412"><ele>409.6</ele><time>2026-04-04T14:56:17.223Z</time></trkpt><trkpt lat="42.1455096" lon="11.8803163"><ele>410.0</ele><time>2026-04-04T14:56:18.227Z</time></trkpt><trkpt lat="42.1455104" lon="11.8801936"><ele>408.3333333333333</ele><time>2026-04-04T14:56:19.223Z</time></trkpt><trkpt lat="42.1454903" lon="11.8800805"><ele>406.66666666666663</ele><time>2026-04-04T14:56:20.224Z</time></trkpt><trkpt lat="42.1454541" lon="11.8799879"><ele>405.0</ele><time>2026-04-04T14:56:21.223Z</time></trkpt><trkpt lat="42.1454091" lon="11.8799119"><ele>403.33333333333337</ele><time>2026-04-04T14:56:22.223Z</time></trkpt><trkpt lat="42.1453554" lon="11.8798533"><ele>401.6666666666667</ele><time>2026-04-04T14:56:23.218Z</time></trkpt><trkpt lat="42.145295" lon="11.8798107"><ele>400.0</ele><time>2026-04-04T14:56:24.222Z</time></trkpt><trkpt lat="42.1452199" lon="11.8797664"><ele>400.0</ele><time>2026-04-04T14:56:25.223Z</time></trkpt><trkpt lat="42.1451315" lon="11.8797158"><ele>400.0</ele><time>2026-04-04T14:56:26.223Z</time></trkpt><trkpt lat="42.1450328" lon="11.8796619"><ele>400.0</ele><time>2026-04-04T14:56:27.222Z</time></trkpt><trkpt lat="42.1449259" lon="11.8795968"><ele>400.0</ele><time>2026-04-04T14:56:28.221Z</time></trkpt><trkpt lat="42.1448098" lon="11.8795343"><ele>400.0</ele><time>2026-04-04T14:56:29.222Z</time></trkpt><trkpt lat="42.1446887" lon="11.8794734"><ele>400.25</ele><time>2026-04-04T14:56:30.223Z</time></trkpt><trkpt lat="42.1445693" lon="11.8794155"><ele>400.5</ele><time>2026-04-04T14:56:31.222Z</time></trkpt><trkpt lat="42.1444583" lon="11.8793747"><ele>400.75</ele><time>2026-04-04T14:56:32.224Z</time></trkpt><trkpt lat="42.1443402" lon="11.8793392"><ele>401.0</ele><time>2026-04-04T14:56:33.223Z</time></trkpt><trkpt lat="42.1442154" lon="11.8793243"><ele>401.0</ele><time>2026-04-04T14:56:34.221Z</time></trkpt><trkpt lat="42.1440832" lon="11.879332"><ele>401.0</ele><time>2026-04-04T14:56:35.226Z</time></trkpt><trkpt lat="42.1439511" lon="11.8793504"><ele>401.0</ele><time>2026-04-04T14:56:36.224Z</time></trkpt><trkpt lat="42.143826" lon="11.879364"><ele>401.0</ele><time>2026-04-04T14:56:37.218Z</time></trkpt><trkpt lat="42.1437056" lon="11.8793685"><ele>396.5</ele><time>2026-04-04T14:56:38.229Z</time></trkpt><trkpt lat="42.1435954" lon="11.8793496"><ele>392.0</ele><time>2026-04-04T14:56:39.223Z</time></trkpt><trkpt lat="42.1434826" lon="11.8793088"><ele>387.5</ele><time>2026-04-04T14:56:40.219Z</time></trkpt><trkpt lat="42.1433709" lon="11.8792514"><ele>383.0</ele><time>2026-04-04T14:56:41.221Z</time></trkpt><trkpt lat="42.1432564" lon="11.8791789"><ele>384.25</ele><time>2026-04-04T14:56:42.228Z</time></trkpt><trkpt lat="42.1431443" lon="11.8790962"><ele>385.5</ele><time>2026-04-04T14:56:43.225Z</time></trkpt><trkpt lat="42.1430318" lon="11.8790043"><ele>386.75</ele><time>2026-04-04T14:56:44.224Z</time></trkpt><trkpt lat="42.1429204" lon="11.8789046"><ele>388.0</ele><time>2026-04-04T14:56:45.222Z</time></trkpt><trkpt lat="42.1428039" lon="11.8788049"><ele>388.0</ele><time>2026-04-04T14:56:46.22Z</time></trkpt><trkpt lat="42.1426856" lon="11.8787024"><ele>388.0</ele><time>2026-04-04T14:56:47.22Z</time></trkpt><trkpt lat="42.142564" lon="11.8785889"><ele>388.0</ele><time>2026-04-04T14:56:48.225Z</time></trkpt><trkpt lat="42.1424402" lon="11.8784725"><ele>388.0</ele><time>2026-04-04T14:56:49.22Z</time></trkpt><trkpt lat="42.1423115" lon="11.8783552"><ele>392.6666666666667</ele><time>2026-04-04T14:56:50.226Z</time></trkpt><trkpt lat="42.1421782" lon="11.8782312"><ele>397.33333333333337</ele><time>2026-04-04T14:56:51.221Z</time></trkpt><trkpt lat="42.1420419" lon="11.8781049"><ele>402.0</ele><time>2026-04-04T14:56:52.222Z</time></trkpt><trkpt lat="42.141899" lon="11.8779803"><ele>402.0</ele><time>2026-04-04T14:56:53.222Z</time></trkpt><trkpt lat="42.1417659" lon="11.8778649"><ele>402.0</ele><time>2026-04-04T14:56:54.223Z</time></trkpt><trkpt lat="42.1416353" lon="11.8777429"><ele>402.0</ele><time>2026-04-04T14:56:55.225Z</time></trkpt><trkpt lat="42.1415019" lon="11.8776217"><ele>404.0</ele><time>2026-04-04T14:56:56.22Z</time></trkpt><trkpt lat="42.1413696" lon="11.877494"><ele>406.0</ele><time>2026-04-04T14:56:57.224Z</time></trkpt><trkpt lat="42.1412537" lon="11.8773821"><ele>408.0</ele><time>2026-04-04T14:56:58.224Z</time></trkpt><trkpt lat="42.1411546" lon="11.8772601"><ele>410.0</ele><time>2026-04-04T14:56:59.228Z</time></trkpt><trkpt lat="42.1410656" lon="11.8771296"><ele>410.0</ele><time>2026-04-04T14:57:00.225Z</time></trkpt><trkpt lat="42.1409855" lon="11.8769819"><ele>410.0</ele><time>2026-04-04T14:57:01.225Z</time></trkpt><trkpt lat="42.140916" lon="11.8768252"><ele>410.0</ele><time>2026-04-04T14:57:02.224Z</time></trkpt><trkpt lat="42.1408599" lon="11.8766589"><ele>410.0</ele><time>2026-04-04T14:57:03.221Z</time></trkpt><trkpt lat="42.1408088" lon="11.8764815"><ele>410.75</ele><time>2026-04-04T14:57:04.229Z</time></trkpt><trkpt lat="42.1407531" lon="11.8763018"><ele>411.5</ele><time>2026-04-04T14:57:05.225Z</time></trkpt><trkpt lat="42.1406981" lon="11.8761437"><ele>412.25</ele><time>2026-04-04T14:57:06.225Z</time></trkpt><trkpt lat="42.1406132" lon="11.8759847"><ele>413.0</ele><time>2026-04-04T14:57:07.231Z</time></trkpt><trkpt lat="42.1405338" lon="11.8758334"><ele>413.0</ele><time>2026-04-04T14:57:08.223Z</time></trkpt><trkpt lat="42.1404521" lon="11.8756767"><ele>413.0</ele><time>2026-04-04T14:57:09.217Z</time></trkpt><trkpt lat="42.1403881" lon="11.8755052"><ele>413.0</ele><time>2026-04-04T14:57:10.222Z</time></trkpt><trkpt lat="42.1403359" lon="11.8753272"><ele>413.0</ele><time>2026-04-04T14:57:11.225Z</time></trkpt><trkpt lat="42.1403035" lon="11.8751413"><ele>411.75</ele><time>2026-04-04T14:57:12.223Z</time></trkpt><trkpt lat="42.1402784" lon="11.8749582"><ele>410.5</ele><time>2026-04-04T14:57:13.223Z</time></trkpt><trkpt lat="42.1402561" lon="11.8747811"><ele>409.25</ele><time>2026-04-04T14:57:14.222Z</time></trkpt><trkpt lat="42.1402336" lon="11.874607"><ele>408.0</ele><time>2026-04-04T14:57:15.23Z</time></trkpt><trkpt lat="42.1401943" lon="11.8744419"><ele>408.0</ele><time>2026-04-04T14:57:16.219Z</time></trkpt><trkpt lat="42.1401364" lon="11.874284"><ele>408.0</ele><time>2026-04-04T14:57:17.228Z</time></trkpt><trkpt lat="42.1400615" lon="11.8741449"><ele>408.0</ele><time>2026-04-04T14:57:18.225Z</time></trkpt><trkpt lat="42.1399754" lon="11.8740148"><ele>408.0</ele><time>2026-04-04T14:57:19.224Z</time></trkpt><trkpt lat="42.1398728" lon="11.8738972"><ele>407.75</ele><time>2026-04-04T14:57:20.22Z</time></trkpt><trkpt lat="42.1397647" lon="11.8737735"><ele>407.5</ele><time>2026-04-04T14:57:21.231Z</time></trkpt><trkpt lat="42.1396503" lon="11.8736566"><ele>407.25</ele><time>2026-04-04T14:57:22.222Z</time></trkpt><trkpt lat="42.1395352" lon="11.8735363"><ele>407.0</ele><time>2026-04-04T14:57:23.222Z</time></trkpt><trkpt lat="42.1394244" lon="11.8734125"><ele>407.0</ele><time>2026-04-04T14:57:24.225Z</time></trkpt><trkpt lat="42.1393255" lon="11.8732783"><ele>407.0</ele><time>2026-04-04T14:57:25.228Z</time></trkpt><trkpt lat="42.1392415" lon="11.8731318"><ele>407.0</ele><time>2026-04-04T14:57:26.218Z</time></trkpt><trkpt lat="42.1391706" lon="11.8729705"><ele>407.0</ele><time>2026-04-04T14:57:27.22Z</time></trkpt><trkpt lat="42.1391109" lon="11.8728083"><ele>409.5</ele><time>2026-04-04T14:57:28.223Z</time></trkpt><trkpt lat="42.1390442" lon="11.8726441"><ele>412.0</ele><time>2026-04-04T14:57:29.221Z</time></trkpt><trkpt lat="42.1389896" lon="11.872475"><ele>414.5</ele><time>2026-04-04T14:57:30.223Z</time></trkpt><trkpt lat="42.1389285" lon="11.8723081"><ele>417.0</ele><time>2026-04-04T14:57:31.229Z</time></trkpt><trkpt lat="42.1388629" lon="11.872151"><ele>417.0</ele><time>2026-04-04T14:57:32.225Z</time></trkpt><trkpt lat="42.1387855" lon="11.8720114"><ele>417.0</ele><time>2026-04-04T14:57:33.228Z</time></trkpt><trkpt lat="42.1386913" lon="11.8718846"><ele>417.0</ele><time>2026-04-04T14:57:34.22Z</time></trkpt><trkpt lat="42.13859" lon="11.8717661"><ele>417.0</ele><time>2026-04-04T14:57:35.231Z</time></trkpt><trkpt lat="42.138484" lon="11.8716596"><ele>414.0</ele><time>2026-04-04T14:57:36.221Z</time></trkpt><trkpt lat="42.1383753" lon="11.8715833"><ele>411.0</ele><time>2026-04-04T14:57:37.232Z</time></trkpt><trkpt lat="42.1382611" lon="11.8715221"><ele>408.0</ele><time>2026-04-04T14:57:38.221Z</time></trkpt><trkpt lat="42.1381351" lon="11.8714851"><ele>405.0</ele><time>2026-04-04T14:57:39.228Z</time></trkpt><trkpt lat="42.1380051" lon="11.8714728"><ele>405.0</ele><time>2026-04-04T14:57:40.219Z</time></trkpt><trkpt lat="42.1378719" lon="11.8714883"><ele>405.0</ele><time>2026-04-04T14:57:41.223Z</time></trkpt><trkpt lat="42.1377344" lon="11.8715234"><ele>405.0</ele><time>2026-04-04T14:57:42.221Z</time></trkpt><trkpt lat="42.1375947" lon="11.8715726"><ele>405.0</ele><time>2026-04-04T14:57:43.218Z</time></trkpt><trkpt lat="42.1374636" lon="11.8716064"><ele>402.0</ele><time>2026-04-04T14:57:44.219Z</time></trkpt><trkpt lat="42.1373353" lon="11.8716249"><ele>399.0</ele><time>2026-04-04T14:57:45.231Z</time></trkpt><trkpt lat="42.1372042" lon="11.8716177"><ele>396.0</ele><time>2026-04-04T14:57:46.22Z</time></trkpt><trkpt lat="42.1370747" lon="11.8715884"><ele>393.0</ele><time>2026-04-04T14:57:47.222Z</time></trkpt><trkpt lat="42.1369466" lon="11.8715354"><ele>393.0</ele><time>2026-04-04T14:57:48.228Z</time></trkpt><trkpt lat="42.1368244" lon="11.8714578"><ele>393.0</ele><time>2026-04-04T14:57:49.223Z</time></trkpt><trkpt lat="42.1367031" lon="11.8713601"><ele>393.0</ele><time>2026-04-04T14:57:50.221Z</time></trkpt><trkpt lat="42.1365838" lon="11.8712505"><ele>393.0</ele><time>2026-04-04T14:57:51.223Z</time></trkpt><trkpt lat="42.1364669" lon="11.8711352"><ele>392.25</ele><time>2026-04-04T14:57:52.226Z</time></trkpt><trkpt lat="42.1363435" lon="11.8710228"><ele>391.5</ele><time>2026-04-04T14:57:53.222Z</time></trkpt><trkpt lat="42.1362238" lon="11.8709306"><ele>390.75</ele><time>2026-04-04T14:57:54.223Z</time></trkpt><trkpt lat="42.1361025" lon="11.8708471"><ele>390.0</ele><time>2026-04-04T14:57:55.224Z</time></trkpt><trkpt lat="42.1359757" lon="11.870766"><ele>390.0</ele><time>2026-04-04T14:57:56.229Z</time></trkpt><trkpt lat="42.1358466" lon="11.870685"><ele>390.0</ele><time>2026-04-04T14:57:57.218Z</time></trkpt><trkpt lat="42.1357151" lon="11.8706049"><ele>390.0</ele><time>2026-04-04T14:57:58.223Z</time></trkpt><trkpt lat="42.1355861" lon="11.870506"><ele>390.0</ele><time>2026-04-04T14:57:59.225Z</time></trkpt><trkpt lat="42.135456" lon="11.8704075"><ele>391.0</ele><time>2026-04-04T14:58:00.225Z</time></trkpt><trkpt lat="42.1353222" lon="11.8703052"><ele>392.0</ele><time>2026-04-04T14:58:01.224Z</time></trkpt><trkpt lat="42.1351918" lon="11.8702015"><ele>393.0</ele><time>2026-04-04T14:58:02.231Z</time></trkpt><trkpt lat="42.1350622" lon="11.8701043"><ele>393.0</ele><time>2026-04-04T14:58:03.224Z</time></trkpt><trkpt lat="42.1349274" lon="11.8700057"><ele>393.0</ele><time>2026-04-04T14:58:04.22Z</time></trkpt><trkpt lat="42.1347893" lon="11.8699202"><ele>393.0</ele><time>2026-04-04T14:58:05.224Z</time></trkpt><trkpt lat="42.134652" lon="11.8698479"><ele>389.3333333333333</ele><time>2026-04-04T14:58:06.227Z</time></trkpt><trkpt lat="42.1345077" lon="11.8697926"><ele>385.66666666666663</ele><time>2026-04-04T14:58:07.223Z</time></trkpt><trkpt lat="42.1343572" lon="11.8697398"><ele>382.0</ele><time>2026-04-04T14:58:08.219Z</time></trkpt><trkpt lat="42.1342016" lon="11.8696982"><ele>379.66666666666663</ele><time>2026-04-04T14:58:09.219Z</time></trkpt><trkpt lat="42.1340457" lon="11.8696704"><ele>377.3333333333333</ele><time>2026-04-04T14:58:10.22Z</time></trkpt><trkpt lat="42.1338802" lon="11.8696529"><ele>375.0</ele><time>2026-04-04T14:58:11.222Z</time></trkpt><trkpt lat="42.1337164" lon="11.8696308"><ele>375.0</ele><time>2026-04-04T14:58:12.224Z</time></trkpt><trkpt lat="42.1335493" lon="11.8696251"><ele>375.0</ele><time>2026-04-04T14:58:13.219Z</time></trkpt><trkpt lat="42.1333806" lon="11.8696124"><ele>375.0</ele><time>2026-04-04T14:58:14.222Z</time></trkpt><trkpt lat="42.1332095" lon="11.8696017"><ele>373.0</ele><time>2026-04-04T14:58:15.224Z</time></trkpt><trkpt lat="42.133044" lon="11.8695791"><ele>371.0</ele><time>2026-04-04T14:58:16.224Z</time></trkpt><trkpt lat="42.1328853" lon="11.8695628"><ele>369.0</ele><time>2026-04-04T14:58:17.223Z</time></trkpt><trkpt lat="42.1327375" lon="11.8695294"><ele>369.0</ele><time>2026-04-04T14:58:18.219Z</time></trkpt><trkpt lat="42.1325954" lon="11.8694742"><ele>369.0</ele><time>2026-04-04T14:58:19.224Z</time></trkpt><trkpt lat="42.132459" lon="11.8693967"><ele>369.0</ele><time>2026-04-04T14:58:20.219Z</time></trkpt><trkpt lat="42.1323374" lon="11.8692976"><ele>369.0</ele><time>2026-04-04T14:58:21.224Z</time></trkpt><trkpt lat="42.132233" lon="11.8691834"><ele>367.0</ele><time>2026-04-04T14:58:22.217Z</time></trkpt><trkpt lat="42.1321454" lon="11.8690557"><ele>365.0</ele><time>2026-04-04T14:58:23.223Z</time></trkpt><trkpt lat="42.1320608" lon="11.8689101"><ele>363.0</ele><time>2026-04-04T14:58:24.228Z</time></trkpt><trkpt lat="42.1319775" lon="11.8687632"><ele>361.0</ele><time>2026-04-04T14:58:25.227Z</time></trkpt><trkpt lat="42.1318946" lon="11.8686095"><ele>361.0</ele><time>2026-04-04T14:58:26.217Z</time></trkpt><trkpt lat="42.1318168" lon="11.8684472"><ele>361.0</ele><time>2026-04-04T14:58:27.228Z</time></trkpt><trkpt lat="42.1317475" lon="11.8682738"><ele>361.0</ele><time>2026-04-04T14:58:28.238Z</time></trkpt><trkpt lat="42.131679" lon="11.8680969"><ele>361.0</ele><time>2026-04-04T14:58:29.236Z</time></trkpt><trkpt lat="42.1316134" lon="11.8679345"><ele>360.5</ele><time>2026-04-04T14:58:30.221Z</time></trkpt><trkpt lat="42.1315313" lon="11.8677852"><ele>360.0</ele><time>2026-04-04T14:58:31.226Z</time></trkpt><trkpt lat="42.1314341" lon="11.8676371"><ele>359.5</ele><time>2026-04-04T14:58:32.227Z</time></trkpt><trkpt lat="42.13132" lon="11.8674916"><ele>359.0</ele><time>2026-04-04T14:58:33.218Z</time></trkpt><trkpt lat="42.1311903" lon="11.8673386"><ele>359.0</ele><time>2026-04-04T14:58:34.22Z</time></trkpt><trkpt lat="42.1310577" lon="11.8671899"><ele>359.0</ele><time>2026-04-04T14:58:35.219Z</time></trkpt><trkpt lat="42.1309269" lon="11.867059"><ele>359.0</ele><time>2026-04-04T14:58:36.225Z</time></trkpt><trkpt lat="42.1307883" lon="11.8669488"><ele>358.0</ele><time>2026-04-04T14:58:37.222Z</time></trkpt><trkpt lat="42.1306409" lon="11.8668533"><ele>357.0</ele><time>2026-04-04T14:58:38.23Z</time></trkpt><trkpt lat="42.1304867" lon="11.8667806"><ele>356.0</ele><time>2026-04-04T14:58:39.233Z</time></trkpt><trkpt lat="42.1303288" lon="11.8667176"><ele>356.0</ele><time>2026-04-04T14:58:40.222Z</time></trkpt><trkpt lat="42.1301687" lon="11.8666522"><ele>356.0</ele><time>2026-04-04T14:58:41.223Z</time></trkpt><trkpt lat="42.1300091" lon="11.8665868"><ele>356.0</ele><time>2026-04-04T14:58:42.229Z</time></trkpt><trkpt lat="42.1298495" lon="11.8665143"><ele>352.6666666666667</ele><time>2026-04-04T14:58:43.224Z</time></trkpt><trkpt lat="42.129685" lon="11.8664468"><ele>349.3333333333333</ele><time>2026-04-04T14:58:44.219Z</time></trkpt><trkpt lat="42.1295174" lon="11.8663751"><ele>346.0</ele><time>2026-04-04T14:58:45.22Z</time></trkpt><trkpt lat="42.1293458" lon="11.8662989"><ele>346.0</ele><time>2026-04-04T14:58:46.218Z</time></trkpt><trkpt lat="42.1291751" lon="11.8662286"><ele>346.0</ele><time>2026-04-04T14:58:47.228Z</time></trkpt><trkpt lat="42.1290044" lon="11.8661476"><ele>346.0</ele><time>2026-04-04T14:58:48.222Z</time></trkpt><trkpt lat="42.1288344" lon="11.8660684"><ele>343.66666666666663</ele><time>2026-04-04T14:58:49.218Z</time></trkpt><trkpt lat="42.1286654" lon="11.8659886"><ele>341.3333333333333</ele><time>2026-04-04T14:58:50.223Z</time></trkpt><trkpt lat="42.1284985" lon="11.8659056"><ele>339.0</ele><time>2026-04-04T14:58:51.223Z</time></trkpt><trkpt lat="42.1283325" lon="11.8658214"><ele>339.3333333333333</ele><time>2026-04-04T14:58:52.221Z</time></trkpt><trkpt lat="42.1281672" lon="11.8657403"><ele>339.66666666666663</ele><time>2026-04-04T14:58:53.222Z</time></trkpt><trkpt lat="42.1280059" lon="11.8656591"><ele>340.0</ele><time>2026-04-04T14:58:54.219Z</time></trkpt><trkpt lat="42.1278406" lon="11.8655774"><ele>340.0</ele><time>2026-04-04T14:58:55.232Z</time></trkpt><trkpt lat="42.1276762" lon="11.8654875"><ele>340.0</ele><time>2026-04-04T14:58:56.225Z</time></trkpt><trkpt lat="42.1275134" lon="11.8653987"><ele>340.0</ele><time>2026-04-04T14:58:57.225Z</time></trkpt><trkpt lat="42.1273496" lon="11.8653127"><ele>339.66666666666663</ele><time>2026-04-04T14:58:58.223Z</time></trkpt><trkpt lat="42.1271866" lon="11.8652235"><ele>339.3333333333333</ele><time>2026-04-04T14:58:59.225Z</time></trkpt><trkpt lat="42.1270287" lon="11.8651356"><ele>339.0</ele><time>2026-04-04T14:59:00.221Z</time></trkpt><trkpt lat="42.1268793" lon="11.8650539"><ele>339.0</ele><time>2026-04-04T14:59:01.22Z</time></trkpt><trkpt lat="42.1267362" lon="11.8649771"><ele>339.0</ele><time>2026-04-04T14:59:02.226Z</time></trkpt><trkpt lat="42.1265992" lon="11.8649013"><ele>339.0</ele><time>2026-04-04T14:59:03.225Z</time></trkpt><trkpt lat="42.1264723" lon="11.864818"><ele>339.0</ele><time>2026-04-04T14:59:04.223Z</time></trkpt><trkpt lat="42.1263526" lon="11.8647407"><ele>337.0</ele><time>2026-04-04T14:59:05.225Z</time></trkpt><trkpt lat="42.1262407" lon="11.8646633"><ele>335.0</ele><time>2026-04-04T14:59:06.225Z</time></trkpt><trkpt lat="42.126133" lon="11.8645883"><ele>333.0</ele><time>2026-04-04T14:59:07.226Z</time></trkpt><trkpt lat="42.1260293" lon="11.8645004"><ele>331.0</ele><time>2026-04-04T14:59:08.22Z</time></trkpt><trkpt lat="42.1259362" lon="11.8644123"><ele>331.0</ele><time>2026-04-04T14:59:09.223Z</time></trkpt><trkpt lat="42.1258526" lon="11.8643218"><ele>331.0</ele><time>2026-04-04T14:59:10.22Z</time></trkpt><trkpt lat="42.1257693" lon="11.8642147"><ele>331.0</ele><time>2026-04-04T14:59:11.222Z</time></trkpt><trkpt lat="42.125689" lon="11.8640962"><ele>331.0</ele><time>2026-04-04T14:59:12.223Z</time></trkpt><trkpt lat="42.1256197" lon="11.8639637"><ele>331.25</ele><time>2026-04-04T14:59:13.223Z</time></trkpt><trkpt lat="42.1255669" lon="11.8638188"><ele>331.5</ele><time>2026-04-04T14:59:14.23Z</time></trkpt><trkpt lat="42.1255216" lon="11.8636651"><ele>331.75</ele><time>2026-04-04T14:59:15.225Z</time></trkpt><trkpt lat="42.1254847" lon="11.8635058"><ele>332.0</ele><time>2026-04-04T14:59:16.221Z</time></trkpt><trkpt lat="42.1254564" lon="11.8633419"><ele>330.5</ele><time>2026-04-04T14:59:17.231Z</time></trkpt><trkpt lat="42.12543" lon="11.8631659"><ele>329.0</ele><time>2026-04-04T14:59:18.229Z</time></trkpt><trkpt lat="42.1254084" lon="11.8629916"><ele>327.5</ele><time>2026-04-04T14:59:19.224Z</time></trkpt><trkpt lat="42.1253956" lon="11.8628112"><ele>326.0</ele><time>2026-04-04T14:59:20.225Z</time></trkpt><trkpt lat="42.1253808" lon="11.862625"><ele>324.5</ele><time>2026-04-04T14:59:21.224Z</time></trkpt><trkpt lat="42.1253712" lon="11.8624395"><ele>323.0</ele><time>2026-04-04T14:59:22.22Z</time></trkpt><trkpt lat="42.125371" lon="11.8622491"><ele>321.5</ele><time>2026-04-04T14:59:23.221Z</time></trkpt><trkpt lat="42.1253851" lon="11.862065"><ele>320.0</ele><time>2026-04-04T14:59:24.223Z</time></trkpt><trkpt lat="42.1254048" lon="11.8618789"><ele>318.0</ele><time>2026-04-04T14:59:25.226Z</time></trkpt><trkpt lat="42.1254306" lon="11.861693"><ele>316.0</ele><time>2026-04-04T14:59:26.224Z</time></trkpt><trkpt lat="42.1254539" lon="11.8615066"><ele>314.0</ele><time>2026-04-04T14:59:27.221Z</time></trkpt><trkpt lat="42.1254822" lon="11.861323"><ele>312.0</ele><time>2026-04-04T14:59:28.226Z</time></trkpt><trkpt lat="42.125509" lon="11.8611383"><ele>312.0</ele><time>2026-04-04T14:59:29.223Z</time></trkpt><trkpt lat="42.1255378" lon="11.8609566"><ele>312.0</ele><time>2026-04-04T14:59:30.226Z</time></trkpt><trkpt lat="42.1255676" lon="11.8607728"><ele>312.0</ele><time>2026-04-04T14:59:31.224Z</time></trkpt><trkpt lat="42.125603" lon="11.8605931"><ele>312.0</ele><time>2026-04-04T14:59:32.22Z</time></trkpt><trkpt lat="42.1256376" lon="11.8604125"><ele>310.5</ele><time>2026-04-04T14:59:33.223Z</time></trkpt><trkpt lat="42.1256827" lon="11.8602365"><ele>309.0</ele><time>2026-04-04T14:59:34.224Z</time></trkpt><trkpt lat="42.1257255" lon="11.8600595"><ele>307.5</ele><time>2026-04-04T14:59:35.226Z</time></trkpt><trkpt lat="42.1257655" lon="11.8598801"><ele>306.0</ele><time>2026-04-04T14:59:36.224Z</time></trkpt><trkpt lat="42.1258077" lon="11.8596964"><ele>309.75</ele><time>2026-04-04T14:59:37.222Z</time></trkpt><trkpt lat="42.1258476" lon="11.8595118"><ele>313.5</ele><time>2026-04-04T14:59:38.219Z</time></trkpt><trkpt lat="42.1258894" lon="11.8593273"><ele>317.25</ele><time>2026-04-04T14:59:39.224Z</time></trkpt><trkpt lat="42.1259308" lon="11.859138"><ele>321.0</ele><time>2026-04-04T14:59:40.223Z</time></trkpt><trkpt lat="42.1259709" lon="11.858947"><ele>321.0</ele><time>2026-04-04T14:59:41.23Z</time></trkpt><trkpt lat="42.1260053" lon="11.8587505"><ele>321.0</ele><time>2026-04-04T14:59:42.221Z</time></trkpt><trkpt lat="42.1260384" lon="11.8585527"><ele>321.0</ele><time>2026-04-04T14:59:43.22Z</time></trkpt><trkpt lat="42.1260654" lon="11.8583546"><ele>321.0</ele><time>2026-04-04T14:59:44.223Z</time></trkpt><trkpt lat="42.1260887" lon="11.8581537"><ele>320.5</ele><time>2026-04-04T14:59:45.22Z</time></trkpt><trkpt lat="42.1261115" lon="11.8579581"><ele>320.0</ele><time>2026-04-04T14:59:46.22Z</time></trkpt><trkpt lat="42.1261278" lon="11.857759"><ele>319.5</ele><time>2026-04-04T14:59:47.223Z</time></trkpt><trkpt lat="42.1261423" lon="11.8575584"><ele>319.0</ele><time>2026-04-04T14:59:48.225Z</time></trkpt><trkpt lat="42.126153" lon="11.857355"><ele>318.5</ele><time>2026-04-04T14:59:49.22Z</time></trkpt><trkpt lat="42.1261555" lon="11.8571599"><ele>318.0</ele><time>2026-04-04T14:59:50.219Z</time></trkpt><trkpt lat="42.1261523" lon="11.8569726"><ele>317.5</ele><time>2026-04-04T14:59:51.218Z</time></trkpt><trkpt lat="42.1261412" lon="11.8567871"><ele>317.0</ele><time>2026-04-04T14:59:52.218Z</time></trkpt><trkpt lat="42.1261295" lon="11.8565996"><ele>316.25</ele><time>2026-04-04T14:59:53.222Z</time></trkpt><trkpt lat="42.1261186" lon="11.856413"><ele>315.5</ele><time>2026-04-04T14:59:54.231Z</time></trkpt><trkpt lat="42.1261125" lon="11.856241"><ele>314.75</ele><time>2026-04-04T14:59:55.227Z</time></trkpt><trkpt lat="42.1261156" lon="11.8560777"><ele>314.0</ele><time>2026-04-04T14:59:56.223Z</time></trkpt><trkpt lat="42.126129" lon="11.8559268"><ele>312.4</ele><time>2026-04-04T14:59:57.22Z</time></trkpt><trkpt lat="42.1261558" lon="11.8557903"><ele>310.79999999999995</ele><time>2026-04-04T14:59:58.222Z</time></trkpt><trkpt lat="42.1261973" lon="11.8556666"><ele>309.20000000000005</ele><time>2026-04-04T14:59:59.231Z</time></trkpt><trkpt lat="42.1262514" lon="11.8555496"><ele>307.6</ele><time>2026-04-04T15:00:00.221Z</time></trkpt><trkpt lat="42.1263233" lon="11.8554681"><ele>306.0</ele><time>2026-04-04T15:00:01.229Z</time></trkpt><trkpt lat="42.1264133" lon="11.8554034"><ele>306.0</ele><time>2026-04-04T15:00:02.219Z</time></trkpt><trkpt lat="42.1265158" lon="11.8553611"><ele>306.0</ele><time>2026-04-04T15:00:03.217Z</time></trkpt><trkpt lat="42.1266292" lon="11.8553403"><ele>306.0</ele><time>2026-04-04T15:00:04.222Z</time></trkpt><trkpt lat="42.1267458" lon="11.855345"><ele>306.0</ele><time>2026-04-04T15:00:05.223Z</time></trkpt><trkpt lat="42.1268622" lon="11.8553798"><ele>307.5</ele><time>2026-04-04T15:00:06.223Z</time></trkpt><trkpt lat="42.1269746" lon="11.8554429"><ele>309.0</ele><time>2026-04-04T15:00:07.223Z</time></trkpt><trkpt lat="42.1270961" lon="11.8555128"><ele>310.5</ele><time>2026-04-04T15:00:08.221Z</time></trkpt><trkpt lat="42.1272124" lon="11.8555833"><ele>312.0</ele><time>2026-04-04T15:00:09.216Z</time></trkpt><trkpt lat="42.127341" lon="11.8556479"><ele>310.75</ele><time>2026-04-04T15:00:10.217Z</time></trkpt><trkpt lat="42.1274616" lon="11.8557154"><ele>309.5</ele><time>2026-04-04T15:00:11.22Z</time></trkpt><trkpt lat="42.1275781" lon="11.8557652"><ele>308.25</ele><time>2026-04-04T15:00:12.222Z</time></trkpt><trkpt lat="42.1276919" lon="11.8558077"><ele>307.0</ele><time>2026-04-04T15:00:13.222Z</time></trkpt><trkpt lat="42.1278167" lon="11.8558383"><ele>307.0</ele><time>2026-04-04T15:00:14.216Z</time></trkpt><trkpt lat="42.1279419" lon="11.855861"><ele>307.0</ele><time>2026-04-04T15:00:15.225Z</time></trkpt><trkpt lat="42.1280741" lon="11.8558835"><ele>307.0</ele><time>2026-04-04T15:00:16.22Z</time></trkpt><trkpt lat="42.1282064" lon="11.8559084"><ele>307.0</ele><time>2026-04-04T15:00:17.222Z</time></trkpt><trkpt lat="42.1283487" lon="11.8559334"><ele>305.0</ele><time>2026-04-04T15:00:18.225Z</time></trkpt><trkpt lat="42.128483" lon="11.8559526"><ele>303.0</ele><time>2026-04-04T15:00:19.23Z</time></trkpt><trkpt lat="42.1286096" lon="11.8559714"><ele>301.0</ele><time>2026-04-04T15:00:20.221Z</time></trkpt><trkpt lat="42.1287325" lon="11.8559777"><ele>299.0</ele><time>2026-04-04T15:00:21.227Z</time></trkpt><trkpt lat="42.1288471" lon="11.8559827"><ele>299.0</ele><time>2026-04-04T15:00:22.226Z</time></trkpt><trkpt lat="42.1289521" lon="11.8559583"><ele>299.0</ele><time>2026-04-04T15:00:23.224Z</time></trkpt><trkpt lat="42.1290497" lon="11.8559073"><ele>299.0</ele><time>2026-04-04T15:00:24.225Z</time></trkpt><trkpt lat="42.1291451" lon="11.8558346"><ele>299.0</ele><time>2026-04-04T15:00:25.224Z</time></trkpt><trkpt lat="42.1292418" lon="11.8557524"><ele>299.0</ele><time>2026-04-04T15:00:26.223Z</time></trkpt><trkpt lat="42.1292827" lon="11.8555926"><ele>298.75</ele><time>2026-04-04T15:00:27.224Z</time></trkpt><trkpt lat="42.1293285" lon="11.855449"><ele>298.5</ele><time>2026-04-04T15:00:28.226Z</time></trkpt><trkpt lat="42.1293438" lon="11.8552831"><ele>298.25</ele><time>2026-04-04T15:00:29.225Z</time></trkpt><trkpt lat="42.1293399" lon="11.8551096"><ele>298.0</ele><time>2026-04-04T15:00:30.227Z</time></trkpt><trkpt lat="42.1293129" lon="11.854941"><ele>296.25</ele><time>2026-04-04T15:00:31.222Z</time></trkpt><trkpt lat="42.1292761" lon="11.8547723"><ele>294.5</ele><time>2026-04-04T15:00:32.224Z</time></trkpt><trkpt lat="42.1292351" lon="11.8546037"><ele>292.75</ele><time>2026-04-04T15:00:33.226Z</time></trkpt><trkpt lat="42.1291979" lon="11.8544356"><ele>291.0</ele><time>2026-04-04T15:00:34.222Z</time></trkpt><trkpt lat="42.1291624" lon="11.8542698"><ele>291.0</ele><time>2026-04-04T15:00:35.224Z</time></trkpt><trkpt lat="42.1291262" lon="11.8541083"><ele>291.0</ele><time>2026-04-04T15:00:36.225Z</time></trkpt><trkpt lat="42.129088" lon="11.8539394"><ele>291.0</ele><time>2026-04-04T15:00:37.223Z</time></trkpt><trkpt lat="42.1290462" lon="11.8537701"><ele>291.0</ele><time>2026-04-04T15:00:38.222Z</time></trkpt><trkpt lat="42.1290056" lon="11.8536063"><ele>284.75</ele><time>2026-04-04T15:00:39.224Z</time></trkpt><trkpt lat="42.1289674" lon="11.8534458"><ele>278.5</ele><time>2026-04-04T15:00:40.229Z</time></trkpt><trkpt lat="42.1289337" lon="11.8532959"><ele>272.25</ele><time>2026-04-04T15:00:41.221Z</time></trkpt><trkpt lat="42.1289014" lon="11.8531424"><ele>266.0</ele><time>2026-04-04T15:00:42.22Z</time></trkpt><trkpt lat="42.1288754" lon="11.852989"><ele>266.0</ele><time>2026-04-04T15:00:43.224Z</time></trkpt><trkpt lat="42.1288616" lon="11.8528374"><ele>266.0</ele><time>2026-04-04T15:00:44.221Z</time></trkpt><trkpt lat="42.1288562" lon="11.8526899"><ele>266.0</ele><time>2026-04-04T15:00:45.232Z</time></trkpt><trkpt lat="42.1288659" lon="11.8525466"><ele>266.0</ele><time>2026-04-04T15:00:46.233Z</time></trkpt><trkpt lat="42.1288915" lon="11.8523983"><ele>266.0</ele><time>2026-04-04T15:00:47.223Z</time></trkpt><trkpt lat="42.1289419" lon="11.852259"><ele>266.0</ele><time>2026-04-04T15:00:48.221Z</time></trkpt><trkpt lat="42.1290093" lon="11.8521289"><ele>266.0</ele><time>2026-04-04T15:00:49.224Z</time></trkpt><trkpt lat="42.1290909" lon="11.8520274"><ele>266.0</ele><time>2026-04-04T15:00:50.221Z</time></trkpt><trkpt lat="42.1291907" lon="11.8519397"><ele>266.0</ele><time>2026-04-04T15:00:51.225Z</time></trkpt><trkpt lat="42.1292954" lon="11.8518619"><ele>267.75</ele><time>2026-04-04T15:00:52.219Z</time></trkpt><trkpt lat="42.1294086" lon="11.8517911"><ele>269.5</ele><time>2026-04-04T15:00:53.231Z</time></trkpt><trkpt lat="42.129521" lon="11.8517185"><ele>271.25</ele><time>2026-04-04T15:00:54.221Z</time></trkpt><trkpt lat="42.1296363" lon="11.8516436"><ele>273.0</ele><time>2026-04-04T15:00:55.226Z</time></trkpt><trkpt lat="42.1297477" lon="11.8515552"><ele>273.0</ele><time>2026-04-04T15:00:56.226Z</time></trkpt><trkpt lat="42.1298556" lon="11.8514579"><ele>273.0</ele><time>2026-04-04T15:00:57.22Z</time></trkpt><trkpt lat="42.1299536" lon="11.8513409"><ele>273.0</ele><time>2026-04-04T15:00:58.223Z</time></trkpt><trkpt lat="42.1300351" lon="11.8512091"><ele>273.0</ele><time>2026-04-04T15:00:59.22Z</time></trkpt><trkpt lat="42.1301136" lon="11.8510781"><ele>272.75</ele><time>2026-04-04T15:01:00.223Z</time></trkpt><trkpt lat="42.1301712" lon="11.8509372"><ele>272.5</ele><time>2026-04-04T15:01:01.223Z</time></trkpt><trkpt lat="42.1302108" lon="11.8507896"><ele>272.25</ele><time>2026-04-04T15:01:02.227Z</time></trkpt><trkpt lat="42.1302355" lon="11.8506265"><ele>272.0</ele><time>2026-04-04T15:01:03.226Z</time></trkpt><trkpt lat="42.1302515" lon="11.8504563"><ele>272.0</ele><time>2026-04-04T15:01:04.218Z</time></trkpt><trkpt lat="42.1302597" lon="11.850281"><ele>272.0</ele><time>2026-04-04T15:01:05.223Z</time></trkpt><trkpt lat="42.1302646" lon="11.8501105"><ele>272.0</ele><time>2026-04-04T15:01:06.228Z</time></trkpt><trkpt lat="42.1302491" lon="11.8499425"><ele>272.0</ele><time>2026-04-04T15:01:07.22Z</time></trkpt><trkpt lat="42.1302175" lon="11.8497734"><ele>271.75</ele><time>2026-04-04T15:01:08.228Z</time></trkpt><trkpt lat="42.1301669" lon="11.8496076"><ele>271.5</ele><time>2026-04-04T15:01:09.218Z</time></trkpt><trkpt lat="42.1301025" lon="11.8494418"><ele>271.25</ele><time>2026-04-04T15:01:10.23Z</time></trkpt><trkpt lat="42.1300284" lon="11.8492846"><ele>271.0</ele><time>2026-04-04T15:01:11.219Z</time></trkpt><trkpt lat="42.1299478" lon="11.8491217"><ele>267.25</ele><time>2026-04-04T15:01:12.221Z</time></trkpt><trkpt lat="42.1298677" lon="11.8489604"><ele>263.5</ele><time>2026-04-04T15:01:13.221Z</time></trkpt><trkpt lat="42.1297959" lon="11.8488067"><ele>259.75</ele><time>2026-04-04T15:01:14.224Z</time></trkpt><trkpt lat="42.1297293" lon="11.8486625"><ele>256.0</ele><time>2026-04-04T15:01:15.226Z</time></trkpt><trkpt lat="42.1296734" lon="11.8485303"><ele>256.8</ele><time>2026-04-04T15:01:16.225Z</time></trkpt><trkpt lat="42.1296314" lon="11.8483926"><ele>257.6</ele><time>2026-04-04T15:01:17.222Z</time></trkpt><trkpt lat="42.1296085" lon="11.8482435"><ele>258.4</ele><time>2026-04-04T15:01:18.222Z</time></trkpt><trkpt lat="42.129618" lon="11.8480954"><ele>259.2</ele><time>2026-04-04T15:01:19.225Z</time></trkpt><trkpt lat="42.1296583" lon="11.8479496"><ele>260.0</ele><time>2026-04-04T15:01:20.224Z</time></trkpt><trkpt lat="42.1297224" lon="11.8478221"><ele>260.0</ele><time>2026-04-04T15:01:21.229Z</time></trkpt><trkpt lat="42.129813" lon="11.8477219"><ele>260.0</ele><time>2026-04-04T15:01:22.217Z</time></trkpt><trkpt lat="42.1299192" lon="11.8476415"><ele>260.0</ele><time>2026-04-04T15:01:23.226Z</time></trkpt><trkpt lat="42.1300306" lon="11.8475623"><ele>260.0</ele><time>2026-04-04T15:01:24.226Z</time></trkpt><trkpt lat="42.1301455" lon="11.8474777"><ele>260.75</ele><time>2026-04-04T15:01:25.217Z</time></trkpt><trkpt lat="42.1302529" lon="11.8473893"><ele>261.5</ele><time>2026-04-04T15:01:26.222Z</time></trkpt><trkpt lat="42.1303486" lon="11.8473007"><ele>262.25</ele><time>2026-04-04T15:01:27.225Z</time></trkpt><trkpt lat="42.130439" lon="11.8472032"><ele>263.0</ele><time>2026-04-04T15:01:28.223Z</time></trkpt><trkpt lat="42.1305289" lon="11.8470911"><ele>263.0</ele><time>2026-04-04T15:01:29.224Z</time></trkpt><trkpt lat="42.1306145" lon="11.8469539"><ele>263.0</ele><time>2026-04-04T15:01:30.225Z</time></trkpt><trkpt lat="42.1306857" lon="11.8467938"><ele>263.0</ele><time>2026-04-04T15:01:31.224Z</time></trkpt><trkpt lat="42.130741" lon="11.8466222"><ele>263.0</ele><time>2026-04-04T15:01:32.225Z</time></trkpt><trkpt lat="42.1307901" lon="11.8464418"><ele>263.25</ele><time>2026-04-04T15:01:33.224Z</time></trkpt><trkpt lat="42.1308295" lon="11.8462511"><ele>263.5</ele><time>2026-04-04T15:01:34.225Z</time></trkpt><trkpt lat="42.1308623" lon="11.8460538"><ele>263.75</ele><time>2026-04-04T15:01:35.225Z</time></trkpt><trkpt lat="42.1308922" lon="11.8458565"><ele>264.0</ele><time>2026-04-04T15:01:36.222Z</time></trkpt><trkpt lat="42.1309265" lon="11.8456593"><ele>262.0</ele><time>2026-04-04T15:01:37.229Z</time></trkpt><trkpt lat="42.1309537" lon="11.8454805"><ele>260.0</ele><time>2026-04-04T15:01:38.221Z</time></trkpt><trkpt lat="42.130968" lon="11.8453092"><ele>258.0</ele><time>2026-04-04T15:01:39.225Z</time></trkpt><trkpt lat="42.1309566" lon="11.8451456"><ele>256.0</ele><time>2026-04-04T15:01:40.219Z</time></trkpt><trkpt lat="42.1309196" lon="11.8449842"><ele>255.66666666666666</ele><time>2026-04-04T15:01:41.226Z</time></trkpt><trkpt lat="42.1308655" lon="11.8448256"><ele>255.33333333333331</ele><time>2026-04-04T15:01:42.219Z</time></trkpt><trkpt lat="42.1308104" lon="11.8446667"><ele>255.0</ele><time>2026-04-04T15:01:43.224Z</time></trkpt><trkpt lat="42.1307553" lon="11.8443305"><ele>255.75</ele><time>2026-04-04T15:01:45.231Z</time></trkpt><trkpt lat="42.1307492" lon="11.8441489"><ele>256.5</ele><time>2026-04-04T15:01:46.224Z</time></trkpt><trkpt lat="42.1307568" lon="11.8439649"><ele>257.25</ele><time>2026-04-04T15:01:47.239Z</time></trkpt><trkpt lat="42.1307747" lon="11.843777"><ele>258.0</ele><time>2026-04-04T15:01:48.235Z</time></trkpt><trkpt lat="42.1308051" lon="11.8435899"><ele>255.66666666666669</ele><time>2026-04-04T15:01:49.231Z</time></trkpt><trkpt lat="42.130839" lon="11.8433937"><ele>253.33333333333334</ele><time>2026-04-04T15:01:50.229Z</time></trkpt><trkpt lat="42.1308711" lon="11.8431922"><ele>251.0</ele><time>2026-04-04T15:01:51.23Z</time></trkpt><trkpt lat="42.1309071" lon="11.8429956"><ele>251.0</ele><time>2026-04-04T15:01:52.233Z</time></trkpt><trkpt lat="42.1309407" lon="11.8428101"><ele>251.0</ele><time>2026-04-04T15:01:53.219Z</time></trkpt><trkpt lat="42.1309718" lon="11.8426358"><ele>251.0</ele><time>2026-04-04T15:01:54.223Z</time></trkpt><trkpt lat="42.1310088" lon="11.8424801"><ele>251.0</ele><time>2026-04-04T15:01:55.226Z</time></trkpt><trkpt lat="42.1310516" lon="11.8423369"><ele>248.75</ele><time>2026-04-04T15:01:56.222Z</time></trkpt><trkpt lat="42.1311121" lon="11.8422006"><ele>246.5</ele><time>2026-04-04T15:01:57.232Z</time></trkpt><trkpt lat="42.1311993" lon="11.842081"><ele>244.25</ele><time>2026-04-04T15:01:58.233Z</time></trkpt><trkpt lat="42.1313057" lon="11.841983"><ele>242.0</ele><time>2026-04-04T15:01:59.222Z</time></trkpt><trkpt lat="42.1314264" lon="11.8419116"><ele>242.0</ele><time>2026-04-04T15:02:00.232Z</time></trkpt><trkpt lat="42.1315535" lon="11.8418482"><ele>242.0</ele><time>2026-04-04T15:02:01.227Z</time></trkpt><trkpt lat="42.131676" lon="11.8417997"><ele>242.0</ele><time>2026-04-04T15:02:02.223Z</time></trkpt><trkpt lat="42.1317964" lon="11.8417442"><ele>242.0</ele><time>2026-04-04T15:02:03.24Z</time></trkpt><trkpt lat="42.1319144" lon="11.8416634"><ele>242.0</ele><time>2026-04-04T15:02:04.242Z</time></trkpt><trkpt lat="42.1320198" lon="11.8415515"><ele>242.0</ele><time>2026-04-04T15:02:05.228Z</time></trkpt><trkpt lat="42.1321173" lon="11.841419"><ele>242.0</ele><time>2026-04-04T15:02:06.218Z</time></trkpt><trkpt lat="42.1322096" lon="11.8412725"><ele>242.0</ele><time>2026-04-04T15:02:07.221Z</time></trkpt><trkpt lat="42.1322967" lon="11.8411348"><ele>242.0</ele><time>2026-04-04T15:02:08.227Z</time></trkpt><trkpt lat="42.1323828" lon="11.8410092"><ele>242.0</ele><time>2026-04-04T15:02:09.219Z</time></trkpt><trkpt lat="42.1324774" lon="11.8409168"><ele>242.0</ele><time>2026-04-04T15:02:10.223Z</time></trkpt><trkpt lat="42.1325797" lon="11.8408371"><ele>242.0</ele><time>2026-04-04T15:02:11.226Z</time></trkpt><trkpt lat="42.1326863" lon="11.8407859"><ele>241.25</ele><time>2026-04-04T15:02:12.223Z</time></trkpt><trkpt lat="42.1328015" lon="11.8407643"><ele>240.5</ele><time>2026-04-04T15:02:13.222Z</time></trkpt><trkpt lat="42.13292" lon="11.8407733"><ele>239.75</ele><time>2026-04-04T15:02:14.239Z</time></trkpt><trkpt lat="42.1330389" lon="11.8408152"><ele>239.0</ele><time>2026-04-04T15:02:15.222Z</time></trkpt><trkpt lat="42.1331436" lon="11.8408693"><ele>238.79999999999998</ele><time>2026-04-04T15:02:16.222Z</time></trkpt><trkpt lat="42.1332403" lon="11.8409167"><ele>238.59999999999997</ele><time>2026-04-04T15:02:17.223Z</time></trkpt><trkpt lat="42.1333338" lon="11.8409516"><ele>238.4</ele><time>2026-04-04T15:02:18.218Z</time></trkpt><trkpt lat="42.133437" lon="11.8409541"><ele>238.2</ele><time>2026-04-04T15:02:19.227Z</time></trkpt><trkpt lat="42.1335429" lon="11.84093"><ele>238.0</ele><time>2026-04-04T15:02:20.22Z</time></trkpt><trkpt lat="42.133632" lon="11.8408822"><ele>238.0</ele><time>2026-04-04T15:02:21.218Z</time></trkpt><trkpt lat="42.1337038" lon="11.8408102"><ele>238.0</ele><time>2026-04-04T15:02:22.218Z</time></trkpt><trkpt lat="42.1337721" lon="11.8407163"><ele>238.0</ele><time>2026-04-04T15:02:23.223Z</time></trkpt><trkpt lat="42.1338353" lon="11.8406067"><ele>238.0</ele><time>2026-04-04T15:02:24.222Z</time></trkpt><trkpt lat="42.1338917" lon="11.84048"><ele>238.0</ele><time>2026-04-04T15:02:25.23Z</time></trkpt><trkpt lat="42.1339549" lon="11.8403535"><ele>238.0</ele><time>2026-04-04T15:02:26.226Z</time></trkpt><trkpt lat="42.1340132" lon="11.8402206"><ele>238.0</ele><time>2026-04-04T15:02:27.22Z</time></trkpt><trkpt lat="42.1340524" lon="11.8400921"><ele>238.0</ele><time>2026-04-04T15:02:28.223Z</time></trkpt><trkpt lat="42.1340798" lon="11.839962"><ele>238.0</ele><time>2026-04-04T15:02:29.224Z</time></trkpt><trkpt lat="42.134088" lon="11.8398125"><ele>238.0</ele><time>2026-04-04T15:02:30.232Z</time></trkpt><trkpt lat="42.13408" lon="11.8396501"><ele>238.0</ele><time>2026-04-04T15:02:31.22Z</time></trkpt><trkpt lat="42.1340806" lon="11.839492"><ele>238.0</ele><time>2026-04-04T15:02:32.223Z</time></trkpt><trkpt lat="42.1341004" lon="11.8393512"><ele>238.0</ele><time>2026-04-04T15:02:33.222Z</time></trkpt><trkpt lat="42.1341391" lon="11.8392136"><ele>238.0</ele><time>2026-04-04T15:02:34.224Z</time></trkpt><trkpt lat="42.1342087" lon="11.8390937"><ele>238.0</ele><time>2026-04-04T15:02:35.223Z</time></trkpt><trkpt lat="42.1342996" lon="11.8390036"><ele>235.5</ele><time>2026-04-04T15:02:36.218Z</time></trkpt><trkpt lat="42.1344098" lon="11.8389444"><ele>233.0</ele><time>2026-04-04T15:02:37.225Z</time></trkpt><trkpt lat="42.1345301" lon="11.83892"><ele>230.5</ele><time>2026-04-04T15:02:38.231Z</time></trkpt><trkpt lat="42.1346396" lon="11.8389089"><ele>228.0</ele><time>2026-04-04T15:02:39.222Z</time></trkpt><trkpt lat="42.1347403" lon="11.838888"><ele>228.0</ele><time>2026-04-04T15:02:40.222Z</time></trkpt><trkpt lat="42.1348359" lon="11.838846"><ele>228.0</ele><time>2026-04-04T15:02:41.22Z</time></trkpt><trkpt lat="42.1349269" lon="11.8387861"><ele>228.0</ele><time>2026-04-04T15:02:42.219Z</time></trkpt><trkpt lat="42.1350038" lon="11.8386945"><ele>228.0</ele><time>2026-04-04T15:02:43.222Z</time></trkpt><trkpt lat="42.135063" lon="11.8385685"><ele>228.0</ele><time>2026-04-04T15:02:44.217Z</time></trkpt><trkpt lat="42.1351023" lon="11.8384253"><ele>227.5</ele><time>2026-04-04T15:02:45.229Z</time></trkpt><trkpt lat="42.1351115" lon="11.8382666"><ele>227.0</ele><time>2026-04-04T15:02:46.223Z</time></trkpt><trkpt lat="42.1350989" lon="11.8381054"><ele>226.5</ele><time>2026-04-04T15:02:47.252Z</time></trkpt><trkpt lat="42.1350709" lon="11.8379413"><ele>226.0</ele><time>2026-04-04T15:02:48.225Z</time></trkpt><trkpt lat="42.1350394" lon="11.8377765"><ele>225.4</ele><time>2026-04-04T15:02:49.217Z</time></trkpt><trkpt lat="42.1350064" lon="11.8376207"><ele>224.8</ele><time>2026-04-04T15:02:50.223Z</time></trkpt><trkpt lat="42.1349785" lon="11.8374766"><ele>224.20000000000002</ele><time>2026-04-04T15:02:51.229Z</time></trkpt><trkpt lat="42.1349541" lon="11.8373435"><ele>223.60000000000002</ele><time>2026-04-04T15:02:52.226Z</time></trkpt><trkpt lat="42.1349337" lon="11.8372207"><ele>223.0</ele><time>2026-04-04T15:02:53.221Z</time></trkpt><trkpt lat="42.1349176" lon="11.8370907"><ele>223.0</ele><time>2026-04-04T15:02:54.22Z</time></trkpt><trkpt lat="42.1349167" lon="11.8369515"><ele>223.0</ele><time>2026-04-04T15:02:55.228Z</time></trkpt><trkpt lat="42.1349408" lon="11.8368079"><ele>223.0</ele><time>2026-04-04T15:02:56.221Z</time></trkpt><trkpt lat="42.1349937" lon="11.8366725"><ele>223.0</ele><time>2026-04-04T15:02:57.216Z</time></trkpt><trkpt lat="42.1350702" lon="11.8365662"><ele>223.0</ele><time>2026-04-04T15:02:58.217Z</time></trkpt><trkpt lat="42.1351726" lon="11.8364892"><ele>222.25</ele><time>2026-04-04T15:02:59.225Z</time></trkpt><trkpt lat="42.1352887" lon="11.83645"><ele>221.5</ele><time>2026-04-04T15:03:00.219Z</time></trkpt><trkpt lat="42.1354069" lon="11.8364403"><ele>220.75</ele><time>2026-04-04T15:03:01.225Z</time></trkpt><trkpt lat="42.1355306" lon="11.8364487"><ele>220.0</ele><time>2026-04-04T15:03:02.225Z</time></trkpt><trkpt lat="42.1356492" lon="11.8364635"><ele>221.25</ele><time>2026-04-04T15:03:03.218Z</time></trkpt><trkpt lat="42.1357552" lon="11.8364574"><ele>222.5</ele><time>2026-04-04T15:03:04.232Z</time></trkpt><trkpt lat="42.1358671" lon="11.8364326"><ele>223.75</ele><time>2026-04-04T15:03:05.223Z</time></trkpt><trkpt lat="42.1359757" lon="11.8363789"><ele>225.0</ele><time>2026-04-04T15:03:06.223Z</time></trkpt><trkpt lat="42.1360787" lon="11.8363041"><ele>225.0</ele><time>2026-04-04T15:03:07.22Z</time></trkpt><trkpt lat="42.136175" lon="11.8362092"><ele>225.0</ele><time>2026-04-04T15:03:08.217Z</time></trkpt><trkpt lat="42.1362615" lon="11.8360921"><ele>225.0</ele><time>2026-04-04T15:03:09.227Z</time></trkpt><trkpt lat="42.1363407" lon="11.8359682"><ele>225.0</ele><time>2026-04-04T15:03:10.22Z</time></trkpt><trkpt lat="42.1364207" lon="11.8358421"><ele>223.25</ele><time>2026-04-04T15:03:11.223Z</time></trkpt><trkpt lat="42.1364966" lon="11.8357115"><ele>221.5</ele><time>2026-04-04T15:03:12.218Z</time></trkpt><trkpt lat="42.1365711" lon="11.8355831"><ele>219.75</ele><time>2026-04-04T15:03:13.217Z</time></trkpt><trkpt lat="42.1366448" lon="11.835459"><ele>218.0</ele><time>2026-04-04T15:03:14.219Z</time></trkpt><trkpt lat="42.1367138" lon="11.8353347"><ele>218.0</ele><time>2026-04-04T15:03:15.218Z</time></trkpt><trkpt lat="42.1367745" lon="11.8352128"><ele>218.0</ele><time>2026-04-04T15:03:16.226Z</time></trkpt><trkpt lat="42.1368224" lon="11.835084"><ele>218.0</ele><time>2026-04-04T15:03:17.22Z</time></trkpt><trkpt lat="42.1368579" lon="11.8349449"><ele>218.0</ele><time>2026-04-04T15:03:18.228Z</time></trkpt><trkpt lat="42.1368679" lon="11.834796"><ele>218.0</ele><time>2026-04-04T15:03:19.218Z</time></trkpt><trkpt lat="42.1368517" lon="11.8346421"><ele>217.75</ele><time>2026-04-04T15:03:20.22Z</time></trkpt><trkpt lat="42.1368054" lon="11.8344965"><ele>217.5</ele><time>2026-04-04T15:03:21.222Z</time></trkpt><trkpt lat="42.1367377" lon="11.8343664"><ele>217.25</ele><time>2026-04-04T15:03:22.22Z</time></trkpt><trkpt lat="42.1366584" lon="11.8342434"><ele>217.0</ele><time>2026-04-04T15:03:23.224Z</time></trkpt><trkpt lat="42.1365727" lon="11.8341229"><ele>212.5</ele><time>2026-04-04T15:03:24.227Z</time></trkpt><trkpt lat="42.1364774" lon="11.8340092"><ele>208.0</ele><time>2026-04-04T15:03:25.227Z</time></trkpt><trkpt lat="42.1363869" lon="11.8338936"><ele>203.5</ele><time>2026-04-04T15:03:26.224Z</time></trkpt><trkpt lat="42.1363032" lon="11.833785"><ele>199.0</ele><time>2026-04-04T15:03:27.227Z</time></trkpt><trkpt lat="42.136234" lon="11.8336722"><ele>199.0</ele><time>2026-04-04T15:03:28.218Z</time></trkpt><trkpt lat="42.1361844" lon="11.833552"><ele>199.0</ele><time>2026-04-04T15:03:29.222Z</time></trkpt><trkpt lat="42.1361549" lon="11.8334239"><ele>199.0</ele><time>2026-04-04T15:03:30.22Z</time></trkpt><trkpt lat="42.136146" lon="11.8332767"><ele>199.0</ele><time>2026-04-04T15:03:31.219Z</time></trkpt><trkpt lat="42.1361621" lon="11.8331238"><ele>199.0</ele><time>2026-04-04T15:03:32.225Z</time></trkpt><trkpt lat="42.1362028" lon="11.832978"><ele>199.25</ele><time>2026-04-04T15:03:33.221Z</time></trkpt><trkpt lat="42.1362711" lon="11.8328424"><ele>199.5</ele><time>2026-04-04T15:03:34.219Z</time></trkpt><trkpt lat="42.1363515" lon="11.8327201"><ele>199.75</ele><time>2026-04-04T15:03:35.222Z</time></trkpt><trkpt lat="42.1364382" lon="11.8325926"><ele>200.0</ele><time>2026-04-04T15:03:36.219Z</time></trkpt><trkpt lat="42.1365278" lon="11.8324595"><ele>202.75</ele><time>2026-04-04T15:03:37.23Z</time></trkpt><trkpt lat="42.1366196" lon="11.8323237"><ele>205.5</ele><time>2026-04-04T15:03:38.228Z</time></trkpt><trkpt lat="42.1367067" lon="11.8321883"><ele>208.25</ele><time>2026-04-04T15:03:39.226Z</time></trkpt><trkpt lat="42.1367904" lon="11.8320616"><ele>211.0</ele><time>2026-04-04T15:03:40.224Z</time></trkpt><trkpt lat="42.136874" lon="11.8319373"><ele>211.0</ele><time>2026-04-04T15:03:41.229Z</time></trkpt><trkpt lat="42.1369588" lon="11.831807"><ele>211.0</ele><time>2026-04-04T15:03:42.218Z</time></trkpt><trkpt lat="42.1370408" lon="11.8316811"><ele>211.0</ele><time>2026-04-04T15:03:43.22Z</time></trkpt><trkpt lat="42.137118" lon="11.8315613"><ele>211.0</ele><time>2026-04-04T15:03:44.224Z</time></trkpt><trkpt lat="42.1371913" lon="11.8314507"><ele>209.20000000000002</ele><time>2026-04-04T15:03:45.224Z</time></trkpt><trkpt lat="42.1372608" lon="11.8313326"><ele>207.4</ele><time>2026-04-04T15:03:46.225Z</time></trkpt><trkpt lat="42.1373273" lon="11.831207"><ele>205.6</ele><time>2026-04-04T15:03:47.224Z</time></trkpt><trkpt lat="42.1373821" lon="11.8310817"><ele>203.8</ele><time>2026-04-04T15:03:48.228Z</time></trkpt><trkpt lat="42.137421" lon="11.8309561"><ele>202.0</ele><time>2026-04-04T15:03:49.222Z</time></trkpt><trkpt lat="42.1374385" lon="11.8308236"><ele>202.0</ele><time>2026-04-04T15:03:50.228Z</time></trkpt><trkpt lat="42.1374365" lon="11.8306824"><ele>202.0</ele><time>2026-04-04T15:03:51.221Z</time></trkpt><trkpt lat="42.1374163" lon="11.8305391"><ele>202.0</ele><time>2026-04-04T15:03:52.222Z</time></trkpt><trkpt lat="42.1373738" lon="11.8303995"><ele>202.0</ele><time>2026-04-04T15:03:53.234Z</time></trkpt><trkpt lat="42.1373178" lon="11.8302721"><ele>202.0</ele><time>2026-04-04T15:03:54.223Z</time></trkpt><trkpt lat="42.1372525" lon="11.830142"><ele>197.75</ele><time>2026-04-04T15:03:55.219Z</time></trkpt><trkpt lat="42.1371838" lon="11.8300144"><ele>193.5</ele><time>2026-04-04T15:03:56.225Z</time></trkpt><trkpt lat="42.1371172" lon="11.8298855"><ele>189.25</ele><time>2026-04-04T15:03:57.225Z</time></trkpt><trkpt lat="42.137045" lon="11.8297533"><ele>185.0</ele><time>2026-04-04T15:03:58.219Z</time></trkpt><trkpt lat="42.1369741" lon="11.8296204"><ele>185.0</ele><time>2026-04-04T15:03:59.226Z</time></trkpt><trkpt lat="42.136903" lon="11.829485"><ele>185.0</ele><time>2026-04-04T15:04:00.226Z</time></trkpt><trkpt lat="42.1368282" lon="11.8293503"><ele>185.0</ele><time>2026-04-04T15:04:01.223Z</time></trkpt><trkpt lat="42.1367524" lon="11.8292153"><ele>185.0</ele><time>2026-04-04T15:04:02.222Z</time></trkpt><trkpt lat="42.1366769" lon="11.8290762"><ele>186.0</ele><time>2026-04-04T15:04:03.22Z</time></trkpt><trkpt lat="42.1365978" lon="11.8289363"><ele>187.0</ele><time>2026-04-04T15:04:04.223Z</time></trkpt><trkpt lat="42.1365214" lon="11.8287925"><ele>188.0</ele><time>2026-04-04T15:04:05.224Z</time></trkpt><trkpt lat="42.1364457" lon="11.8286435"><ele>189.0</ele><time>2026-04-04T15:04:06.225Z</time></trkpt><trkpt lat="42.1363691" lon="11.8284975"><ele>187.0</ele><time>2026-04-04T15:04:07.23Z</time></trkpt><trkpt lat="42.13629" lon="11.8283525"><ele>185.0</ele><time>2026-04-04T15:04:08.225Z</time></trkpt><trkpt lat="42.136211" lon="11.8282059"><ele>183.0</ele><time>2026-04-04T15:04:09.225Z</time></trkpt><trkpt lat="42.1361332" lon="11.8280625"><ele>181.0</ele><time>2026-04-04T15:04:10.223Z</time></trkpt><trkpt lat="42.1360504" lon="11.8279306"><ele>181.0</ele><time>2026-04-04T15:04:11.223Z</time></trkpt><trkpt lat="42.1359545" lon="11.8278181"><ele>181.0</ele><time>2026-04-04T15:04:12.224Z</time></trkpt><trkpt lat="42.1358465" lon="11.827717"><ele>181.0</ele><time>2026-04-04T15:04:13.237Z</time></trkpt><trkpt lat="42.1357277" lon="11.8276362"><ele>181.0</ele><time>2026-04-04T15:04:14.221Z</time></trkpt><trkpt lat="42.1355984" lon="11.8275709"><ele>180.25</ele><time>2026-04-04T15:04:15.223Z</time></trkpt><trkpt lat="42.1354687" lon="11.827528"><ele>179.5</ele><time>2026-04-04T15:04:16.227Z</time></trkpt><trkpt lat="42.1353323" lon="11.8274947"><ele>178.75</ele><time>2026-04-04T15:04:17.222Z</time></trkpt><trkpt lat="42.1351995" lon="11.8274659"><ele>178.0</ele><time>2026-04-04T15:04:18.228Z</time></trkpt><trkpt lat="42.1350772" lon="11.8274402"><ele>178.0</ele><time>2026-04-04T15:04:19.225Z</time></trkpt><trkpt lat="42.1349621" lon="11.8274272"><ele>178.0</ele><time>2026-04-04T15:04:20.221Z</time></trkpt><trkpt lat="42.1348507" lon="11.8274089"><ele>178.0</ele><time>2026-04-04T15:04:21.221Z</time></trkpt><trkpt lat="42.1347469" lon="11.8273789"><ele>178.0</ele><time>2026-04-04T15:04:22.222Z</time></trkpt><trkpt lat="42.1346401" lon="11.8273437"><ele>178.0</ele><time>2026-04-04T15:04:23.226Z</time></trkpt><trkpt lat="42.1345313" lon="11.8272981"><ele>176.0</ele><time>2026-04-04T15:04:24.234Z</time></trkpt><trkpt lat="42.1344254" lon="11.8272306"><ele>174.0</ele><time>2026-04-04T15:04:25.221Z</time></trkpt><trkpt lat="42.1343326" lon="11.8271414"><ele>172.0</ele><time>2026-04-04T15:04:26.227Z</time></trkpt><trkpt lat="42.1342507" lon="11.827026"><ele>170.0</ele><time>2026-04-04T15:04:27.224Z</time></trkpt><trkpt lat="42.1341817" lon="11.8268884"><ele>171.5</ele><time>2026-04-04T15:04:28.219Z</time></trkpt><trkpt lat="42.1341322" lon="11.8267389"><ele>173.0</ele><time>2026-04-04T15:04:29.223Z</time></trkpt><trkpt lat="42.1340906" lon="11.8265782"><ele>174.5</ele><time>2026-04-04T15:04:30.225Z</time></trkpt><trkpt lat="42.1340655" lon="11.8264083"><ele>176.0</ele><time>2026-04-04T15:04:31.223Z</time></trkpt><trkpt lat="42.1340552" lon="11.8262293"><ele>176.0</ele><time>2026-04-04T15:04:32.224Z</time></trkpt><trkpt lat="42.1340663" lon="11.8260414"><ele>176.0</ele><time>2026-04-04T15:04:33.224Z</time></trkpt><trkpt lat="42.134093" lon="11.8258503"><ele>176.0</ele><time>2026-04-04T15:04:34.22Z</time></trkpt><trkpt lat="42.1341271" lon="11.8256621"><ele>176.0</ele><time>2026-04-04T15:04:35.225Z</time></trkpt><trkpt lat="42.1341582" lon="11.8254651"><ele>174.66666666666666</ele><time>2026-04-04T15:04:36.22Z</time></trkpt><trkpt lat="42.1341911" lon="11.8252592"><ele>173.33333333333334</ele><time>2026-04-04T15:04:37.225Z</time></trkpt><trkpt lat="42.1342309" lon="11.8250468"><ele>172.0</ele><time>2026-04-04T15:04:38.221Z</time></trkpt><trkpt lat="42.1342729" lon="11.8248301"><ele>169.66666666666669</ele><time>2026-04-04T15:04:39.22Z</time></trkpt><trkpt lat="42.1343116" lon="11.8246142"><ele>167.33333333333334</ele><time>2026-04-04T15:04:40.222Z</time></trkpt><trkpt lat="42.1343492" lon="11.8244179"><ele>165.0</ele><time>2026-04-04T15:04:41.221Z</time></trkpt><trkpt lat="42.1343846" lon="11.8242303"><ele>164.0</ele><time>2026-04-04T15:04:42.221Z</time></trkpt><trkpt lat="42.1344179" lon="11.8240466"><ele>163.0</ele><time>2026-04-04T15:04:43.222Z</time></trkpt><trkpt lat="42.1344531" lon="11.8238751"><ele>162.0</ele><time>2026-04-04T15:04:44.222Z</time></trkpt><trkpt lat="42.1344837" lon="11.8237113"><ele>161.0</ele><time>2026-04-04T15:04:45.226Z</time></trkpt><trkpt lat="42.1345173" lon="11.8235645"><ele>160.0</ele><time>2026-04-04T15:04:46.222Z</time></trkpt><trkpt lat="42.1345627" lon="11.8234314"><ele>159.0</ele><time>2026-04-04T15:04:47.225Z</time></trkpt><trkpt lat="42.1346231" lon="11.8233011"><ele>158.0</ele><time>2026-04-04T15:04:48.218Z</time></trkpt><trkpt lat="42.1346963" lon="11.8231759"><ele>157.0</ele><time>2026-04-04T15:04:49.222Z</time></trkpt><trkpt lat="42.1347813" lon="11.8230575"><ele>157.0</ele><time>2026-04-04T15:04:50.218Z</time></trkpt><trkpt lat="42.1348724" lon="11.8229436"><ele>157.0</ele><time>2026-04-04T15:04:51.225Z</time></trkpt><trkpt lat="42.1349725" lon="11.8228507"><ele>157.0</ele><time>2026-04-04T15:04:52.224Z</time></trkpt><trkpt lat="42.1350866" lon="11.8227759"><ele>157.0</ele><time>2026-04-04T15:04:53.225Z</time></trkpt><trkpt lat="42.1352076" lon="11.8227208"><ele>159.5</ele><time>2026-04-04T15:04:54.225Z</time></trkpt><trkpt lat="42.1353325" lon="11.8226794"><ele>162.0</ele><time>2026-04-04T15:04:55.227Z</time></trkpt><trkpt lat="42.135447" lon="11.8226591"><ele>164.5</ele><time>2026-04-04T15:04:56.22Z</time></trkpt><trkpt lat="42.1355643" lon="11.8226598"><ele>167.0</ele><time>2026-04-04T15:04:57.223Z</time></trkpt><trkpt lat="42.1356826" lon="11.8226713"><ele>168.25</ele><time>2026-04-04T15:04:58.219Z</time></trkpt><trkpt lat="42.1358042" lon="11.8226947"><ele>169.5</ele><time>2026-04-04T15:04:59.228Z</time></trkpt><trkpt lat="42.1359319" lon="11.8227301"><ele>170.75</ele><time>2026-04-04T15:05:00.221Z</time></trkpt><trkpt lat="42.1360592" lon="11.8227701"><ele>172.0</ele><time>2026-04-04T15:05:01.219Z</time></trkpt><trkpt lat="42.136189" lon="11.8228111"><ele>172.0</ele><time>2026-04-04T15:05:02.22Z</time></trkpt><trkpt lat="42.1363193" lon="11.8228515"><ele>172.0</ele><time>2026-04-04T15:05:03.227Z</time></trkpt><trkpt lat="42.13644" lon="11.8228881"><ele>172.0</ele><time>2026-04-04T15:05:04.226Z</time></trkpt><trkpt lat="42.136551" lon="11.8229139"><ele>172.0</ele><time>2026-04-04T15:05:05.218Z</time></trkpt><trkpt lat="42.1366541" lon="11.8229147"><ele>170.8</ele><time>2026-04-04T15:05:06.222Z</time></trkpt><trkpt lat="42.1367643" lon="11.8228928"><ele>169.6</ele><time>2026-04-04T15:05:07.221Z</time></trkpt><trkpt lat="42.1368656" lon="11.8228414"><ele>168.4</ele><time>2026-04-04T15:05:08.224Z</time></trkpt><trkpt lat="42.1369566" lon="11.8227673"><ele>167.20000000000002</ele><time>2026-04-04T15:05:09.225Z</time></trkpt><trkpt lat="42.1370277" lon="11.8226659"><ele>166.0</ele><time>2026-04-04T15:05:10.22Z</time></trkpt><trkpt lat="42.1370794" lon="11.8225403"><ele>163.0</ele><time>2026-04-04T15:05:11.225Z</time></trkpt><trkpt lat="42.13711" lon="11.8224034"><ele>160.0</ele><time>2026-04-04T15:05:12.22Z</time></trkpt><trkpt lat="42.1371178" lon="11.8222612"><ele>157.0</ele><time>2026-04-04T15:05:13.219Z</time></trkpt><trkpt lat="42.1370979" lon="11.8221104"><ele>154.0</ele><time>2026-04-04T15:05:14.223Z</time></trkpt><trkpt lat="42.1370468" lon="11.8219662"><ele>151.0</ele><time>2026-04-04T15:05:15.226Z</time></trkpt><trkpt lat="42.1369708" lon="11.8218442"><ele>150.25</ele><time>2026-04-04T15:05:16.222Z</time></trkpt><trkpt lat="42.1368782" lon="11.8217547"><ele>149.5</ele><time>2026-04-04T15:05:17.233Z</time></trkpt><trkpt lat="42.136768" lon="11.8216931"><ele>148.75</ele><time>2026-04-04T15:05:18.226Z</time></trkpt><trkpt lat="42.1366511" lon="11.8216565"><ele>148.0</ele><time>2026-04-04T15:05:19.226Z</time></trkpt><trkpt lat="42.136529" lon="11.8216245"><ele>148.0</ele><time>2026-04-04T15:05:20.225Z</time></trkpt><trkpt lat="42.1364033" lon="11.8215969"><ele>148.0</ele><time>2026-04-04T15:05:21.218Z</time></trkpt><trkpt lat="42.1362858" lon="11.8215701"><ele>148.0</ele><time>2026-04-04T15:05:22.225Z</time></trkpt><trkpt lat="42.1361715" lon="11.8215467"><ele>148.0</ele><time>2026-04-04T15:05:23.217Z</time></trkpt><trkpt lat="42.1360632" lon="11.8215293"><ele>148.0</ele><time>2026-04-04T15:05:24.219Z</time></trkpt><trkpt lat="42.1359566" lon="11.8215184"><ele>148.0</ele><time>2026-04-04T15:05:25.221Z</time></trkpt><trkpt lat="42.1358434" lon="11.8215037"><ele>148.0</ele><time>2026-04-04T15:05:26.222Z</time></trkpt><trkpt lat="42.1357276" lon="11.8214894"><ele>148.0</ele><time>2026-04-04T15:05:27.223Z</time></trkpt><trkpt lat="42.1356061" lon="11.8214755"><ele>147.5</ele><time>2026-04-04T15:05:28.224Z</time></trkpt><trkpt lat="42.135479" lon="11.8214607"><ele>147.0</ele><time>2026-04-04T15:05:29.221Z</time></trkpt><trkpt lat="42.135349" lon="11.8214443"><ele>146.5</ele><time>2026-04-04T15:05:30.219Z</time></trkpt><trkpt lat="42.1352133" lon="11.8214346"><ele>146.0</ele><time>2026-04-04T15:05:31.219Z</time></trkpt><trkpt lat="42.1350763" lon="11.8214262"><ele>146.0</ele><time>2026-04-04T15:05:32.221Z</time></trkpt><trkpt lat="42.1349361" lon="11.8214303"><ele>146.0</ele><time>2026-04-04T15:05:33.219Z</time></trkpt><trkpt lat="42.1347948" lon="11.8214357"><ele>146.0</ele><time>2026-04-04T15:05:34.224Z</time></trkpt><trkpt lat="42.1346572" lon="11.8214404"><ele>146.0</ele><time>2026-04-04T15:05:35.223Z</time></trkpt><trkpt lat="42.1345307" lon="11.8214379"><ele>145.25</ele><time>2026-04-04T15:05:36.22Z</time></trkpt><trkpt lat="42.1344035" lon="11.821443"><ele>144.5</ele><time>2026-04-04T15:05:37.222Z</time></trkpt><trkpt lat="42.1342809" lon="11.8214456"><ele>143.75</ele><time>2026-04-04T15:05:38.23Z</time></trkpt><trkpt lat="42.1341622" lon="11.8214508"><ele>143.0</ele><time>2026-04-04T15:05:39.222Z</time></trkpt><trkpt lat="42.1340457" lon="11.8214579"><ele>142.25</ele><time>2026-04-04T15:05:40.219Z</time></trkpt><trkpt lat="42.1339383" lon="11.8214593"><ele>141.5</ele><time>2026-04-04T15:05:41.224Z</time></trkpt><trkpt lat="42.1338265" lon="11.8214517"><ele>140.75</ele><time>2026-04-04T15:05:42.223Z</time></trkpt><trkpt lat="42.1337083" lon="11.8214302"><ele>140.0</ele><time>2026-04-04T15:05:43.226Z</time></trkpt><trkpt lat="42.1335856" lon="11.8213923"><ele>140.0</ele><time>2026-04-04T15:05:44.219Z</time></trkpt><trkpt lat="42.1334576" lon="11.8213425"><ele>140.0</ele><time>2026-04-04T15:05:45.224Z</time></trkpt><trkpt lat="42.13333" lon="11.8212868"><ele>140.0</ele><time>2026-04-04T15:05:46.219Z</time></trkpt><trkpt lat="42.133213" lon="11.8212302"><ele>140.0</ele><time>2026-04-04T15:05:47.224Z</time></trkpt><trkpt lat="42.1331029" lon="11.8211758"><ele>139.0</ele><time>2026-04-04T15:05:48.226Z</time></trkpt><trkpt lat="42.1329959" lon="11.8211229"><ele>138.0</ele><time>2026-04-04T15:05:49.219Z</time></trkpt><trkpt lat="42.1328969" lon="11.8210753"><ele>137.0</ele><time>2026-04-04T15:05:50.218Z</time></trkpt><trkpt lat="42.1328004" lon="11.8210235"><ele>136.0</ele><time>2026-04-04T15:05:51.221Z</time></trkpt><trkpt lat="42.1327097" lon="11.8209739"><ele>135.0</ele><time>2026-04-04T15:05:52.218Z</time></trkpt><trkpt lat="42.1326144" lon="11.8209243"><ele>134.33333333333334</ele><time>2026-04-04T15:05:53.227Z</time></trkpt><trkpt lat="42.1325245" lon="11.820873"><ele>133.66666666666666</ele><time>2026-04-04T15:05:54.223Z</time></trkpt><trkpt lat="42.1324361" lon="11.8208211"><ele>133.0</ele><time>2026-04-04T15:05:55.219Z</time></trkpt><trkpt lat="42.1323491" lon="11.8207754"><ele>132.33333333333331</ele><time>2026-04-04T15:05:56.22Z</time></trkpt><trkpt lat="42.1322724" lon="11.8207381"><ele>131.66666666666666</ele><time>2026-04-04T15:05:57.22Z</time></trkpt><trkpt lat="42.1322055" lon="11.8206989"><ele>131.0</ele><time>2026-04-04T15:05:58.223Z</time></trkpt><trkpt lat="42.1321422" lon="11.8206668"><ele>130.0</ele><time>2026-04-04T15:05:59.223Z</time></trkpt><trkpt lat="42.1320805" lon="11.8206391"><ele>129.0</ele><time>2026-04-04T15:06:00.222Z</time></trkpt><trkpt lat="42.1320172" lon="11.82053"><ele>128.0</ele><time>2026-04-04T15:06:02.223Z</time></trkpt><trkpt lat="42.1320785" lon="11.8204493"><ele>127.0</ele><time>2026-04-04T15:06:04.226Z</time></trkpt><trkpt lat="42.1322201" lon="11.8204184"><ele>126.0</ele><time>2026-04-04T15:06:06.222Z</time></trkpt><trkpt lat="42.1323075" lon="11.820402"><ele>127.0</ele><time>2026-04-04T15:06:07.219Z</time></trkpt><trkpt lat="42.1324039" lon="11.8203693"><ele>128.0</ele><time>2026-04-04T15:06:08.222Z</time></trkpt><trkpt lat="42.1325083" lon="11.8203231"><ele>129.0</ele><time>2026-04-04T15:06:09.219Z</time></trkpt><trkpt lat="42.1326071" lon="11.8202738"><ele>130.0</ele><time>2026-04-04T15:06:10.221Z</time></trkpt><trkpt lat="42.1327076" lon="11.8202291"><ele>131.0</ele><time>2026-04-04T15:06:11.227Z</time></trkpt><trkpt lat="42.1328096" lon="11.8201727"><ele>130.4</ele><time>2026-04-04T15:06:12.222Z</time></trkpt><trkpt lat="42.132905" lon="11.8200935"><ele>129.8</ele><time>2026-04-04T15:06:13.223Z</time></trkpt><trkpt lat="42.1329849" lon="11.8200077"><ele>129.20000000000002</ele><time>2026-04-04T15:06:14.221Z</time></trkpt><trkpt lat="42.1330432" lon="11.8198938"><ele>128.6</ele><time>2026-04-04T15:06:15.223Z</time></trkpt><trkpt lat="42.13308" lon="11.8197564"><ele>128.0</ele><time>2026-04-04T15:06:16.221Z</time></trkpt><trkpt lat="42.1331037" lon="11.8195925"><ele>128.0</ele><time>2026-04-04T15:06:17.22Z</time></trkpt><trkpt lat="42.1331286" lon="11.8194173"><ele>128.0</ele><time>2026-04-04T15:06:18.223Z</time></trkpt><trkpt lat="42.1331527" lon="11.8192479"><ele>128.0</ele><time>2026-04-04T15:06:19.22Z</time></trkpt><trkpt lat="42.1331777" lon="11.8190731"><ele>128.0</ele><time>2026-04-04T15:06:20.219Z</time></trkpt><trkpt lat="42.1332049" lon="11.8188911"><ele>127.25</ele><time>2026-04-04T15:06:21.223Z</time></trkpt><trkpt lat="42.1332309" lon="11.8187068"><ele>126.5</ele><time>2026-04-04T15:06:22.22Z</time></trkpt><trkpt lat="42.1332579" lon="11.8185184"><ele>125.75</ele><time>2026-04-04T15:06:23.223Z</time></trkpt><trkpt lat="42.1332852" lon="11.818325"><ele>125.0</ele><time>2026-04-04T15:06:24.228Z</time></trkpt><trkpt lat="42.1333116" lon="11.818128"><ele>124.33333333333333</ele><time>2026-04-04T15:06:25.224Z</time></trkpt><trkpt lat="42.1333443" lon="11.817934"><ele>123.66666666666666</ele><time>2026-04-04T15:06:26.22Z</time></trkpt><trkpt lat="42.1333743" lon="11.817732"><ele>123.0</ele><time>2026-04-04T15:06:27.218Z</time></trkpt><trkpt lat="42.1334062" lon="11.817528"><ele>121.66666666666666</ele><time>2026-04-04T15:06:28.22Z</time></trkpt><trkpt lat="42.1334374" lon="11.8173194"><ele>120.33333333333333</ele><time>2026-04-04T15:06:29.219Z</time></trkpt><trkpt lat="42.1334695" lon="11.8171044"><ele>119.0</ele><time>2026-04-04T15:06:30.225Z</time></trkpt><trkpt lat="42.1335003" lon="11.8168984"><ele>118.33333333333333</ele><time>2026-04-04T15:06:31.221Z</time></trkpt><trkpt lat="42.1335291" lon="11.8166981"><ele>117.66666666666666</ele><time>2026-04-04T15:06:32.231Z</time></trkpt><trkpt lat="42.1335583" lon="11.8164914"><ele>117.0</ele><time>2026-04-04T15:06:33.224Z</time></trkpt><trkpt lat="42.1335913" lon="11.8162815"><ele>117.0</ele><time>2026-04-04T15:06:34.218Z</time></trkpt><trkpt lat="42.1336229" lon="11.8160711"><ele>117.0</ele><time>2026-04-04T15:06:35.219Z</time></trkpt><trkpt lat="42.1336507" lon="11.8158596"><ele>117.0</ele><time>2026-04-04T15:06:36.223Z</time></trkpt><trkpt lat="42.1336798" lon="11.8156454"><ele>117.33333333333334</ele><time>2026-04-04T15:06:37.225Z</time></trkpt><trkpt lat="42.1337092" lon="11.8154296"><ele>117.66666666666667</ele><time>2026-04-04T15:06:38.223Z</time></trkpt><trkpt lat="42.1337358" lon="11.8152159"><ele>118.0</ele><time>2026-04-04T15:06:39.221Z</time></trkpt><trkpt lat="42.133757" lon="11.8150023"><ele>118.0</ele><time>2026-04-04T15:06:40.225Z</time></trkpt><trkpt lat="42.1337678" lon="11.8147867"><ele>118.0</ele><time>2026-04-04T15:06:41.224Z</time></trkpt><trkpt lat="42.1337695" lon="11.8145698"><ele>118.0</ele><time>2026-04-04T15:06:42.223Z</time></trkpt><trkpt lat="42.1337669" lon="11.8143547"><ele>117.66666666666667</ele><time>2026-04-04T15:06:43.218Z</time></trkpt><trkpt lat="42.1337631" lon="11.8141385"><ele>117.33333333333334</ele><time>2026-04-04T15:06:44.217Z</time></trkpt><trkpt lat="42.1337562" lon="11.8139197"><ele>117.0</ele><time>2026-04-04T15:06:45.221Z</time></trkpt><trkpt lat="42.133749" lon="11.8137044"><ele>116.0</ele><time>2026-04-04T15:06:46.217Z</time></trkpt><trkpt lat="42.1337418" lon="11.8134875"><ele>115.0</ele><time>2026-04-04T15:06:47.221Z</time></trkpt><trkpt lat="42.1337359" lon="11.813268"><ele>114.0</ele><time>2026-04-04T15:06:48.22Z</time></trkpt><trkpt lat="42.1337294" lon="11.813046"><ele>114.0</ele><time>2026-04-04T15:06:49.226Z</time></trkpt><trkpt lat="42.1337242" lon="11.8128216"><ele>114.0</ele><time>2026-04-04T15:06:50.219Z</time></trkpt><trkpt lat="42.1337201" lon="11.8125924"><ele>114.0</ele><time>2026-04-04T15:06:51.222Z</time></trkpt><trkpt lat="42.1337177" lon="11.8123689"><ele>114.66666666666666</ele><time>2026-04-04T15:06:52.22Z</time></trkpt><trkpt lat="42.1337082" lon="11.8121423"><ele>115.33333333333333</ele><time>2026-04-04T15:06:53.224Z</time></trkpt><trkpt lat="42.1336933" lon="11.8119176"><ele>116.0</ele><time>2026-04-04T15:06:54.226Z</time></trkpt><trkpt lat="42.1336648" lon="11.8116918"><ele>116.66666666666666</ele><time>2026-04-04T15:06:55.223Z</time></trkpt><trkpt lat="42.1336249" lon="11.8114651"><ele>117.33333333333334</ele><time>2026-04-04T15:06:56.222Z</time></trkpt><trkpt lat="42.133575" lon="11.8112414"><ele>118.0</ele><time>2026-04-04T15:06:57.22Z</time></trkpt><trkpt lat="42.1335204" lon="11.8110148"><ele>117.33333333333334</ele><time>2026-04-04T15:06:58.225Z</time></trkpt><trkpt lat="42.1334644" lon="11.8107904"><ele>116.66666666666666</ele><time>2026-04-04T15:06:59.221Z</time></trkpt><trkpt lat="42.1334103" lon="11.8105605"><ele>116.0</ele><time>2026-04-04T15:07:00.223Z</time></trkpt><trkpt lat="42.1333513" lon="11.8103317"><ele>114.66666666666666</ele><time>2026-04-04T15:07:01.224Z</time></trkpt><trkpt lat="42.1332912" lon="11.8101032"><ele>113.33333333333334</ele><time>2026-04-04T15:07:02.224Z</time></trkpt><trkpt lat="42.1332332" lon="11.8098772"><ele>112.0</ele><time>2026-04-04T15:07:03.22Z</time></trkpt><trkpt lat="42.1331728" lon="11.8096494"><ele>112.0</ele><time>2026-04-04T15:07:04.226Z</time></trkpt><trkpt lat="42.1331139" lon="11.8094248"><ele>112.0</ele><time>2026-04-04T15:07:05.222Z</time></trkpt><trkpt lat="42.1330567" lon="11.8092001"><ele>112.0</ele><time>2026-04-04T15:07:06.223Z</time></trkpt><trkpt lat="42.132998" lon="11.8089734"><ele>112.0</ele><time>2026-04-04T15:07:07.218Z</time></trkpt><trkpt lat="42.1329406" lon="11.8087469"><ele>112.0</ele><time>2026-04-04T15:07:08.222Z</time></trkpt><trkpt lat="42.1328799" lon="11.8085211"><ele>112.0</ele><time>2026-04-04T15:07:09.228Z</time></trkpt><trkpt lat="42.1328213" lon="11.8082941"><ele>111.66666666666667</ele><time>2026-04-04T15:07:10.224Z</time></trkpt><trkpt lat="42.1327657" lon="11.8080681"><ele>111.33333333333334</ele><time>2026-04-04T15:07:11.223Z</time></trkpt><trkpt lat="42.1327094" lon="11.8078463"><ele>111.0</ele><time>2026-04-04T15:07:12.218Z</time></trkpt><trkpt lat="42.1326516" lon="11.8076261"><ele>111.0</ele><time>2026-04-04T15:07:13.221Z</time></trkpt><trkpt lat="42.1325962" lon="11.8074077"><ele>111.0</ele><time>2026-04-04T15:07:14.216Z</time></trkpt><trkpt lat="42.1325395" lon="11.8071878"><ele>111.0</ele><time>2026-04-04T15:07:15.223Z</time></trkpt><trkpt lat="42.1324832" lon="11.8069696"><ele>110.66666666666666</ele><time>2026-04-04T15:07:16.223Z</time></trkpt><trkpt lat="42.1324241" lon="11.8067491"><ele>110.33333333333333</ele><time>2026-04-04T15:07:17.224Z</time></trkpt><trkpt lat="42.1323696" lon="11.8065237"><ele>110.0</ele><time>2026-04-04T15:07:18.223Z</time></trkpt><trkpt lat="42.1323121" lon="11.806298"><ele>110.0</ele><time>2026-04-04T15:07:19.229Z</time></trkpt><trkpt lat="42.1322555" lon="11.8060694"><ele>110.0</ele><time>2026-04-04T15:07:20.218Z</time></trkpt><trkpt lat="42.1321974" lon="11.8058406"><ele>110.0</ele><time>2026-04-04T15:07:21.222Z</time></trkpt><trkpt lat="42.1321398" lon="11.8056135"><ele>109.33333333333333</ele><time>2026-04-04T15:07:22.22Z</time></trkpt><trkpt lat="42.1320799" lon="11.8053845"><ele>108.66666666666666</ele><time>2026-04-04T15:07:23.222Z</time></trkpt><trkpt lat="42.1320183" lon="11.805153"><ele>108.0</ele><time>2026-04-04T15:07:24.226Z</time></trkpt><trkpt lat="42.1319588" lon="11.8049164"><ele>107.33333333333334</ele><time>2026-04-04T15:07:25.223Z</time></trkpt><trkpt lat="42.1318952" lon="11.8046815"><ele>106.66666666666667</ele><time>2026-04-04T15:07:26.223Z</time></trkpt><trkpt lat="42.131835" lon="11.8044434"><ele>106.0</ele><time>2026-04-04T15:07:27.222Z</time></trkpt><trkpt lat="42.1317701" lon="11.804205"><ele>105.33333333333334</ele><time>2026-04-04T15:07:28.216Z</time></trkpt><trkpt lat="42.1317088" lon="11.8039629"><ele>104.66666666666666</ele><time>2026-04-04T15:07:29.226Z</time></trkpt><trkpt lat="42.1316438" lon="11.8037179"><ele>104.0</ele><time>2026-04-04T15:07:30.224Z</time></trkpt><trkpt lat="42.1315785" lon="11.8034772"><ele>104.0</ele><time>2026-04-04T15:07:31.225Z</time></trkpt><trkpt lat="42.1315143" lon="11.8032349"><ele>104.0</ele><time>2026-04-04T15:07:32.227Z</time></trkpt><trkpt lat="42.1314478" lon="11.802995"><ele>104.0</ele><time>2026-04-04T15:07:33.218Z</time></trkpt><trkpt lat="42.131383" lon="11.8027515"><ele>102.66666666666666</ele><time>2026-04-04T15:07:34.221Z</time></trkpt><trkpt lat="42.1313193" lon="11.8025091"><ele>101.33333333333334</ele><time>2026-04-04T15:07:35.22Z</time></trkpt><trkpt lat="42.1312563" lon="11.8022689"><ele>100.0</ele><time>2026-04-04T15:07:36.221Z</time></trkpt><trkpt lat="42.1311914" lon="11.802032"><ele>99.66666666666667</ele><time>2026-04-04T15:07:37.221Z</time></trkpt><trkpt lat="42.1311283" lon="11.8017966"><ele>99.33333333333334</ele><time>2026-04-04T15:07:38.218Z</time></trkpt><trkpt lat="42.1310687" lon="11.8015636"><ele>99.0</ele><time>2026-04-04T15:07:39.229Z</time></trkpt><trkpt lat="42.1310097" lon="11.8013344"><ele>99.0</ele><time>2026-04-04T15:07:40.222Z</time></trkpt><trkpt lat="42.1309523" lon="11.8011039"><ele>99.0</ele><time>2026-04-04T15:07:41.217Z</time></trkpt><trkpt lat="42.130895" lon="11.8008791"><ele>99.0</ele><time>2026-04-04T15:07:42.226Z</time></trkpt><trkpt lat="42.1308357" lon="11.8006517"><ele>99.0</ele><time>2026-04-04T15:07:43.227Z</time></trkpt><trkpt lat="42.1307771" lon="11.8004277"><ele>99.0</ele><time>2026-04-04T15:07:44.221Z</time></trkpt><trkpt lat="42.1307181" lon="11.800203"><ele>99.0</ele><time>2026-04-04T15:07:45.225Z</time></trkpt><trkpt lat="42.1306639" lon="11.7999773"><ele>98.66666666666666</ele><time>2026-04-04T15:07:46.215Z</time></trkpt><trkpt lat="42.1306063" lon="11.7997513"><ele>98.33333333333333</ele><time>2026-04-04T15:07:47.226Z</time></trkpt><trkpt lat="42.1305489" lon="11.7995208"><ele>98.0</ele><time>2026-04-04T15:07:48.222Z</time></trkpt><trkpt lat="42.1304904" lon="11.7992876"><ele>98.0</ele><time>2026-04-04T15:07:49.224Z</time></trkpt><trkpt lat="42.1304308" lon="11.7990559"><ele>98.0</ele><time>2026-04-04T15:07:50.234Z</time></trkpt><trkpt lat="42.1303717" lon="11.7988236"><ele>98.0</ele><time>2026-04-04T15:07:51.216Z</time></trkpt><trkpt lat="42.1303116" lon="11.798589"><ele>96.66666666666666</ele><time>2026-04-04T15:07:52.219Z</time></trkpt><trkpt lat="42.1302551" lon="11.7983515"><ele>95.33333333333333</ele><time>2026-04-04T15:07:53.227Z</time></trkpt><trkpt lat="42.1302011" lon="11.7981126"><ele>94.0</ele><time>2026-04-04T15:07:54.218Z</time></trkpt><trkpt lat="42.1301586" lon="11.7978713"><ele>93.33333333333333</ele><time>2026-04-04T15:07:55.217Z</time></trkpt><trkpt lat="42.1301233" lon="11.7976351"><ele>92.66666666666667</ele><time>2026-04-04T15:07:56.224Z</time></trkpt><trkpt lat="42.1300983" lon="11.7974134"><ele>92.0</ele><time>2026-04-04T15:07:57.225Z</time></trkpt><trkpt lat="42.1300698" lon="11.7971919"><ele>92.0</ele><time>2026-04-04T15:07:58.218Z</time></trkpt><trkpt lat="42.130031" lon="11.796977"><ele>92.0</ele><time>2026-04-04T15:07:59.226Z</time></trkpt><trkpt lat="42.1299871" lon="11.7967515"><ele>92.0</ele><time>2026-04-04T15:08:00.224Z</time></trkpt><trkpt lat="42.1299417" lon="11.7965224"><ele>91.33333333333334</ele><time>2026-04-04T15:08:01.222Z</time></trkpt><trkpt lat="42.1299008" lon="11.7962931"><ele>90.66666666666667</ele><time>2026-04-04T15:08:02.22Z</time></trkpt><trkpt lat="42.1298586" lon="11.796079"><ele>90.0</ele><time>2026-04-04T15:08:03.223Z</time></trkpt><trkpt lat="42.1298173" lon="11.79587"><ele>88.66666666666667</ele><time>2026-04-04T15:08:04.22Z</time></trkpt><trkpt lat="42.1297748" lon="11.7956693"><ele>87.33333333333334</ele><time>2026-04-04T15:08:05.227Z</time></trkpt><trkpt lat="42.1297372" lon="11.7954554"><ele>86.0</ele><time>2026-04-04T15:08:06.223Z</time></trkpt><trkpt lat="42.1296982" lon="11.7952421"><ele>83.33333333333334</ele><time>2026-04-04T15:08:07.222Z</time></trkpt><trkpt lat="42.1296593" lon="11.795021"><ele>80.66666666666667</ele><time>2026-04-04T15:08:08.223Z</time></trkpt><trkpt lat="42.1296263" lon="11.7947929"><ele>78.0</ele><time>2026-04-04T15:08:09.224Z</time></trkpt><trkpt lat="42.1296004" lon="11.7945547"><ele>77.66666666666667</ele><time>2026-04-04T15:08:10.224Z</time></trkpt><trkpt lat="42.1295824" lon="11.7943052"><ele>77.33333333333334</ele><time>2026-04-04T15:08:11.22Z</time></trkpt><trkpt lat="42.1295725" lon="11.7940612"><ele>77.0</ele><time>2026-04-04T15:08:12.226Z</time></trkpt><trkpt lat="42.1295616" lon="11.793805"><ele>77.0</ele><time>2026-04-04T15:08:13.224Z</time></trkpt><trkpt lat="42.1295549" lon="11.7935396"><ele>77.0</ele><time>2026-04-04T15:08:14.221Z</time></trkpt><trkpt lat="42.1295471" lon="11.7932672"><ele>77.0</ele><time>2026-04-04T15:08:15.221Z</time></trkpt><trkpt lat="42.1295376" lon="11.7929857"><ele>76.33333333333334</ele><time>2026-04-04T15:08:16.219Z</time></trkpt><trkpt lat="42.1295292" lon="11.7927207"><ele>75.66666666666667</ele><time>2026-04-04T15:08:17.223Z</time></trkpt><trkpt lat="42.1295214" lon="11.7924726"><ele>75.0</ele><time>2026-04-04T15:08:18.223Z</time></trkpt><trkpt lat="42.12951" lon="11.7922406"><ele>73.66666666666667</ele><time>2026-04-04T15:08:19.222Z</time></trkpt><trkpt lat="42.1294979" lon="11.7920246"><ele>72.33333333333334</ele><time>2026-04-04T15:08:20.222Z</time></trkpt><trkpt lat="42.1294926" lon="11.7918231"><ele>71.0</ele><time>2026-04-04T15:08:21.224Z</time></trkpt><trkpt lat="42.1294908" lon="11.7916321"><ele>71.0</ele><time>2026-04-04T15:08:22.218Z</time></trkpt><trkpt lat="42.1294896" lon="11.7914495"><ele>71.0</ele><time>2026-04-04T15:08:23.22Z</time></trkpt><trkpt lat="42.1294839" lon="11.7912738"><ele>71.0</ele><time>2026-04-04T15:08:24.218Z</time></trkpt><trkpt lat="42.1294804" lon="11.7911045"><ele>71.0</ele><time>2026-04-04T15:08:25.226Z</time></trkpt><trkpt lat="42.1294734" lon="11.7909298"><ele>70.5</ele><time>2026-04-04T15:08:26.224Z</time></trkpt><trkpt lat="42.1294686" lon="11.7907515"><ele>70.0</ele><time>2026-04-04T15:08:27.227Z</time></trkpt><trkpt lat="42.1294621" lon="11.7905653"><ele>69.5</ele><time>2026-04-04T15:08:28.226Z</time></trkpt><trkpt lat="42.1294558" lon="11.7903778"><ele>69.0</ele><time>2026-04-04T15:08:29.218Z</time></trkpt><trkpt lat="42.1294518" lon="11.7901997"><ele>69.0</ele><time>2026-04-04T15:08:30.227Z</time></trkpt><trkpt lat="42.1294484" lon="11.7900303"><ele>69.0</ele><time>2026-04-04T15:08:31.216Z</time></trkpt><trkpt lat="42.1294489" lon="11.7898726"><ele>69.0</ele><time>2026-04-04T15:08:32.226Z</time></trkpt><trkpt lat="42.1294632" lon="11.789733"><ele>69.0</ele><time>2026-04-04T15:08:33.223Z</time></trkpt><trkpt lat="42.1294909" lon="11.7896065"><ele>69.0</ele><time>2026-04-04T15:08:34.222Z</time></trkpt><trkpt lat="42.1295299" lon="11.7894949"><ele>69.0</ele><time>2026-04-04T15:08:35.227Z</time></trkpt><trkpt lat="42.1295789" lon="11.7893895"><ele>69.0</ele><time>2026-04-04T15:08:36.225Z</time></trkpt><trkpt lat="42.1296584" lon="11.7892959"><ele>69.0</ele><time>2026-04-04T15:08:37.219Z</time></trkpt><trkpt lat="42.129739" lon="11.7892027"><ele>69.0</ele><time>2026-04-04T15:08:38.223Z</time></trkpt><trkpt lat="42.1298241" lon="11.7891011"><ele>69.0</ele><time>2026-04-04T15:08:39.225Z</time></trkpt><trkpt lat="42.1299008" lon="11.7889901"><ele>68.2</ele><time>2026-04-04T15:08:40.228Z</time></trkpt><trkpt lat="42.1299653" lon="11.7888823"><ele>67.4</ele><time>2026-04-04T15:08:41.22Z</time></trkpt><trkpt lat="42.1300223" lon="11.7887735"><ele>66.6</ele><time>2026-04-04T15:08:42.224Z</time></trkpt><trkpt lat="42.1300773" lon="11.788654"><ele>65.8</ele><time>2026-04-04T15:08:43.217Z</time></trkpt><trkpt lat="42.1301317" lon="11.7885308"><ele>65.0</ele><time>2026-04-04T15:08:44.224Z</time></trkpt><trkpt lat="42.130182" lon="11.7884144"><ele>64.66666666666667</ele><time>2026-04-04T15:08:45.227Z</time></trkpt><trkpt lat="42.1302212" lon="11.7883094"><ele>64.33333333333334</ele><time>2026-04-04T15:08:46.22Z</time></trkpt><trkpt lat="42.1302478" lon="11.7882087"><ele>64.0</ele><time>2026-04-04T15:08:47.227Z</time></trkpt><trkpt lat="42.1302599" lon="11.7881019"><ele>63.66666666666667</ele><time>2026-04-04T15:08:48.222Z</time></trkpt><trkpt lat="42.1302566" lon="11.7879858"><ele>63.333333333333336</ele><time>2026-04-04T15:08:49.221Z</time></trkpt><trkpt lat="42.1302297" lon="11.7878881"><ele>63.0</ele><time>2026-04-04T15:08:50.22Z</time></trkpt><trkpt lat="42.1301824" lon="11.7877967"><ele>63.0</ele><time>2026-04-04T15:08:51.222Z</time></trkpt><trkpt lat="42.1301141" lon="11.7877201"><ele>63.0</ele><time>2026-04-04T15:08:52.225Z</time></trkpt><trkpt lat="42.1300279" lon="11.7876819"><ele>63.0</ele><time>2026-04-04T15:08:53.22Z</time></trkpt><trkpt lat="42.1299336" lon="11.7876828"><ele>63.0</ele><time>2026-04-04T15:08:54.219Z</time></trkpt><trkpt lat="42.1298417" lon="11.7877306"><ele>63.0</ele><time>2026-04-04T15:08:55.219Z</time></trkpt><trkpt lat="42.1297613" lon="11.787821"><ele>63.0</ele><time>2026-04-04T15:08:56.224Z</time></trkpt><trkpt lat="42.1296851" lon="11.7879228"><ele>63.0</ele><time>2026-04-04T15:08:57.222Z</time></trkpt><trkpt lat="42.129606" lon="11.7880308"><ele>63.0</ele><time>2026-04-04T15:08:58.222Z</time></trkpt><trkpt lat="42.1295288" lon="11.7881141"><ele>63.0</ele><time>2026-04-04T15:08:59.222Z</time></trkpt><trkpt lat="42.1294516" lon="11.7881664"><ele>63.0</ele><time>2026-04-04T15:09:00.22Z</time></trkpt><trkpt lat="42.1293821" lon="11.7881851"><ele>63.0</ele><time>2026-04-04T15:09:01.227Z</time></trkpt><trkpt lat="42.1293145" lon="11.7881852"><ele>63.0</ele><time>2026-04-04T15:09:02.217Z</time></trkpt><trkpt lat="42.1292492" lon="11.788178"><ele>63.0</ele><time>2026-04-04T15:09:03.223Z</time></trkpt><trkpt lat="42.1291819" lon="11.7881819"><ele>63.0</ele><time>2026-04-04T15:09:04.225Z</time></trkpt><trkpt lat="42.1291112" lon="11.7882006"><ele>63.0</ele><time>2026-04-04T15:09:05.226Z</time></trkpt><trkpt lat="42.1290381" lon="11.7882493"><ele>63.0</ele><time>2026-04-04T15:09:06.219Z</time></trkpt><trkpt lat="42.1289717" lon="11.7883046"><ele>63.0</ele><time>2026-04-04T15:09:07.225Z</time></trkpt><trkpt lat="42.1289126" lon="11.788346"><ele>62.599999999999994</ele><time>2026-04-04T15:09:08.226Z</time></trkpt><trkpt lat="42.1288562" lon="11.7883879"><ele>62.199999999999996</ele><time>2026-04-04T15:09:09.225Z</time></trkpt><trkpt lat="42.1287536" lon="11.7884621"><ele>61.8</ele><time>2026-04-04T15:09:11.222Z</time></trkpt><trkpt lat="42.1286651" lon="11.7884649"><ele>61.4</ele><time>2026-04-04T15:09:13.222Z</time></trkpt><trkpt lat="42.1285795" lon="11.7884012"><ele>61.0</ele><time>2026-04-04T15:09:15.222Z</time></trkpt><trkpt lat="42.1285034" lon="11.7882991"><ele>61.0</ele><time>2026-04-04T15:09:17.225Z</time></trkpt><trkpt lat="42.1284497" lon="11.7881976"><ele>61.0</ele><time>2026-04-04T15:09:19.219Z</time></trkpt></trkseg></trk></gpx>